Wetterdaten: Dienstag, 03.02.2026
Datum Zeit Temp. I. Temp. A. Feuchte I. Feuchte A. Luftdruck Regen Wind Richtung Richtung Sonnenschein Solar Taupunkt Windchill Windböen
03.02.2026 00:00 22,0 °C -5,7 °C 44 % 81 % 1009,9 hPa 0,0 l/m² 18,3 km/h (3 Bft) O 81 ° 0 min 0 W/m² -8,4 °C -16,0 °C 20,9 km/h (4 Bft)
03.02.2026 00:02 22,0 °C -5,8 °C 44 % 81 % 1009,9 hPa 0,0 l/m² 12,2 km/h (2 Bft) O-NO 61 ° 0 min 0 W/m² -8,5 °C -11,8 °C 19,3 km/h (3 Bft)
03.02.2026 00:04 22,0 °C -5,8 °C 44 % 81 % 1009,9 hPa 0,0 l/m² 9,7 km/h (2 Bft) O-NO 77 ° 0 min 0 W/m² -8,5 °C -9,6 °C 16,1 km/h (3 Bft)
03.02.2026 00:06 22,0 °C -5,8 °C 44 % 81 % 1009,9 hPa 0,0 l/m² 9,9 km/h (2 Bft) O 90 ° 0 min 0 W/m² -8,5 °C -9,8 °C 17,7 km/h (3 Bft)
03.02.2026 00:08 22,0 °C -5,8 °C 44 % 81 % 1009,8 hPa 0,0 l/m² 7,8 km/h (2 Bft) O 90 ° 0 min 0 W/m² -8,5 °C -7,5 °C 14,5 km/h (3 Bft)
03.02.2026 00:10 22,0 °C -5,8 °C 44 % 81 % 1009,8 hPa 0,0 l/m² 7,9 km/h (2 Bft) O-NO 63 ° 0 min 0 W/m² -8,5 °C -7,6 °C 14,5 km/h (3 Bft)
03.02.2026 00:11 22,0 °C -5,8 °C 44 % 81 % 1009,8 hPa 0,0 l/m² 12,3 km/h (2 Bft) NO 55 ° 0 min 0 W/m² -8,5 °C -11,9 °C 20,9 km/h (4 Bft)
03.02.2026 00:12 22,0 °C -5,7 °C 44 % 81 % 1009,7 hPa 0,0 l/m² 17,0 km/h (3 Bft) O-NO 66 ° 0 min 0 W/m² -8,4 °C -15,2 °C 22,5 km/h (4 Bft)
03.02.2026 00:14 22,0 °C -5,8 °C 44 % 81 % 1009,8 hPa 0,0 l/m² 12,9 km/h (3 Bft) NO 54 ° 0 min 0 W/m² -8,5 °C -12,4 °C 19,3 km/h (3 Bft)
03.02.2026 00:15 22,0 °C -5,8 °C 44 % 81 % 1009,7 hPa 0,0 l/m² 15,5 km/h (3 Bft) NO 51 ° 0 min 0 W/m² -8,5 °C -14,4 °C 24,1 km/h (4 Bft)
03.02.2026 00:16 22,0 °C -5,8 °C 44 % 81 % 1009,7 hPa 0,0 l/m² 16,8 km/h (3 Bft) O-NO 71 ° 0 min 0 W/m² -8,5 °C -15,2 °C 27,4 km/h (5 Bft)
03.02.2026 00:18 22,0 °C -5,8 °C 44 % 81 % 1009,7 hPa 0,0 l/m² 16,1 km/h (3 Bft) O-NO 63 ° 0 min 0 W/m² -8,5 °C -14,8 °C 22,5 km/h (4 Bft)
03.02.2026 00:20 22,0 °C -5,8 °C 44 % 81 % 1009,7 hPa 0,0 l/m² 10,2 km/h (2 Bft) NO 44 ° 0 min 0 W/m² -8,5 °C -10,1 °C 16,1 km/h (3 Bft)
03.02.2026 00:22 22,0 °C -5,8 °C 43 % 81 % 1009,7 hPa 0,0 l/m² 15,2 km/h (3 Bft) NO 51 ° 0 min 0 W/m² -8,5 °C -14,1 °C 20,9 km/h (4 Bft)
03.02.2026 00:23 22,0 °C -5,8 °C 43 % 81 % 1009,7 hPa 0,0 l/m² 11,5 km/h (2 Bft) NO 51 ° 0 min 0 W/m² -8,5 °C -11,2 °C 14,5 km/h (3 Bft)
03.02.2026 00:24 22,0 °C -5,8 °C 43 % 81 % 1009,7 hPa 0,0 l/m² 9,5 km/h (2 Bft) O-NO 59 ° 0 min 0 W/m² -8,5 °C -9,4 °C 17,7 km/h (3 Bft)
03.02.2026 00:26 22,0 °C -5,8 °C 43 % 81 % 1009,8 hPa 0,0 l/m² 10,8 km/h (2 Bft) O-NO 76 ° 0 min 0 W/m² -8,5 °C -10,6 °C 22,5 km/h (4 Bft)
03.02.2026 00:28 22,0 °C -5,8 °C 44 % 81 % 1009,7 hPa 0,0 l/m² 15,3 km/h (3 Bft) O-NO 70 ° 0 min 0 W/m² -8,5 °C -14,2 °C 24,1 km/h (4 Bft)
03.02.2026 00:30 22,0 °C -5,8 °C 43 % 81 % 1009,7 hPa 0,0 l/m² 13,7 km/h (3 Bft) NO 50 ° 0 min 0 W/m² -8,5 °C -13,1 °C 20,9 km/h (4 Bft)
03.02.2026 00:32 22,0 °C -5,8 °C 44 % 81 % 1009,8 hPa 0,0 l/m² 16,6 km/h (3 Bft) O 82 ° 0 min 0 W/m² -8,5 °C -15,1 °C 22,5 km/h (4 Bft)
03.02.2026 00:33 22,1 °C -5,8 °C 43 % 81 % 1009,7 hPa 0,0 l/m² 11,8 km/h (2 Bft) O-NO 64 ° 0 min 0 W/m² -8,5 °C -11,5 °C 16,1 km/h (3 Bft)
03.02.2026 00:34 22,0 °C -5,8 °C 44 % 81 % 1009,7 hPa 0,0 l/m² 6,1 km/h (2 Bft) O-NO 57 ° 0 min 0 W/m² -8,5 °C -5,8 °C 8,0 km/h (2 Bft)
03.02.2026 00:36 22,0 °C -5,8 °C 44 % 81 % 1009,7 hPa 0,0 l/m² 11,2 km/h (2 Bft) O-NO 77 ° 0 min 0 W/m² -8,5 °C -11,0 °C 19,3 km/h (3 Bft)
03.02.2026 00:38 22,1 °C -5,8 °C 44 % 81 % 1009,7 hPa 0,0 l/m² 10,3 km/h (2 Bft) NO 53 ° 0 min 0 W/m² -8,5 °C -10,1 °C 17,7 km/h (3 Bft)
03.02.2026 00:40 22,0 °C -5,8 °C 44 % 81 % 1009,7 hPa 0,0 l/m² 13,3 km/h (3 Bft) O-NO 59 ° 0 min 0 W/m² -8,5 °C -12,7 °C 20,9 km/h (4 Bft)
03.02.2026 00:42 22,0 °C -5,8 °C 44 % 81 % 1009,6 hPa 0,0 l/m² 13,8 km/h (3 Bft) O-NO 68 ° 0 min 0 W/m² -8,5 °C -13,1 °C 22,5 km/h (4 Bft)
03.02.2026 00:43 22,0 °C -5,9 °C 43 % 81 % 1009,7 hPa 0,0 l/m² 18,9 km/h (3 Bft) O-NO 76 ° 0 min 0 W/m² -8,6 °C -16,6 °C 22,5 km/h (4 Bft)
03.02.2026 00:46 22,1 °C -5,8 °C 43 % 81 % 1009,6 hPa 0,0 l/m² 15,2 km/h (3 Bft) O 100 ° 0 min 0 W/m² -8,5 °C -14,1 °C 25,7 km/h (4 Bft)
03.02.2026 00:48 22,1 °C -5,8 °C 43 % 81 % 1009,7 hPa 0,0 l/m² 14,7 km/h (3 Bft) O 84 ° 0 min 0 W/m² -8,5 °C -13,8 °C 22,5 km/h (4 Bft)
03.02.2026 00:50 22,1 °C -5,8 °C 43 % 81 % 1009,7 hPa 0,0 l/m² 16,5 km/h (3 Bft) O-NO 70 ° 0 min 0 W/m² -8,5 °C -15,0 °C 20,9 km/h (4 Bft)
03.02.2026 00:52 22,1 °C -5,8 °C 43 % 81 % 1009,7 hPa 0,0 l/m² 13,3 km/h (3 Bft) O-NO 70 ° 0 min 0 W/m² -8,5 °C -12,7 °C 19,3 km/h (3 Bft)
03.02.2026 00:53 22,1 °C -5,9 °C 43 % 81 % 1009,7 hPa 0,0 l/m² 13,1 km/h (3 Bft) O-NO 70 ° 0 min 0 W/m² -8,6 °C -12,7 °C 16,1 km/h (3 Bft)
03.02.2026 00:54 22,1 °C -5,8 °C 43 % 81 % 1009,7 hPa 0,0 l/m² 13,9 km/h (3 Bft) O-NO 71 ° 0 min 0 W/m² -8,5 °C -13,2 °C 16,1 km/h (3 Bft)
03.02.2026 00:56 22,0 °C -5,8 °C 43 % 81 % 1009,6 hPa 0,0 l/m² 14,1 km/h (3 Bft) O-NO 59 ° 0 min 0 W/m² -8,5 °C -13,4 °C 24,1 km/h (4 Bft)
03.02.2026 00:58 22,0 °C -5,8 °C 43 % 81 % 1009,5 hPa 0,0 l/m² 15,2 km/h (3 Bft) O-NO 67 ° 0 min 0 W/m² -8,5 °C -14,1 °C 24,1 km/h (4 Bft)
03.02.2026 01:00 22,1 °C -5,8 °C 43 % 81 % 1009,6 hPa 0,0 l/m² 10,1 km/h (2 Bft) NO 55 ° 0 min 0 W/m² -8,5 °C -10,0 °C 16,1 km/h (3 Bft)
03.02.2026 01:02 22,1 °C -5,8 °C 44 % 81 % 1009,7 hPa 0,0 l/m² 15,3 km/h (3 Bft) NO 45 ° 0 min 0 W/m² -8,5 °C -14,2 °C 20,9 km/h (4 Bft)
03.02.2026 01:03 22,1 °C -5,8 °C 43 % 81 % 1009,7 hPa 0,0 l/m² 14,5 km/h (3 Bft) O 86 ° 0 min 0 W/m² -8,5 °C -13,6 °C 20,9 km/h (4 Bft)
03.02.2026 01:05 22,1 °C -5,8 °C 43 % 81 % 1009,8 hPa 0,0 l/m² 14,1 km/h (3 Bft) O 79 ° 0 min 0 W/m² -8,5 °C -13,4 °C 20,9 km/h (4 Bft)
03.02.2026 01:06 22,1 °C -5,8 °C 43 % 81 % 1009,7 hPa 0,0 l/m² 15,8 km/h (3 Bft) O 83 ° 0 min 0 W/m² -8,5 °C -14,6 °C 20,9 km/h (4 Bft)
03.02.2026 01:08 22,0 °C -5,8 °C 43 % 81 % 1009,7 hPa 0,0 l/m² 13,0 km/h (3 Bft) O 80 ° 0 min 0 W/m² -8,5 °C -12,5 °C 22,5 km/h (4 Bft)
03.02.2026 01:09 22,1 °C -5,8 °C 43 % 81 % 1009,7 hPa 0,0 l/m² 14,2 km/h (3 Bft) NO 49 ° 0 min 0 W/m² -8,5 °C -13,4 °C 19,3 km/h (3 Bft)
03.02.2026 01:10 22,0 °C -5,8 °C 43 % 81 % 1009,7 hPa 0,0 l/m² 9,3 km/h (2 Bft) O 79 ° 0 min 0 W/m² -8,5 °C -9,2 °C 12,9 km/h (3 Bft)
03.02.2026 01:13 22,0 °C -5,8 °C 43 % 81 % 1009,7 hPa 0,0 l/m² 8,9 km/h (2 Bft) O 82 ° 0 min 0 W/m² -8,5 °C -8,7 °C 16,1 km/h (3 Bft)
03.02.2026 01:14 22,0 °C -5,8 °C 43 % 81 % 1009,6 hPa 0,0 l/m² 13,4 km/h (3 Bft) O 86 ° 0 min 0 W/m² -8,5 °C -12,8 °C 19,3 km/h (3 Bft)
03.02.2026 01:15 22,1 °C -5,8 °C 43 % 81 % 1009,7 hPa 0,0 l/m² 6,9 km/h (2 Bft) O-NO 67 ° 0 min 0 W/m² -8,5 °C -6,4 °C 12,9 km/h (3 Bft)
03.02.2026 01:16 22,0 °C -5,8 °C 43 % 81 % 1009,7 hPa 0,0 l/m² 14,7 km/h (3 Bft) O-NO 73 ° 0 min 0 W/m² -8,5 °C -13,8 °C 17,7 km/h (3 Bft)
03.02.2026 01:17 22,1 °C -5,8 °C 43 % 81 % 1009,5 hPa 0,0 l/m² 15,0 km/h (3 Bft) O-NO 63 ° 0 min 0 W/m² -8,5 °C -14,0 °C 19,3 km/h (3 Bft)
03.02.2026 01:18 22,0 °C -5,8 °C 44 % 81 % 1009,7 hPa 0,0 l/m² 8,5 km/h (2 Bft) O-NO 72 ° 0 min 0 W/m² -8,5 °C -8,3 °C 14,5 km/h (3 Bft)
03.02.2026 01:19 22,0 °C -5,8 °C 43 % 81 % 1009,8 hPa 0,0 l/m² 8,3 km/h (2 Bft) O-NO 67 ° 0 min 0 W/m² -8,5 °C -8,1 °C 12,9 km/h (3 Bft)
03.02.2026 01:20 22,1 °C -5,8 °C 43 % 81 % 1009,7 hPa 0,0 l/m² 10,7 km/h (2 Bft) O-NO 70 ° 0 min 0 W/m² -8,5 °C -10,5 °C 16,1 km/h (3 Bft)
03.02.2026 01:21 22,0 °C -5,8 °C 44 % 81 % 1009,8 hPa 0,0 l/m² 12,0 km/h (2 Bft) NO 55 ° 0 min 0 W/m² -8,5 °C -11,7 °C 17,7 km/h (3 Bft)
03.02.2026 01:22 22,0 °C -5,8 °C 43 % 81 % 1009,7 hPa 0,0 l/m² 16,1 km/h (3 Bft) O-NO 73 ° 0 min 0 W/m² -8,5 °C -14,8 °C 20,9 km/h (4 Bft)
03.02.2026 01:23 22,0 °C -5,8 °C 43 % 81 % 1009,7 hPa 0,0 l/m² 13,3 km/h (3 Bft) NO 45 ° 0 min 0 W/m² -8,5 °C -12,7 °C 19,3 km/h (3 Bft)
03.02.2026 01:24 22,1 °C -5,8 °C 43 % 81 % 1009,7 hPa 0,0 l/m² 6,4 km/h (2 Bft) O-NO 66 ° 0 min 0 W/m² -8,5 °C -5,7 °C 14,5 km/h (3 Bft)
03.02.2026 01:25 22,0 °C -5,8 °C 43 % 81 % 1009,7 hPa 0,0 l/m² 7,1 km/h (2 Bft) O-NO 69 ° 0 min 0 W/m² -8,5 °C -6,7 °C 9,7 km/h (2 Bft)
03.02.2026 01:26 22,1 °C -5,8 °C 43 % 81 % 1009,7 hPa 0,0 l/m² 11,7 km/h (2 Bft) O 89 ° 0 min 0 W/m² -8,5 °C -11,4 °C 19,3 km/h (3 Bft)
03.02.2026 01:27 22,0 °C -5,8 °C 44 % 81 % 1009,7 hPa 0,0 l/m² 17,6 km/h (3 Bft) O 90 ° 0 min 0 W/m² -8,5 °C -15,7 °C 22,5 km/h (4 Bft)
03.02.2026 01:28 22,0 °C -5,8 °C 44 % 81 % 1009,7 hPa 0,0 l/m² 13,5 km/h (3 Bft) O 80 ° 0 min 0 W/m² -8,5 °C -12,9 °C 16,1 km/h (3 Bft)
03.02.2026 01:29 22,0 °C -5,7 °C 43 % 81 % 1009,7 hPa 0,0 l/m² 19,9 km/h (4 Bft) O 79 ° 0 min 0 W/m² -8,4 °C -16,9 °C 24,1 km/h (4 Bft)
03.02.2026 01:31 22,0 °C -5,7 °C 44 % 81 % 1009,7 hPa 0,0 l/m² 12,9 km/h (3 Bft) O 98 ° 0 min 0 W/m² -8,4 °C -12,3 °C 22,5 km/h (4 Bft)
03.02.2026 01:32 22,0 °C -5,7 °C 43 % 81 % 1009,7 hPa 0,0 l/m² 15,2 km/h (3 Bft) O 89 ° 0 min 0 W/m² -8,4 °C -14,0 °C 20,9 km/h (4 Bft)
03.02.2026 01:33 22,0 °C -5,7 °C 43 % 81 % 1009,7 hPa 0,0 l/m² 15,2 km/h (3 Bft) O 84 ° 0 min 0 W/m² -8,4 °C -14,0 °C 17,7 km/h (3 Bft)
03.02.2026 01:34 22,0 °C -5,7 °C 44 % 81 % 1009,8 hPa 0,0 l/m² 14,4 km/h (3 Bft) O-NO 62 ° 0 min 0 W/m² -8,4 °C -13,5 °C 20,9 km/h (4 Bft)
03.02.2026 01:35 22,0 °C -5,7 °C 43 % 81 % 1009,7 hPa 0,0 l/m² 18,2 km/h (3 Bft) O 82 ° 0 min 0 W/m² -8,4 °C -16,0 °C 24,1 km/h (4 Bft)
03.02.2026 01:36 22,1 °C -5,7 °C 43 % 81 % 1009,7 hPa 0,0 l/m² 17,1 km/h (3 Bft) O 86 ° 0 min 0 W/m² -8,4 °C -15,3 °C 22,5 km/h (4 Bft)
03.02.2026 01:37 22,0 °C -5,7 °C 43 % 81 % 1009,7 hPa 0,0 l/m² 17,0 km/h (3 Bft) O 81 ° 0 min 0 W/m² -8,4 °C -15,2 °C 22,5 km/h (4 Bft)
03.02.2026 01:38 22,0 °C -5,7 °C 43 % 81 % 1009,7 hPa 0,0 l/m² 18,8 km/h (3 Bft) O-NO 69 ° 0 min 0 W/m² -8,4 °C -16,3 °C 24,1 km/h (4 Bft)
03.02.2026 01:39 22,0 °C -5,7 °C 43 % 81 % 1009,7 hPa 0,0 l/m² 15,7 km/h (3 Bft) O 80 ° 0 min 0 W/m² -8,4 °C -14,4 °C 20,9 km/h (4 Bft)
03.02.2026 01:41 22,0 °C -5,7 °C 44 % 81 % 1009,7 hPa 0,0 l/m² 13,6 km/h (3 Bft) O 94 ° 0 min 0 W/m² -8,4 °C -12,9 °C 19,3 km/h (3 Bft)
03.02.2026 01:42 22,1 °C -5,7 °C 43 % 81 % 1009,7 hPa 0,0 l/m² 15,4 km/h (3 Bft) NO 51 ° 0 min 0 W/m² -8,4 °C -14,2 °C 22,5 km/h (4 Bft)
03.02.2026 01:43 22,0 °C -5,7 °C 43 % 81 % 1009,6 hPa 0,0 l/m² 15,8 km/h (3 Bft) O-NO 57 ° 0 min 0 W/m² -8,4 °C -14,4 °C 22,5 km/h (4 Bft)
03.02.2026 01:44 22,0 °C -5,7 °C 43 % 81 % 1009,6 hPa 0,0 l/m² 14,9 km/h (3 Bft) O 79 ° 0 min 0 W/m² -8,4 °C -13,8 °C 17,7 km/h (3 Bft)
03.02.2026 01:45 22,0 °C -5,7 °C 43 % 81 % 1009,7 hPa 0,0 l/m² 15,2 km/h (3 Bft) O 89 ° 0 min 0 W/m² -8,4 °C -14,0 °C 19,3 km/h (3 Bft)
03.02.2026 01:46 22,0 °C -5,7 °C 43 % 81 % 1009,7 hPa 0,0 l/m² 18,9 km/h (3 Bft) O 85 ° 0 min 0 W/m² -8,4 °C -16,4 °C 24,1 km/h (4 Bft)
03.02.2026 01:47 22,0 °C -5,7 °C 43 % 81 % 1009,7 hPa 0,0 l/m² 22,7 km/h (4 Bft) O 84 ° 0 min 0 W/m² -8,4 °C -18,4 °C 27,4 km/h (5 Bft)
03.02.2026 01:48 22,0 °C -5,6 °C 43 % 81 % 1009,7 hPa 0,0 l/m² 18,8 km/h (3 Bft) O 87 ° 0 min 0 W/m² -8,3 °C -16,2 °C 25,7 km/h (4 Bft)
03.02.2026 01:49 22,0 °C -5,7 °C 44 % 81 % 1009,5 hPa 0,0 l/m² 14,5 km/h (3 Bft) O 82 ° 0 min 0 W/m² -8,4 °C -13,5 °C 20,9 km/h (4 Bft)
03.02.2026 01:51 22,0 °C -5,6 °C 43 % 81 % 1009,6 hPa 0,0 l/m² 12,8 km/h (3 Bft) O-NO 74 ° 0 min 0 W/m² -8,3 °C -12,1 °C 25,7 km/h (4 Bft)
03.02.2026 01:52 22,0 °C -5,7 °C 43 % 81 % 1009,6 hPa 0,0 l/m² 14,1 km/h (3 Bft) O 86 ° 0 min 0 W/m² -8,4 °C -13,2 °C 17,7 km/h (3 Bft)
03.02.2026 01:53 22,0 °C -5,6 °C 43 % 81 % 1009,6 hPa 0,0 l/m² 16,9 km/h (3 Bft) O-NO 70 ° 0 min 0 W/m² -8,3 °C -15,0 °C 20,9 km/h (4 Bft)
03.02.2026 01:55 22,0 °C -5,6 °C 43 % 81 % 1009,6 hPa 0,0 l/m² 14,1 km/h (3 Bft) O-NO 69 ° 0 min 0 W/m² -8,3 °C -13,1 °C 20,9 km/h (4 Bft)
03.02.2026 01:56 22,0 °C -5,6 °C 43 % 81 % 1009,5 hPa 0,0 l/m² 11,8 km/h (2 Bft) O 90 ° 0 min 0 W/m² -8,3 °C -11,3 °C 17,7 km/h (3 Bft)
03.02.2026 01:57 22,0 °C -5,6 °C 44 % 81 % 1009,6 hPa 0,0 l/m² 12,1 km/h (2 Bft) O-NO 66 ° 0 min 0 W/m² -8,3 °C -11,5 °C 17,7 km/h (3 Bft)
03.02.2026 01:58 22,0 °C -5,6 °C 43 % 81 % 1009,5 hPa 0,0 l/m² 8,9 km/h (2 Bft) O 93 ° 0 min 0 W/m² -8,3 °C -8,5 °C 16,1 km/h (3 Bft)
03.02.2026 01:59 22,0 °C -5,6 °C 43 % 81 % 1009,6 hPa 0,0 l/m² 14,1 km/h (3 Bft) NO 51 ° 0 min 0 W/m² -8,3 °C -13,1 °C 19,3 km/h (3 Bft)
03.02.2026 02:00 22,0 °C -5,6 °C 43 % 81 % 1009,6 hPa 0,0 l/m² 15,8 km/h (3 Bft) O-NO 69 ° 0 min 0 W/m² -8,3 °C -14,3 °C 20,9 km/h (4 Bft)
03.02.2026 02:03 22,0 °C -5,6 °C 43 % 81 % 1009,7 hPa 0,0 l/m² 14,8 km/h (3 Bft) O 85 ° 0 min 0 W/m² -8,3 °C -13,6 °C 24,1 km/h (4 Bft)
03.02.2026 02:04 22,0 °C -5,6 °C 43 % 81 % 1009,7 hPa 0,0 l/m² 14,9 km/h (3 Bft) NO 55 ° 0 min 0 W/m² -8,3 °C -13,7 °C 17,7 km/h (3 Bft)
03.02.2026 02:05 22,0 °C -5,6 °C 43 % 81 % 1009,7 hPa 0,0 l/m² 9,0 km/h (2 Bft) O-NO 77 ° 0 min 0 W/m² -8,3 °C -8,6 °C 14,5 km/h (3 Bft)
03.02.2026 02:06 22,0 °C -5,6 °C 44 % 81 % 1009,7 hPa 0,0 l/m² 14,6 km/h (3 Bft) O 87 ° 0 min 0 W/m² -8,3 °C -13,5 °C 19,3 km/h (3 Bft)
03.02.2026 02:07 22,0 °C -5,6 °C 43 % 81 % 1009,7 hPa 0,0 l/m² 13,0 km/h (3 Bft) O 81 ° 0 min 0 W/m² -8,3 °C -12,3 °C 19,3 km/h (3 Bft)
03.02.2026 02:08 22,0 °C -5,6 °C 43 % 81 % 1009,7 hPa 0,0 l/m² 15,5 km/h (3 Bft) O-NO 57 ° 0 min 0 W/m² -8,3 °C -14,1 °C 22,5 km/h (4 Bft)
03.02.2026 02:09 22,0 °C -5,6 °C 43 % 81 % 1009,7 hPa 0,0 l/m² 14,1 km/h (3 Bft) O-NO 77 ° 0 min 0 W/m² -8,3 °C -13,1 °C 19,3 km/h (3 Bft)
03.02.2026 02:11 22,0 °C -5,5 °C 44 % 81 % 1009,6 hPa 0,0 l/m² 13,3 km/h (3 Bft) O 79 ° 0 min 0 W/m² -8,2 °C -12,4 °C 19,3 km/h (3 Bft)
03.02.2026 02:12 22,0 °C -5,5 °C 43 % 81 % 1009,7 hPa 0,0 l/m² 14,6 km/h (3 Bft) O-NO 75 ° 0 min 0 W/m² -8,2 °C -13,4 °C 22,5 km/h (4 Bft)
03.02.2026 02:13 21,9 °C -5,5 °C 43 % 81 % 1009,6 hPa 0,0 l/m² 15,4 km/h (3 Bft) O-NO 63 ° 0 min 0 W/m² -8,2 °C -13,9 °C 20,9 km/h (4 Bft)
03.02.2026 02:15 21,9 °C -5,5 °C 43 % 81 % 1009,6 hPa 0,0 l/m² 11,3 km/h (2 Bft) O-NO 78 ° 0 min 0 W/m² -8,2 °C -10,7 °C 16,1 km/h (3 Bft)
03.02.2026 02:16 22,0 °C -5,5 °C 43 % 81 % 1009,7 hPa 0,0 l/m² 10,3 km/h (2 Bft) O-NO 62 ° 0 min 0 W/m² -8,2 °C -9,8 °C 14,5 km/h (3 Bft)
03.02.2026 02:17 22,0 °C -5,5 °C 44 % 81 % 1009,7 hPa 0,0 l/m² 12,0 km/h (2 Bft) O 80 ° 0 min 0 W/m² -8,2 °C -11,3 °C 19,3 km/h (3 Bft)
03.02.2026 02:18 22,0 °C -5,5 °C 43 % 81 % 1009,7 hPa 0,0 l/m² 16,2 km/h (3 Bft) O-NO 68 ° 0 min 0 W/m² -8,2 °C -14,5 °C 22,5 km/h (4 Bft)
03.02.2026 02:19 22,0 °C -5,5 °C 44 % 81 % 1009,6 hPa 0,0 l/m² 10,3 km/h (2 Bft) O-NO 64 ° 0 min 0 W/m² -8,2 °C -9,8 °C 16,1 km/h (3 Bft)
03.02.2026 02:21 22,0 °C -5,5 °C 44 % 81 % 1009,6 hPa 0,0 l/m² 16,2 km/h (3 Bft) NO 55 ° 0 min 0 W/m² -8,2 °C -14,5 °C 20,9 km/h (4 Bft)
03.02.2026 02:22 21,9 °C -5,5 °C 43 % 81 % 1009,7 hPa 0,0 l/m² 11,3 km/h (2 Bft) O 89 ° 0 min 0 W/m² -8,2 °C -10,7 °C 14,5 km/h (3 Bft)
03.02.2026 02:23 21,9 °C -5,4 °C 43 % 81 % 1009,7 hPa 0,0 l/m² 15,2 km/h (3 Bft) NO 46 ° 0 min 0 W/m² -8,1 °C -13,7 °C 19,3 km/h (3 Bft)
03.02.2026 02:25 22,0 °C -5,4 °C 44 % 81 % 1009,7 hPa 0,0 l/m² 10,8 km/h (2 Bft) O-NO 63 ° 0 min 0 W/m² -8,1 °C -10,2 °C 17,7 km/h (3 Bft)
03.02.2026 02:26 22,0 °C -5,4 °C 44 % 81 % 1009,6 hPa 0,0 l/m² 12,1 km/h (2 Bft) O 80 ° 0 min 0 W/m² -8,1 °C -11,3 °C 19,3 km/h (3 Bft)
03.02.2026 02:27 21,9 °C -5,4 °C 43 % 81 % 1009,6 hPa 0,0 l/m² 12,7 km/h (3 Bft) O-NO 57 ° 0 min 0 W/m² -8,1 °C -11,8 °C 17,7 km/h (3 Bft)
03.02.2026 02:28 22,0 °C -5,4 °C 43 % 81 % 1009,7 hPa 0,0 l/m² 16,2 km/h (3 Bft) O 82 ° 0 min 0 W/m² -8,1 °C -14,3 °C 22,5 km/h (4 Bft)
03.02.2026 02:29 21,9 °C -5,4 °C 43 % 81 % 1009,6 hPa 0,0 l/m² 15,7 km/h (3 Bft) O-NO 77 ° 0 min 0 W/m² -8,1 °C -14,0 °C 20,9 km/h (4 Bft)
03.02.2026 02:31 21,9 °C -5,4 °C 43 % 81 % 1009,5 hPa 0,0 l/m² 13,5 km/h (3 Bft) O 80 ° 0 min 0 W/m² -8,1 °C -12,4 °C 22,5 km/h (4 Bft)
03.02.2026 02:32 22,0 °C -5,4 °C 43 % 81 % 1009,5 hPa 0,0 l/m² 10,1 km/h (2 Bft) O-NO 67 ° 0 min 0 W/m² -8,1 °C -9,5 °C 14,5 km/h (3 Bft)
03.02.2026 02:33 21,9 °C -5,4 °C 43 % 81 % 1009,6 hPa 0,0 l/m² 7,0 km/h (2 Bft) O 86 ° 0 min 0 W/m² -8,1 °C -6,1 °C 8,0 km/h (2 Bft)
03.02.2026 02:35 22,0 °C -5,4 °C 43 % 81 % 1009,6 hPa 0,0 l/m² 13,3 km/h (3 Bft) O 84 ° 0 min 0 W/m² -8,1 °C -12,3 °C 19,3 km/h (3 Bft)
03.02.2026 02:36 21,9 °C -5,4 °C 43 % 81 % 1009,7 hPa 0,0 l/m² 11,7 km/h (2 Bft) NO 44 ° 0 min 0 W/m² -8,1 °C -11,0 °C 17,7 km/h (3 Bft)
03.02.2026 02:37 21,9 °C -5,4 °C 44 % 81 % 1009,6 hPa 0,0 l/m² 7,2 km/h (2 Bft) NO 48 ° 0 min 0 W/m² -8,1 °C -6,4 °C 14,5 km/h (3 Bft)
03.02.2026 02:38 21,9 °C -5,4 °C 44 % 81 % 1009,7 hPa 0,0 l/m² 13,3 km/h (3 Bft) O 80 ° 0 min 0 W/m² -8,1 °C -12,3 °C 19,3 km/h (3 Bft)
03.02.2026 02:39 21,9 °C -5,4 °C 44 % 81 % 1009,7 hPa 0,0 l/m² 17,2 km/h (3 Bft) O-NO 78 ° 0 min 0 W/m² -8,1 °C -15,0 °C 20,9 km/h (4 Bft)
03.02.2026 02:41 21,9 °C -5,4 °C 43 % 81 % 1009,8 hPa 0,0 l/m² 8,0 km/h (2 Bft) O-NO 77 ° 0 min 0 W/m² -8,1 °C -7,3 °C 16,1 km/h (3 Bft)
03.02.2026 02:43 21,9 °C -5,3 °C 43 % 81 % 1009,7 hPa 0,0 l/m² 12,8 km/h (3 Bft) O 94 ° 0 min 0 W/m² -8,0 °C -11,8 °C 19,3 km/h (3 Bft)
03.02.2026 02:44 22,0 °C -5,3 °C 43 % 81 % 1009,6 hPa 0,0 l/m² 12,2 km/h (2 Bft) O-NO 75 ° 0 min 0 W/m² -8,0 °C -11,3 °C 16,1 km/h (3 Bft)
03.02.2026 02:45 21,9 °C -5,3 °C 44 % 81 % 1009,7 hPa 0,0 l/m² 13,3 km/h (3 Bft) O-NO 66 ° 0 min 0 W/m² -8,0 °C -12,2 °C 17,7 km/h (3 Bft)
03.02.2026 02:46 21,9 °C -5,3 °C 44 % 81 % 1009,6 hPa 0,0 l/m² 10,9 km/h (2 Bft) O-NO 69 ° 0 min 0 W/m² -8,0 °C -10,1 °C 16,1 km/h (3 Bft)
03.02.2026 02:47 21,9 °C -5,3 °C 43 % 81 % 1009,5 hPa 0,0 l/m² 7,4 km/h (2 Bft) O-NO 78 ° 0 min 0 W/m² -8,0 °C -6,5 °C 11,3 km/h (2 Bft)
03.02.2026 02:48 21,9 °C -5,3 °C 43 % 81 % 1009,7 hPa 0,0 l/m² 9,3 km/h (2 Bft) O-NO 77 ° 0 min 0 W/m² -8,0 °C -8,6 °C 12,9 km/h (3 Bft)
03.02.2026 02:49 22,0 °C -5,3 °C 43 % 81 % 1009,6 hPa 0,0 l/m² 6,7 km/h (2 Bft) O 87 ° 0 min 0 W/m² -8,0 °C -5,6 °C 11,3 km/h (2 Bft)
03.02.2026 02:51 22,0 °C -5,3 °C 43 % 81 % 1009,5 hPa 0,0 l/m² 13,1 km/h (3 Bft) O 83 ° 0 min 0 W/m² -8,0 °C -12,0 °C 22,5 km/h (4 Bft)
03.02.2026 02:52 22,0 °C -5,3 °C 43 % 81 % 1009,6 hPa 0,0 l/m² 13,5 km/h (3 Bft) O-NO 67 ° 0 min 0 W/m² -8,0 °C -12,3 °C 17,7 km/h (3 Bft)
03.02.2026 02:53 22,0 °C -5,3 °C 43 % 81 % 1009,5 hPa 0,0 l/m² 14,0 km/h (3 Bft) O-NO 70 ° 0 min 0 W/m² -8,0 °C -12,7 °C 17,7 km/h (3 Bft)
03.02.2026 02:54 22,0 °C -5,3 °C 43 % 81 % 1009,5 hPa 0,0 l/m² 13,5 km/h (3 Bft) O-NO 76 ° 0 min 0 W/m² -8,0 °C -12,3 °C 17,7 km/h (3 Bft)
03.02.2026 02:55 21,9 °C -5,3 °C 43 % 81 % 1009,6 hPa 0,0 l/m² 17,6 km/h (3 Bft) O-NO 75 ° 0 min 0 W/m² -8,0 °C -15,1 °C 19,3 km/h (3 Bft)
03.02.2026 02:56 22,0 °C -5,3 °C 43 % 81 % 1009,5 hPa 0,0 l/m² 14,8 km/h (3 Bft) O 84 ° 0 min 0 W/m² -8,0 °C -13,3 °C 17,7 km/h (3 Bft)
03.02.2026 02:57 22,0 °C -5,3 °C 43 % 81 % 1009,5 hPa 0,0 l/m² 11,7 km/h (2 Bft) O 88 ° 0 min 0 W/m² -8,0 °C -10,9 °C 17,7 km/h (3 Bft)
03.02.2026 02:58 22,0 °C -5,3 °C 43 % 81 % 1009,5 hPa 0,0 l/m² 11,4 km/h (2 Bft) O-NO 70 ° 0 min 0 W/m² -8,0 °C -10,6 °C 19,3 km/h (3 Bft)
03.02.2026 02:59 22,0 °C -5,3 °C 43 % 81 % 1009,5 hPa 0,0 l/m² 16,4 km/h (3 Bft) O-NO 67 ° 0 min 0 W/m² -8,0 °C -14,3 °C 19,3 km/h (3 Bft)
03.02.2026 03:01 22,0 °C -5,3 °C 43 % 81 % 1009,5 hPa 0,0 l/m² 11,6 km/h (2 Bft) NO 53 ° 0 min 0 W/m² -8,0 °C -10,8 °C 17,7 km/h (3 Bft)
03.02.2026 03:03 22,0 °C -5,3 °C 43 % 81 % 1009,5 hPa 0,0 l/m² 12,4 km/h (2 Bft) O 80 ° 0 min 0 W/m² -8,0 °C -11,4 °C 22,5 km/h (4 Bft)
03.02.2026 03:04 22,0 °C -5,2 °C 43 % 81 % 1009,5 hPa 0,0 l/m² 17,0 km/h (3 Bft) O-NO 76 ° 0 min 0 W/m² -7,9 °C -14,6 °C 20,9 km/h (4 Bft)
03.02.2026 03:06 21,9 °C -5,2 °C 43 % 81 % 1009,5 hPa 0,0 l/m² 13,2 km/h (3 Bft) O 92 ° 0 min 0 W/m² -7,9 °C -12,0 °C 20,9 km/h (4 Bft)
03.02.2026 03:07 21,9 °C -5,2 °C 43 % 81 % 1009,4 hPa 0,0 l/m² 11,0 km/h (2 Bft) NO 56 ° 0 min 0 W/m² -7,9 °C -10,1 °C 14,5 km/h (3 Bft)
03.02.2026 03:08 22,0 °C -5,2 °C 43 % 81 % 1009,4 hPa 0,0 l/m² 15,1 km/h (3 Bft) O 95 ° 0 min 0 W/m² -7,9 °C -13,4 °C 19,3 km/h (3 Bft)
03.02.2026 03:09 22,0 °C -5,2 °C 43 % 81 % 1009,3 hPa 0,0 l/m² 14,9 km/h (3 Bft) O 84 ° 0 min 0 W/m² -7,9 °C -13,2 °C 20,9 km/h (4 Bft)
03.02.2026 03:11 22,0 °C -5,2 °C 43 % 81 % 1009,4 hPa 0,0 l/m² 15,0 km/h (3 Bft) O-NO 78 ° 0 min 0 W/m² -7,9 °C -13,3 °C 20,9 km/h (4 Bft)
03.02.2026 03:12 22,0 °C -5,2 °C 43 % 81 % 1009,4 hPa 0,0 l/m² 14,7 km/h (3 Bft) O 80 ° 0 min 0 W/m² -7,9 °C -13,1 °C 20,9 km/h (4 Bft)
03.02.2026 03:13 22,0 °C -5,2 °C 43 % 81 % 1009,4 hPa 0,0 l/m² 14,4 km/h (3 Bft) O-NO 77 ° 0 min 0 W/m² -7,9 °C -12,9 °C 22,5 km/h (4 Bft)
03.02.2026 03:14 22,0 °C -5,2 °C 43 % 81 % 1009,4 hPa 0,0 l/m² 10,0 km/h (2 Bft) O-NO 59 ° 0 min 0 W/m² -7,9 °C -9,2 °C 17,7 km/h (3 Bft)
03.02.2026 03:15 22,0 °C -5,2 °C 43 % 81 % 1009,3 hPa 0,0 l/m² 15,1 km/h (3 Bft) NO 55 ° 0 min 0 W/m² -7,9 °C -13,4 °C 20,9 km/h (4 Bft)
03.02.2026 03:16 22,0 °C -5,2 °C 43 % 81 % 1009,3 hPa 0,0 l/m² 10,8 km/h (2 Bft) O-NO 74 ° 0 min 0 W/m² -7,9 °C -9,9 °C 16,1 km/h (3 Bft)
03.02.2026 03:17 22,0 °C -5,2 °C 43 % 81 % 1009,3 hPa 0,0 l/m² 13,8 km/h (3 Bft) NO 53 ° 0 min 0 W/m² -7,9 °C -12,4 °C 20,9 km/h (4 Bft)
03.02.2026 03:18 22,0 °C -5,2 °C 43 % 81 % 1009,3 hPa 0,0 l/m² 14,5 km/h (3 Bft) O 85 ° 0 min 0 W/m² -7,9 °C -12,9 °C 19,3 km/h (3 Bft)
03.02.2026 03:19 22,0 °C -5,2 °C 43 % 81 % 1009,3 hPa 0,0 l/m² 15,2 km/h (3 Bft) NO 38 ° 0 min 0 W/m² -7,9 °C -13,4 °C 20,9 km/h (4 Bft)
03.02.2026 03:21 22,0 °C -5,1 °C 43 % 81 % 1009,2 hPa 0,0 l/m² 14,7 km/h (3 Bft) O-NO 67 ° 0 min 0 W/m² -7,8 °C -12,9 °C 22,5 km/h (4 Bft)
03.02.2026 03:23 22,0 °C -5,1 °C 43 % 80 % 1009,1 hPa 0,0 l/m² 9,3 km/h (2 Bft) O 88 ° 0 min 0 W/m² -8,0 °C -8,4 °C 17,7 km/h (3 Bft)
03.02.2026 03:24 22,0 °C -5,1 °C 43 % 80 % 1009,2 hPa 0,0 l/m² 12,8 km/h (3 Bft) O 84 ° 0 min 0 W/m² -8,0 °C -11,5 °C 19,3 km/h (3 Bft)
03.02.2026 03:25 22,0 °C -5,1 °C 43 % 80 % 1009,2 hPa 0,0 l/m² 14,7 km/h (3 Bft) O 96 ° 0 min 0 W/m² -8,0 °C -12,9 °C 19,3 km/h (3 Bft)
03.02.2026 03:26 22,0 °C -5,1 °C 43 % 80 % 1009,2 hPa 0,0 l/m² 17,5 km/h (3 Bft) O-NO 60 ° 0 min 0 W/m² -8,0 °C -14,8 °C 22,5 km/h (4 Bft)
03.02.2026 03:27 22,0 °C -5,1 °C 43 % 80 % 1009,2 hPa 0,0 l/m² 15,0 km/h (3 Bft) O 80 ° 0 min 0 W/m² -8,0 °C -13,2 °C 19,3 km/h (3 Bft)
03.02.2026 03:28 22,0 °C -5,1 °C 43 % 80 % 1009,2 hPa 0,0 l/m² 8,1 km/h (2 Bft) O-NO 67 ° 0 min 0 W/m² -8,0 °C -7,1 °C 12,9 km/h (3 Bft)
03.02.2026 03:29 22,0 °C -5,1 °C 43 % 80 % 1009,1 hPa 0,0 l/m² 14,1 km/h (3 Bft) O-NO 61 ° 0 min 0 W/m² -8,0 °C -12,5 °C 20,9 km/h (4 Bft)
03.02.2026 03:31 22,0 °C -5,1 °C 43 % 80 % 1009,2 hPa 0,0 l/m² 13,1 km/h (3 Bft) O 86 ° 0 min 0 W/m² -8,0 °C -11,8 °C 19,3 km/h (3 Bft)
03.02.2026 03:32 22,0 °C -5,1 °C 43 % 80 % 1009,1 hPa 0,0 l/m² 14,1 km/h (3 Bft) O 86 ° 0 min 0 W/m² -8,0 °C -12,5 °C 20,9 km/h (4 Bft)
03.02.2026 03:33 22,0 °C -5,1 °C 43 % 80 % 1009,0 hPa 0,0 l/m² 11,0 km/h (2 Bft) O-NO 61 ° 0 min 0 W/m² -8,0 °C -10,0 °C 16,1 km/h (3 Bft)
03.02.2026 03:34 22,0 °C -5,0 °C 43 % 80 % 1009,1 hPa 0,0 l/m² 12,0 km/h (2 Bft) O 91 ° 0 min 0 W/m² -7,9 °C -10,8 °C 14,5 km/h (3 Bft)
03.02.2026 03:35 22,0 °C -5,0 °C 43 % 80 % 1009,1 hPa 0,0 l/m² 11,2 km/h (2 Bft) NO 46 ° 0 min 0 W/m² -7,9 °C -10,1 °C 20,9 km/h (4 Bft)
03.02.2026 03:36 22,0 °C -5,0 °C 43 % 80 % 1009,1 hPa 0,0 l/m² 15,9 km/h (3 Bft) O 79 ° 0 min 0 W/m² -7,9 °C -13,6 °C 24,1 km/h (4 Bft)
03.02.2026 03:37 22,0 °C -5,0 °C 43 % 80 % 1009,1 hPa 0,0 l/m² 16,6 km/h (3 Bft) NO 56 ° 0 min 0 W/m² -7,9 °C -14,1 °C 20,9 km/h (4 Bft)
03.02.2026 03:38 22,0 °C -5,0 °C 43 % 80 % 1009,1 hPa 0,0 l/m² 17,0 km/h (3 Bft) O-NO 68 ° 0 min 0 W/m² -7,9 °C -14,4 °C 22,5 km/h (4 Bft)
03.02.2026 03:39 22,0 °C -4,9 °C 43 % 80 % 1009,1 hPa 0,0 l/m² 15,5 km/h (3 Bft) O-NO 78 ° 0 min 0 W/m² -7,8 °C -13,3 °C 20,9 km/h (4 Bft)
03.02.2026 03:41 22,0 °C -5,0 °C 43 % 80 % 1008,9 hPa 0,0 l/m² 14,8 km/h (3 Bft) O-NO 58 ° 0 min 0 W/m² -7,9 °C -12,9 °C 20,9 km/h (4 Bft)
03.02.2026 03:43 22,0 °C -4,9 °C 43 % 80 % 1009,0 hPa 0,0 l/m² 12,2 km/h (2 Bft) O 80 ° 0 min 0 W/m² -7,8 °C -10,8 °C 20,9 km/h (4 Bft)
03.02.2026 03:44 22,1 °C -4,9 °C 43 % 80 % 1008,8 hPa 0,0 l/m² 8,4 km/h (2 Bft) NO 53 ° 0 min 0 W/m² -7,8 °C -7,2 °C 14,5 km/h (3 Bft)
03.02.2026 03:46 22,0 °C -4,9 °C 43 % 80 % 1008,9 hPa 0,0 l/m² 13,0 km/h (3 Bft) O-NO 69 ° 0 min 0 W/m² -7,8 °C -11,4 °C 20,9 km/h (4 Bft)
03.02.2026 03:47 22,0 °C -4,9 °C 43 % 80 % 1008,8 hPa 0,0 l/m² 14,2 km/h (3 Bft) O 82 ° 0 min 0 W/m² -7,8 °C -12,4 °C 19,3 km/h (3 Bft)
03.02.2026 03:48 22,0 °C -4,9 °C 43 % 80 % 1008,8 hPa 0,0 l/m² 11,6 km/h (2 Bft) O-NO 76 ° 0 min 0 W/m² -7,8 °C -10,3 °C 16,1 km/h (3 Bft)
03.02.2026 03:49 22,0 °C -4,9 °C 43 % 80 % 1008,8 hPa 0,0 l/m² 9,3 km/h (2 Bft) O 90 ° 0 min 0 W/m² -7,8 °C -8,2 °C 12,9 km/h (3 Bft)
03.02.2026 03:51 22,0 °C -4,9 °C 43 % 80 % 1008,8 hPa 0,0 l/m² 13,8 km/h (3 Bft) O 86 ° 0 min 0 W/m² -7,8 °C -12,1 °C 24,1 km/h (4 Bft)
03.02.2026 03:53 22,0 °C -4,9 °C 43 % 80 % 1008,7 hPa 0,0 l/m² 13,3 km/h (3 Bft) O-NO 61 ° 0 min 0 W/m² -7,8 °C -11,7 °C 20,9 km/h (4 Bft)
03.02.2026 03:54 22,0 °C -4,9 °C 43 % 80 % 1008,8 hPa 0,0 l/m² 8,2 km/h (2 Bft) O-NO 62 ° 0 min 0 W/m² -7,8 °C -7,0 °C 14,5 km/h (3 Bft)
03.02.2026 03:55 22,0 °C -4,9 °C 43 % 80 % 1008,8 hPa 0,0 l/m² 12,7 km/h (3 Bft) O-NO 76 ° 0 min 0 W/m² -7,8 °C -11,2 °C 19,3 km/h (3 Bft)
03.02.2026 03:56 22,0 °C -4,9 °C 43 % 80 % 1008,9 hPa 0,0 l/m² 16,3 km/h (3 Bft) O-NO 66 ° 0 min 0 W/m² -7,8 °C -13,8 °C 22,5 km/h (4 Bft)
03.02.2026 03:57 22,0 °C -4,9 °C 43 % 80 % 1008,8 hPa 0,0 l/m² 13,9 km/h (3 Bft) O 79 ° 0 min 0 W/m² -7,8 °C -12,1 °C 22,5 km/h (4 Bft)
03.02.2026 03:58 22,0 °C -4,9 °C 43 % 80 % 1008,9 hPa 0,0 l/m² 12,6 km/h (3 Bft) O-NO 76 ° 0 min 0 W/m² -7,8 °C -11,1 °C 19,3 km/h (3 Bft)
03.02.2026 03:59 22,0 °C -4,9 °C 43 % 80 % 1008,9 hPa 0,0 l/m² 10,7 km/h (2 Bft) O-NO 74 ° 0 min 0 W/m² -7,8 °C -9,5 °C 19,3 km/h (3 Bft)
03.02.2026 04:01 22,0 °C -4,8 °C 43 % 80 % 1008,9 hPa 0,0 l/m² 13,4 km/h (3 Bft) O-NO 74 ° 0 min 0 W/m² -7,7 °C -11,6 °C 22,5 km/h (4 Bft)
03.02.2026 04:03 22,1 °C -4,8 °C 43 % 80 % 1009,0 hPa 0,0 l/m² 11,0 km/h (2 Bft) O-NO 63 ° 0 min 0 W/m² -7,7 °C -9,7 °C 17,7 km/h (3 Bft)
03.02.2026 04:04 22,0 °C -4,9 °C 43 % 80 % 1009,0 hPa 0,0 l/m² 13,6 km/h (3 Bft) O-NO 76 ° 0 min 0 W/m² -7,8 °C -11,9 °C 17,7 km/h (3 Bft)
03.02.2026 04:05 22,0 °C -4,8 °C 43 % 80 % 1009,0 hPa 0,0 l/m² 8,8 km/h (2 Bft) O 87 ° 0 min 0 W/m² -7,7 °C -7,6 °C 14,5 km/h (3 Bft)
03.02.2026 04:06 22,1 °C -4,8 °C 43 % 80 % 1009,0 hPa 0,0 l/m² 12,3 km/h (2 Bft) NO 55 ° 0 min 0 W/m² -7,7 °C -10,8 °C 16,1 km/h (3 Bft)
03.02.2026 04:07 22,0 °C -4,8 °C 43 % 80 % 1009,0 hPa 0,0 l/m² 16,7 km/h (3 Bft) O-NO 70 ° 0 min 0 W/m² -7,7 °C -13,9 °C 22,5 km/h (4 Bft)
03.02.2026 04:08 22,1 °C -4,8 °C 43 % 80 % 1009,0 hPa 0,0 l/m² 15,3 km/h (3 Bft) O-NO 71 ° 0 min 0 W/m² -7,7 °C -13,0 °C 17,7 km/h (3 Bft)
03.02.2026 04:09 22,0 °C -4,8 °C 43 % 80 % 1008,9 hPa 0,0 l/m² 11,1 km/h (2 Bft) O-NO 78 ° 0 min 0 W/m² -7,7 °C -9,8 °C 14,5 km/h (3 Bft)
03.02.2026 04:11 22,0 °C -4,8 °C 43 % 80 % 1009,0 hPa 0,0 l/m² 9,6 km/h (2 Bft) O-NO 60 ° 0 min 0 W/m² -7,7 °C -8,4 °C 16,1 km/h (3 Bft)
03.02.2026 04:13 22,0 °C -4,8 °C 43 % 80 % 1009,0 hPa 0,0 l/m² 11,7 km/h (2 Bft) O 90 ° 0 min 0 W/m² -7,7 °C -10,3 °C 19,3 km/h (3 Bft)
03.02.2026 04:14 22,0 °C -4,8 °C 43 % 80 % 1009,0 hPa 0,0 l/m² 16,4 km/h (3 Bft) O-NO 78 ° 0 min 0 W/m² -7,7 °C -13,7 °C 19,3 km/h (3 Bft)
03.02.2026 04:15 22,0 °C -4,8 °C 43 % 80 % 1009,1 hPa 0,0 l/m² 11,3 km/h (2 Bft) O 93 ° 0 min 0 W/m² -7,7 °C -9,9 °C 16,1 km/h (3 Bft)
03.02.2026 04:16 22,0 °C -4,8 °C 43 % 80 % 1009,0 hPa 0,0 l/m² 13,8 km/h (3 Bft) O-NO 64 ° 0 min 0 W/m² -7,7 °C -11,9 °C 19,3 km/h (3 Bft)
03.02.2026 04:17 22,0 °C -4,8 °C 43 % 80 % 1009,0 hPa 0,0 l/m² 14,7 km/h (3 Bft) O-NO 75 ° 0 min 0 W/m² -7,7 °C -12,6 °C 20,9 km/h (4 Bft)
03.02.2026 04:18 22,0 °C -4,8 °C 43 % 80 % 1009,0 hPa 0,0 l/m² 9,9 km/h (2 Bft) O-NO 69 ° 0 min 0 W/m² -7,7 °C -8,7 °C 14,5 km/h (3 Bft)
03.02.2026 04:19 22,0 °C -4,8 °C 43 % 80 % 1008,9 hPa 0,0 l/m² 11,4 km/h (2 Bft) O 90 ° 0 min 0 W/m² -7,7 °C -10,0 °C 17,7 km/h (3 Bft)
03.02.2026 04:21 22,0 °C -4,8 °C 43 % 80 % 1009,0 hPa 0,0 l/m² 13,1 km/h (3 Bft) O-NO 70 ° 0 min 0 W/m² -7,7 °C -11,4 °C 22,5 km/h (4 Bft)
03.02.2026 04:23 22,0 °C -4,8 °C 43 % 80 % 1009,1 hPa 0,0 l/m² 9,1 km/h (2 Bft) O-NO 61 ° 0 min 0 W/m² -7,7 °C -7,9 °C 14,5 km/h (3 Bft)
03.02.2026 04:24 22,0 °C -4,8 °C 43 % 80 % 1009,0 hPa 0,0 l/m² 6,6 km/h (2 Bft) O 95 ° 0 min 0 W/m² -7,7 °C -5,0 °C 11,3 km/h (2 Bft)
03.02.2026 04:25 22,0 °C -4,7 °C 43 % 80 % 1009,1 hPa 0,0 l/m² 6,4 km/h (2 Bft) O 90 ° 0 min 0 W/m² -7,6 °C -4,6 °C 9,7 km/h (2 Bft)
03.02.2026 04:26 22,0 °C -4,7 °C 43 % 80 % 1009,1 hPa 0,0 l/m² 13,9 km/h (3 Bft) O-NO 74 ° 0 min 0 W/m² -7,6 °C -11,9 °C 22,5 km/h (4 Bft)
03.02.2026 04:27 22,0 °C -4,7 °C 43 % 80 % 1009,0 hPa 0,0 l/m² 17,9 km/h (3 Bft) O-NO 76 ° 0 min 0 W/m² -7,6 °C -14,5 °C 20,9 km/h (4 Bft)
03.02.2026 04:28 22,0 °C -4,7 °C 43 % 80 % 1009,0 hPa 0,0 l/m² 13,0 km/h (3 Bft) O-NO 74 ° 0 min 0 W/m² -7,6 °C -11,2 °C 17,7 km/h (3 Bft)
03.02.2026 04:29 22,0 °C -4,7 °C 43 % 80 % 1008,9 hPa 0,0 l/m² 11,9 km/h (2 Bft) O-NO 58 ° 0 min 0 W/m² -7,6 °C -10,3 °C 17,7 km/h (3 Bft)
03.02.2026 04:31 22,0 °C -4,7 °C 43 % 80 % 1008,9 hPa 0,0 l/m² 11,2 km/h (2 Bft) O-NO 71 ° 0 min 0 W/m² -7,6 °C -9,7 °C 19,3 km/h (3 Bft)
03.02.2026 04:33 22,0 °C -4,7 °C 43 % 80 % 1009,0 hPa 0,0 l/m² 13,7 km/h (3 Bft) O 88 ° 0 min 0 W/m² -7,6 °C -11,7 °C 19,3 km/h (3 Bft)
03.02.2026 04:34 22,0 °C -4,7 °C 43 % 80 % 1009,0 hPa 0,0 l/m² 8,4 km/h (2 Bft) O-NO 62 ° 0 min 0 W/m² -7,6 °C -7,0 °C 16,1 km/h (3 Bft)
03.02.2026 04:35 22,0 °C -4,7 °C 43 % 80 % 1008,9 hPa 0,0 l/m² 10,4 km/h (2 Bft) O-NO 70 ° 0 min 0 W/m² -7,6 °C -9,0 °C 12,9 km/h (3 Bft)
03.02.2026 04:36 22,0 °C -4,7 °C 43 % 80 % 1009,0 hPa 0,0 l/m² 10,2 km/h (2 Bft) O-NO 67 ° 0 min 0 W/m² -7,6 °C -8,8 °C 12,9 km/h (3 Bft)
03.02.2026 04:37 22,0 °C -4,7 °C 43 % 80 % 1008,9 hPa 0,0 l/m² 13,0 km/h (3 Bft) O-NO 65 ° 0 min 0 W/m² -7,6 °C -11,2 °C 16,1 km/h (3 Bft)
03.02.2026 04:38 22,0 °C -4,7 °C 43 % 80 % 1008,9 hPa 0,0 l/m² 10,1 km/h (2 Bft) O-NO 57 ° 0 min 0 W/m² -7,6 °C -8,7 °C 12,9 km/h (3 Bft)
03.02.2026 04:39 22,0 °C -4,7 °C 43 % 80 % 1008,9 hPa 0,0 l/m² 13,6 km/h (3 Bft) O 79 ° 0 min 0 W/m² -7,6 °C -11,7 °C 17,7 km/h (3 Bft)
03.02.2026 04:41 22,0 °C -4,7 °C 43 % 80 % 1008,9 hPa 0,0 l/m² 11,0 km/h (2 Bft) O-NO 71 ° 0 min 0 W/m² -7,6 °C -9,6 °C 16,1 km/h (3 Bft)
03.02.2026 04:43 22,0 °C -4,7 °C 43 % 80 % 1008,9 hPa 0,0 l/m² 8,7 km/h (2 Bft) O-NO 63 ° 0 min 0 W/m² -7,6 °C -7,3 °C 17,7 km/h (3 Bft)
03.02.2026 04:44 22,0 °C -4,7 °C 43 % 80 % 1008,9 hPa 0,0 l/m² 11,5 km/h (2 Bft) O-NO 78 ° 0 min 0 W/m² -7,6 °C -10,0 °C 19,3 km/h (3 Bft)
03.02.2026 04:45 22,0 °C -4,7 °C 43 % 80 % 1008,9 hPa 0,0 l/m² 16,3 km/h (3 Bft) O-NO 75 ° 0 min 0 W/m² -7,6 °C -13,5 °C 19,3 km/h (3 Bft)
03.02.2026 04:46 22,0 °C -4,7 °C 43 % 80 % 1008,8 hPa 0,0 l/m² 11,9 km/h (2 Bft) O 84 ° 0 min 0 W/m² -7,6 °C -10,3 °C 17,7 km/h (3 Bft)
03.02.2026 04:47 22,0 °C -4,7 °C 43 % 80 % 1008,8 hPa 0,0 l/m² 10,1 km/h (2 Bft) O 81 ° 0 min 0 W/m² -7,6 °C -8,7 °C 19,3 km/h (3 Bft)
03.02.2026 04:48 22,0 °C -4,7 °C 43 % 80 % 1008,8 hPa 0,0 l/m² 13,1 km/h (3 Bft) O-NO 67 ° 0 min 0 W/m² -7,6 °C -11,3 °C 20,9 km/h (4 Bft)
03.02.2026 04:49 22,0 °C -4,7 °C 43 % 80 % 1008,8 hPa 0,0 l/m² 13,3 km/h (3 Bft) O 83 ° 0 min 0 W/m² -7,6 °C -11,4 °C 16,1 km/h (3 Bft)
03.02.2026 04:51 22,0 °C -4,7 °C 43 % 80 % 1008,8 hPa 0,0 l/m² 10,7 km/h (2 Bft) O 90 ° 0 min 0 W/m² -7,6 °C -9,3 °C 17,7 km/h (3 Bft)
03.02.2026 04:53 21,9 °C -4,7 °C 43 % 80 % 1008,8 hPa 0,0 l/m² 11,2 km/h (2 Bft) O-NO 74 ° 0 min 0 W/m² -7,6 °C -9,7 °C 17,7 km/h (3 Bft)
03.02.2026 04:54 22,0 °C -4,7 °C 43 % 80 % 1008,8 hPa 0,0 l/m² 10,2 km/h (2 Bft) NO 41 ° 0 min 0 W/m² -7,6 °C -8,8 °C 12,9 km/h (3 Bft)
03.02.2026 04:55 22,0 °C -4,7 °C 43 % 80 % 1008,8 hPa 0,0 l/m² 11,9 km/h (2 Bft) O 98 ° 0 min 0 W/m² -7,6 °C -10,3 °C 16,1 km/h (3 Bft)
03.02.2026 04:56 21,9 °C -4,7 °C 43 % 80 % 1008,8 hPa 0,0 l/m² 7,0 km/h (2 Bft) O-NO 65 ° 0 min 0 W/m² -7,6 °C -5,4 °C 11,3 km/h (2 Bft)
03.02.2026 04:57 22,0 °C -4,7 °C 43 % 80 % 1008,9 hPa 0,0 l/m² 10,9 km/h (2 Bft) O-NO 70 ° 0 min 0 W/m² -7,6 °C -9,5 °C 19,3 km/h (3 Bft)
03.02.2026 04:58 22,0 °C -4,7 °C 43 % 80 % 1008,8 hPa 0,0 l/m² 14,3 km/h (3 Bft) NO 46 ° 0 min 0 W/m² -7,6 °C -12,2 °C 17,7 km/h (3 Bft)
03.02.2026 04:59 21,9 °C -4,7 °C 43 % 80 % 1008,8 hPa 0,0 l/m² 15,3 km/h (3 Bft) O-NO 78 ° 0 min 0 W/m² -7,6 °C -12,9 °C 17,7 km/h (3 Bft)
03.02.2026 05:01 22,0 °C -4,7 °C 43 % 80 % 1008,8 hPa 0,0 l/m² 10,4 km/h (2 Bft) O-NO 76 ° 0 min 0 W/m² -7,6 °C -9,0 °C 17,7 km/h (3 Bft)
03.02.2026 05:03 22,0 °C -4,7 °C 43 % 80 % 1008,8 hPa 0,0 l/m² 8,8 km/h (2 Bft) O 86 ° 0 min 0 W/m² -7,6 °C -7,4 °C 12,9 km/h (3 Bft)
03.02.2026 05:04 21,9 °C -4,7 °C 43 % 80 % 1008,8 hPa 0,0 l/m² 9,6 km/h (2 Bft) NO 54 ° 0 min 0 W/m² -7,6 °C -8,3 °C 17,7 km/h (3 Bft)
03.02.2026 05:06 21,9 °C -4,7 °C 43 % 80 % 1008,8 hPa 0,0 l/m² 13,2 km/h (3 Bft) NO 54 ° 0 min 0 W/m² -7,6 °C -11,4 °C 24,1 km/h (4 Bft)
03.02.2026 05:07 22,0 °C -4,7 °C 43 % 80 % 1008,9 hPa 0,0 l/m² 17,0 km/h (3 Bft) O-NO 67 ° 0 min 0 W/m² -7,6 °C -14,0 °C 25,7 km/h (4 Bft)
03.02.2026 05:08 21,9 °C -4,7 °C 43 % 79 % 1008,8 hPa 0,0 l/m² 13,5 km/h (3 Bft) O-NO 62 ° 0 min 0 W/m² -7,8 °C -11,6 °C 17,7 km/h (3 Bft)
03.02.2026 05:09 21,9 °C -4,7 °C 43 % 79 % 1008,9 hPa 0,0 l/m² 8,8 km/h (2 Bft) O-NO 63 ° 0 min 0 W/m² -7,8 °C -7,4 °C 14,5 km/h (3 Bft)
03.02.2026 05:11 21,9 °C -4,8 °C 43 % 79 % 1008,8 hPa 0,0 l/m² 13,5 km/h (3 Bft) O-NO 57 ° 0 min 0 W/m² -7,9 °C -11,7 °C 17,7 km/h (3 Bft)
03.02.2026 05:13 22,0 °C -4,7 °C 43 % 79 % 1008,8 hPa 0,0 l/m² 16,1 km/h (3 Bft) O-NO 57 ° 0 min 0 W/m² -7,8 °C -13,4 °C 22,5 km/h (4 Bft)
03.02.2026 05:14 22,0 °C -4,7 °C 43 % 79 % 1008,7 hPa 0,0 l/m² 11,3 km/h (2 Bft) O 80 ° 0 min 0 W/m² -7,8 °C -9,8 °C 16,1 km/h (3 Bft)
03.02.2026 05:15 21,9 °C -4,8 °C 43 % 79 % 1008,7 hPa 0,0 l/m² 14,6 km/h (3 Bft) O-NO 76 ° 0 min 0 W/m² -7,9 °C -12,5 °C 17,7 km/h (3 Bft)
03.02.2026 05:16 21,9 °C -4,8 °C 43 % 79 % 1008,8 hPa 0,0 l/m² 16,3 km/h (3 Bft) O-NO 68 ° 0 min 0 W/m² -7,9 °C -13,7 °C 22,5 km/h (4 Bft)
03.02.2026 05:17 21,9 °C -4,8 °C 43 % 79 % 1008,8 hPa 0,0 l/m² 15,0 km/h (3 Bft) O-NO 62 ° 0 min 0 W/m² -7,9 °C -12,8 °C 20,9 km/h (4 Bft)
03.02.2026 05:18 21,9 °C -4,8 °C 43 % 79 % 1008,7 hPa 0,0 l/m² 14,1 km/h (3 Bft) NO 48 ° 0 min 0 W/m² -7,9 °C -12,2 °C 17,7 km/h (3 Bft)
03.02.2026 05:19 22,0 °C -4,8 °C 43 % 79 % 1008,7 hPa 0,0 l/m² 15,4 km/h (3 Bft) O 88 ° 0 min 0 W/m² -7,9 °C -13,1 °C 20,9 km/h (4 Bft)
03.02.2026 05:21 21,9 °C -4,8 °C 43 % 79 % 1008,8 hPa 0,0 l/m² 14,4 km/h (3 Bft) NO 55 ° 0 min 0 W/m² -7,9 °C -12,4 °C 20,9 km/h (4 Bft)
03.02.2026 05:23 21,9 °C -4,8 °C 43 % 79 % 1008,6 hPa 0,0 l/m² 13,4 km/h (3 Bft) O-NO 67 ° 0 min 0 W/m² -7,9 °C -11,6 °C 20,9 km/h (4 Bft)
03.02.2026 05:24 21,9 °C -4,8 °C 43 % 79 % 1008,7 hPa 0,0 l/m² 12,6 km/h (3 Bft) O 88 ° 0 min 0 W/m² -7,9 °C -11,0 °C 17,7 km/h (3 Bft)
03.02.2026 05:25 21,9 °C -4,8 °C 43 % 79 % 1008,7 hPa 0,0 l/m² 14,7 km/h (3 Bft) O 89 ° 0 min 0 W/m² -7,9 °C -12,6 °C 20,9 km/h (4 Bft)
03.02.2026 05:26 21,9 °C -4,8 °C 43 % 79 % 1008,7 hPa 0,0 l/m² 18,2 km/h (3 Bft) NO 51 ° 0 min 0 W/m² -7,9 °C -14,8 °C 20,9 km/h (4 Bft)
03.02.2026 05:27 21,9 °C -4,8 °C 43 % 79 % 1008,6 hPa 0,0 l/m² 15,1 km/h (3 Bft) O-NO 64 ° 0 min 0 W/m² -7,9 °C -12,9 °C 20,9 km/h (4 Bft)
03.02.2026 05:28 21,9 °C -4,8 °C 43 % 79 % 1008,7 hPa 0,0 l/m² 18,6 km/h (3 Bft) O-NO 65 ° 0 min 0 W/m² -7,9 °C -15,1 °C 24,1 km/h (4 Bft)
03.02.2026 05:29 21,9 °C -4,8 °C 43 % 79 % 1008,6 hPa 0,0 l/m² 16,9 km/h (3 Bft) O-NO 59 ° 0 min 0 W/m² -7,9 °C -14,0 °C 20,9 km/h (4 Bft)
03.02.2026 05:31 21,9 °C -4,8 °C 43 % 79 % 1008,6 hPa 0,0 l/m² 15,1 km/h (3 Bft) O 79 ° 0 min 0 W/m² -7,9 °C -12,9 °C 25,7 km/h (4 Bft)
03.02.2026 05:33 21,9 °C -4,8 °C 43 % 78 % 1008,6 hPa 0,0 l/m² 13,7 km/h (3 Bft) N-NO 32 ° 0 min 0 W/m² -8,0 °C -11,9 °C 24,1 km/h (4 Bft)
03.02.2026 05:34 21,9 °C -4,8 °C 43 % 78 % 1008,6 hPa 0,0 l/m² 11,8 km/h (2 Bft) NO 56 ° 0 min 0 W/m² -8,0 °C -10,4 °C 32,2 km/h (5 Bft)
03.02.2026 05:35 21,9 °C -4,9 °C 43 % 78 % 1008,6 hPa 0,0 l/m² 19,4 km/h (3 Bft) O-NO 76 ° 0 min 0 W/m² -8,1 °C -15,6 °C 32,2 km/h (5 Bft)
03.02.2026 05:36 21,9 °C -4,9 °C 43 % 78 % 1008,6 hPa 0,0 l/m² 17,7 km/h (3 Bft) O 81 ° 0 min 0 W/m² -8,1 °C -14,7 °C 25,7 km/h (4 Bft)
03.02.2026 05:37 21,9 °C -4,8 °C 43 % 78 % 1008,7 hPa 0,0 l/m² 13,0 km/h (3 Bft) O 80 ° 0 min 0 W/m² -8,0 °C -11,3 °C 16,1 km/h (3 Bft)
03.02.2026 05:38 21,9 °C -4,8 °C 43 % 78 % 1008,6 hPa 0,0 l/m² 10,8 km/h (2 Bft) O 93 ° 0 min 0 W/m² -8,0 °C -9,5 °C 16,1 km/h (3 Bft)
03.02.2026 05:39 21,9 °C -4,9 °C 43 % 78 % 1008,6 hPa 0,0 l/m² 17,1 km/h (3 Bft) O-NO 67 ° 0 min 0 W/m² -8,1 °C -14,3 °C 24,1 km/h (4 Bft)
03.02.2026 05:41 21,9 °C -4,9 °C 43 % 78 % 1008,7 hPa 0,0 l/m² 16,9 km/h (3 Bft) O-NO 63 ° 0 min 0 W/m² -8,1 °C -14,2 °C 22,5 km/h (4 Bft)
03.02.2026 05:43 21,9 °C -4,9 °C 43 % 78 % 1008,6 hPa 0,0 l/m² 14,5 km/h (3 Bft) O-NO 67 ° 0 min 0 W/m² -8,1 °C -12,6 °C 20,9 km/h (4 Bft)
03.02.2026 05:44 21,9 °C -4,9 °C 43 % 78 % 1008,6 hPa 0,0 l/m² 13,6 km/h (3 Bft) O 92 ° 0 min 0 W/m² -8,1 °C -11,9 °C 17,7 km/h (3 Bft)
03.02.2026 05:45 21,9 °C -4,9 °C 43 % 78 % 1008,7 hPa 0,0 l/m² 14,1 km/h (3 Bft) O-NO 58 ° 0 min 0 W/m² -8,1 °C -12,3 °C 24,1 km/h (4 Bft)
03.02.2026 05:46 21,9 °C -4,9 °C 43 % 78 % 1008,7 hPa 0,0 l/m² 15,6 km/h (3 Bft) O-NO 78 ° 0 min 0 W/m² -8,1 °C -13,3 °C 22,5 km/h (4 Bft)
03.02.2026 05:47 21,9 °C -4,9 °C 43 % 78 % 1008,7 hPa 0,0 l/m² 12,2 km/h (2 Bft) O-NO 72 ° 0 min 0 W/m² -8,1 °C -10,8 °C 17,7 km/h (3 Bft)
03.02.2026 05:48 21,9 °C -4,9 °C 43 % 78 % 1008,6 hPa 0,0 l/m² 11,9 km/h (2 Bft) O 80 ° 0 min 0 W/m² -8,1 °C -10,6 °C 17,7 km/h (3 Bft)
03.02.2026 05:49 21,9 °C -4,9 °C 43 % 78 % 1008,6 hPa 0,0 l/m² 16,9 km/h (3 Bft) O-NO 68 ° 0 min 0 W/m² -8,1 °C -14,2 °C 24,1 km/h (4 Bft)
03.02.2026 05:51 21,9 °C -4,9 °C 43 % 78 % 1008,7 hPa 0,0 l/m² 13,8 km/h (3 Bft) O-NO 78 ° 0 min 0 W/m² -8,1 °C -12,1 °C 19,3 km/h (3 Bft)
03.02.2026 05:53 21,9 °C -4,9 °C 43 % 78 % 1008,6 hPa 0,0 l/m² 13,1 km/h (3 Bft) O-NO 57 ° 0 min 0 W/m² -8,1 °C -11,5 °C 24,1 km/h (4 Bft)
03.02.2026 05:54 21,9 °C -4,9 °C 43 % 78 % 1008,5 hPa 0,0 l/m² 19,1 km/h (3 Bft) O 82 ° 0 min 0 W/m² -8,1 °C -15,5 °C 20,9 km/h (4 Bft)
03.02.2026 05:55 21,9 °C -4,9 °C 43 % 78 % 1008,5 hPa 0,0 l/m² 14,1 km/h (3 Bft) NO 44 ° 0 min 0 W/m² -8,1 °C -12,3 °C 19,3 km/h (3 Bft)
03.02.2026 05:56 21,9 °C -4,9 °C 43 % 78 % 1008,5 hPa 0,0 l/m² 18,0 km/h (3 Bft) O-NO 66 ° 0 min 0 W/m² -8,1 °C -14,8 °C 22,5 km/h (4 Bft)
03.02.2026 05:57 21,9 °C -4,9 °C 43 % 78 % 1008,5 hPa 0,0 l/m² 14,9 km/h (3 Bft) O 84 ° 0 min 0 W/m² -8,1 °C -12,8 °C 20,9 km/h (4 Bft)
03.02.2026 05:58 21,9 °C -4,9 °C 43 % 78 % 1008,6 hPa 0,0 l/m² 16,8 km/h (3 Bft) O-NO 76 ° 0 min 0 W/m² -8,1 °C -14,1 °C 22,5 km/h (4 Bft)
03.02.2026 05:59 21,9 °C -4,9 °C 43 % 78 % 1008,6 hPa 0,0 l/m² 11,2 km/h (2 Bft) O-NO 64 ° 0 min 0 W/m² -8,1 °C -10,0 °C 14,5 km/h (3 Bft)
03.02.2026 06:01 21,9 °C -4,9 °C 43 % 78 % 1008,6 hPa 0,0 l/m² 15,0 km/h (3 Bft) O 90 ° 0 min 0 W/m² -8,1 °C -12,9 °C 20,9 km/h (4 Bft)
03.02.2026 06:03 21,9 °C -4,9 °C 43 % 78 % 1008,6 hPa 0,0 l/m² 15,8 km/h (3 Bft) O-NO 61 ° 0 min 0 W/m² -8,1 °C -13,5 °C 20,9 km/h (4 Bft)
03.02.2026 06:04 21,9 °C -4,9 °C 43 % 78 % 1008,6 hPa 0,0 l/m² 11,9 km/h (2 Bft) O 82 ° 0 min 0 W/m² -8,1 °C -10,6 °C 17,7 km/h (3 Bft)
03.02.2026 06:05 21,9 °C -4,9 °C 43 % 78 % 1008,6 hPa 0,0 l/m² 15,2 km/h (3 Bft) O 80 ° 0 min 0 W/m² -8,1 °C -13,1 °C 20,9 km/h (4 Bft)
03.02.2026 06:06 21,9 °C -4,9 °C 43 % 78 % 1008,5 hPa 0,0 l/m² 14,8 km/h (3 Bft) O-NO 78 ° 0 min 0 W/m² -8,1 °C -12,8 °C 20,9 km/h (4 Bft)
03.02.2026 06:07 21,9 °C -4,9 °C 43 % 78 % 1008,5 hPa 0,0 l/m² 20,5 km/h (4 Bft) O 98 ° 0 min 0 W/m² -8,1 °C -16,2 °C 32,2 km/h (5 Bft)
03.02.2026 06:08 21,9 °C -4,9 °C 43 % 78 % 1008,5 hPa 0,0 l/m² 17,1 km/h (3 Bft) O-NO 75 ° 0 min 0 W/m² -8,1 °C -14,3 °C 27,4 km/h (5 Bft)
03.02.2026 06:09 21,9 °C -4,9 °C 43 % 78 % 1008,5 hPa 0,0 l/m² 17,6 km/h (3 Bft) NO 42 ° 0 min 0 W/m² -8,1 °C -14,6 °C 24,1 km/h (4 Bft)
03.02.2026 06:10 21,9 °C -4,9 °C 43 % 78 % 1008,4 hPa 0,0 l/m² 14,7 km/h (3 Bft) O-NO 57 ° 0 min 0 W/m² -8,1 °C -12,7 °C 22,5 km/h (4 Bft)
03.02.2026 06:12 21,9 °C -4,9 °C 43 % 78 % 1008,5 hPa 0,0 l/m² 13,2 km/h (3 Bft) O 84 ° 0 min 0 W/m² -8,1 °C -11,6 °C 20,9 km/h (4 Bft)
03.02.2026 06:13 21,9 °C -4,9 °C 43 % 78 % 1008,5 hPa 0,0 l/m² 14,9 km/h (3 Bft) O 91 ° 0 min 0 W/m² -8,1 °C -12,8 °C 19,3 km/h (3 Bft)
03.02.2026 06:14 21,9 °C -5,0 °C 43 % 78 % 1008,6 hPa 0,0 l/m² 14,0 km/h (3 Bft) O 79 ° 0 min 0 W/m² -8,2 °C -12,3 °C 17,7 km/h (3 Bft)
03.02.2026 06:15 21,9 °C -5,0 °C 43 % 78 % 1008,6 hPa 0,0 l/m² 22,4 km/h (4 Bft) NO 46 ° 0 min 0 W/m² -8,2 °C -17,3 °C 27,4 km/h (5 Bft)
03.02.2026 06:16 21,9 °C -4,9 °C 43 % 78 % 1008,5 hPa 0,0 l/m² 15,6 km/h (3 Bft) NO 44 ° 0 min 0 W/m² -8,1 °C -13,3 °C 22,5 km/h (4 Bft)
03.02.2026 06:17 21,9 °C -5,0 °C 43 % 78 % 1008,5 hPa 0,0 l/m² 14,5 km/h (3 Bft) O-NO 63 ° 0 min 0 W/m² -8,2 °C -12,7 °C 19,3 km/h (3 Bft)
03.02.2026 06:18 21,9 °C -5,0 °C 43 % 78 % 1008,5 hPa 0,0 l/m² 14,6 km/h (3 Bft) NO 53 ° 0 min 0 W/m² -8,2 °C -12,8 °C 19,3 km/h (3 Bft)
03.02.2026 06:19 21,9 °C -5,0 °C 43 % 78 % 1008,4 hPa 0,0 l/m² 16,5 km/h (3 Bft) O-NO 66 ° 0 min 0 W/m² -8,2 °C -14,0 °C 24,1 km/h (4 Bft)
03.02.2026 06:21 21,9 °C -5,0 °C 43 % 78 % 1008,4 hPa 0,0 l/m² 14,6 km/h (3 Bft) O 81 ° 0 min 0 W/m² -8,2 °C -12,8 °C 22,5 km/h (4 Bft)
03.02.2026 06:23 21,9 °C -5,0 °C 43 % 78 % 1008,5 hPa 0,0 l/m² 13,3 km/h (3 Bft) O-NO 70 ° 0 min 0 W/m² -8,2 °C -11,8 °C 17,7 km/h (3 Bft)
03.02.2026 06:24 21,9 °C -5,0 °C 43 % 78 % 1008,5 hPa 0,0 l/m² 11,3 km/h (2 Bft) O-NO 65 ° 0 min 0 W/m² -8,2 °C -10,2 °C 17,7 km/h (3 Bft)
03.02.2026 06:25 21,9 °C -5,0 °C 43 % 78 % 1008,4 hPa 0,0 l/m² 10,4 km/h (2 Bft) O 80 ° 0 min 0 W/m² -8,2 °C -9,4 °C 14,5 km/h (3 Bft)
03.02.2026 06:26 21,9 °C -5,0 °C 43 % 78 % 1008,4 hPa 0,0 l/m² 16,7 km/h (3 Bft) O-NO 63 ° 0 min 0 W/m² -8,2 °C -14,2 °C 20,9 km/h (4 Bft)
03.02.2026 06:27 21,9 °C -5,0 °C 43 % 78 % 1008,5 hPa 0,0 l/m² 14,5 km/h (3 Bft) O-NO 61 ° 0 min 0 W/m² -8,2 °C -12,7 °C 17,7 km/h (3 Bft)
03.02.2026 06:28 21,9 °C -5,0 °C 43 % 78 % 1008,4 hPa 0,0 l/m² 9,9 km/h (2 Bft) O 82 ° 0 min 0 W/m² -8,2 °C -8,9 °C 17,7 km/h (3 Bft)
03.02.2026 06:29 21,9 °C -5,0 °C 43 % 78 % 1008,4 hPa 0,0 l/m² 19,1 km/h (3 Bft) O-NO 70 ° 0 min 0 W/m² -8,2 °C -15,6 °C 22,5 km/h (4 Bft)
03.02.2026 06:31 21,9 °C -5,0 °C 43 % 78 % 1008,3 hPa 0,0 l/m² 15,7 km/h (3 Bft) O-NO 67 ° 0 min 0 W/m² -8,2 °C -13,5 °C 24,1 km/h (4 Bft)
03.02.2026 06:33 21,8 °C -5,0 °C 43 % 78 % 1008,4 hPa 0,0 l/m² 14,3 km/h (3 Bft) O-NO 76 ° 0 min 0 W/m² -8,2 °C -12,5 °C 22,5 km/h (4 Bft)
03.02.2026 06:34 21,9 °C -5,1 °C 43 % 78 % 1008,4 hPa 0,0 l/m² 15,6 km/h (3 Bft) O-NO 62 ° 0 min 0 W/m² -8,3 °C -13,6 °C 22,5 km/h (4 Bft)
03.02.2026 06:35 21,9 °C -5,0 °C 43 % 78 % 1008,4 hPa 0,0 l/m² 18,2 km/h (3 Bft) O 82 ° 0 min 0 W/m² -8,2 °C -15,1 °C 27,4 km/h (5 Bft)
03.02.2026 06:36 21,9 °C -5,1 °C 43 % 77 % 1008,4 hPa 0,0 l/m² 18,6 km/h (3 Bft) O-NO 74 ° 0 min 0 W/m² -8,5 °C -15,4 °C 27,4 km/h (5 Bft)
03.02.2026 06:37 21,9 °C -5,1 °C 43 % 77 % 1008,3 hPa 0,0 l/m² 13,6 km/h (3 Bft) O-NO 58 ° 0 min 0 W/m² -8,5 °C -12,1 °C 20,9 km/h (4 Bft)
03.02.2026 06:38 21,9 °C -5,1 °C 43 % 77 % 1008,3 hPa 0,0 l/m² 16,9 km/h (3 Bft) O-NO 66 ° 0 min 0 W/m² -8,5 °C -14,4 °C 20,9 km/h (4 Bft)
03.02.2026 06:39 21,8 °C -5,1 °C 43 % 77 % 1008,2 hPa 0,0 l/m² 18,5 km/h (3 Bft) O 96 ° 0 min 0 W/m² -8,5 °C -15,4 °C 25,7 km/h (4 Bft)
03.02.2026 06:41 21,9 °C -5,1 °C 43 % 77 % 1008,3 hPa 0,0 l/m² 14,7 km/h (3 Bft) O 79 ° 0 min 0 W/m² -8,5 °C -12,9 °C 20,9 km/h (4 Bft)
03.02.2026 06:43 21,9 °C -5,1 °C 43 % 77 % 1008,2 hPa 0,0 l/m² 12,9 km/h (3 Bft) O-NO 69 ° 0 min 0 W/m² -8,5 °C -11,6 °C 20,9 km/h (4 Bft)
03.02.2026 06:45 21,9 °C -5,1 °C 43 % 77 % 1008,3 hPa 0,0 l/m² 11,6 km/h (2 Bft) NO 53 ° 0 min 0 W/m² -8,5 °C -10,5 °C 17,7 km/h (3 Bft)
03.02.2026 06:46 21,8 °C -5,1 °C 43 % 77 % 1008,2 hPa 0,0 l/m² 15,0 km/h (3 Bft) O-NO 68 ° 0 min 0 W/m² -8,5 °C -13,2 °C 17,7 km/h (3 Bft)
03.02.2026 06:47 21,9 °C -5,1 °C 43 % 77 % 1008,2 hPa 0,0 l/m² 19,6 km/h (3 Bft) NO 52 ° 0 min 0 W/m² -8,5 °C -16,0 °C 27,4 km/h (5 Bft)
03.02.2026 06:48 21,9 °C -5,1 °C 43 % 77 % 1008,2 hPa 0,0 l/m² 17,4 km/h (3 Bft) O-NO 69 ° 0 min 0 W/m² -8,5 °C -14,7 °C 25,7 km/h (4 Bft)
03.02.2026 06:49 21,9 °C -5,1 °C 43 % 77 % 1008,2 hPa 0,0 l/m² 17,8 km/h (3 Bft) O-NO 71 ° 0 min 0 W/m² -8,5 °C -15,0 °C 27,4 km/h (5 Bft)
03.02.2026 06:51 21,9 °C -5,1 °C 43 % 77 % 1008,2 hPa 0,0 l/m² 16,1 km/h (3 Bft) O-NO 75 ° 0 min 0 W/m² -8,5 °C -13,9 °C 22,5 km/h (4 Bft)
03.02.2026 06:53 21,9 °C -5,1 °C 43 % 77 % 1008,2 hPa 0,0 l/m² 17,8 km/h (3 Bft) NO 46 ° 0 min 0 W/m² -8,5 °C -15,0 °C 33,8 km/h (5 Bft)
03.02.2026 06:54 21,9 °C -5,1 °C 43 % 77 % 1008,2 hPa 0,0 l/m² 12,8 km/h (3 Bft) O 82 ° 0 min 0 W/m² -8,5 °C -11,5 °C 22,5 km/h (4 Bft)
03.02.2026 06:55 21,9 °C -5,1 °C 43 % 77 % 1008,1 hPa 0,0 l/m² 10,8 km/h (2 Bft) O-NO 63 ° 0 min 0 W/m² -8,5 °C -9,8 °C 16,1 km/h (3 Bft)
03.02.2026 06:56 21,9 °C -5,1 °C 43 % 77 % 1008,1 hPa 0,0 l/m² 12,2 km/h (2 Bft) O-NO 65 ° 0 min 0 W/m² -8,5 °C -11,0 °C 19,3 km/h (3 Bft)
03.02.2026 06:57 21,9 °C -5,1 °C 43 % 77 % 1008,1 hPa 0,0 l/m² 12,5 km/h (2 Bft) NO 45 ° 0 min 0 W/m² -8,5 °C -11,3 °C 19,3 km/h (3 Bft)
03.02.2026 06:58 21,9 °C -5,1 °C 43 % 77 % 1008,2 hPa 0,0 l/m² 13,6 km/h (3 Bft) O-NO 75 ° 0 min 0 W/m² -8,5 °C -12,1 °C 24,1 km/h (4 Bft)
03.02.2026 06:59 21,9 °C -5,1 °C 43 % 77 % 1008,2 hPa 0,0 l/m² 12,7 km/h (3 Bft) O-NO 64 ° 0 min 0 W/m² -8,5 °C -11,4 °C 20,9 km/h (4 Bft)
03.02.2026 07:01 21,9 °C -5,1 °C 43 % 77 % 1008,2 hPa 0,0 l/m² 20,2 km/h (4 Bft) O-NO 61 ° 0 min 0 W/m² -8,5 °C -16,3 °C 27,4 km/h (5 Bft)
03.02.2026 07:03 21,9 °C -5,1 °C 43 % 77 % 1008,2 hPa 0,0 l/m² 14,1 km/h (3 Bft) O-NO 69 ° 0 min 0 W/m² -8,5 °C -12,5 °C 24,1 km/h (4 Bft)
03.02.2026 07:04 21,9 °C -5,1 °C 43 % 77 % 1008,3 hPa 0,0 l/m² 15,6 km/h (3 Bft) O-NO 64 ° 0 min 0 W/m² -8,5 °C -13,6 °C 20,9 km/h (4 Bft)
03.02.2026 07:05 21,9 °C -5,2 °C 43 % 77 % 1008,3 hPa 0,0 l/m² 12,7 km/h (3 Bft) O-NO 71 ° 0 min 0 W/m² -8,6 °C -11,6 °C 16,1 km/h (3 Bft)
03.02.2026 07:06 21,9 °C -5,2 °C 43 % 77 % 1008,3 hPa 0,0 l/m² 11,3 km/h (2 Bft) O 83 ° 0 min 0 W/m² -8,6 °C -10,4 °C 19,3 km/h (3 Bft)
03.02.2026 07:07 21,9 °C -5,1 °C 43 % 77 % 1008,2 hPa 0,0 l/m² 15,5 km/h (3 Bft) O-NO 63 ° 0 min 0 W/m² -8,5 °C -13,5 °C 19,3 km/h (3 Bft)
03.02.2026 07:08 21,9 °C -5,1 °C 43 % 77 % 1008,2 hPa 0,0 l/m² 12,2 km/h (2 Bft) O-NO 69 ° 0 min 0 W/m² -8,5 °C -11,0 °C 17,7 km/h (3 Bft)
03.02.2026 07:09 21,9 °C -5,2 °C 43 % 77 % 1008,2 hPa 0,0 l/m² 17,9 km/h (3 Bft) O 80 ° 0 min 0 W/m² -8,6 °C -15,2 °C 25,7 km/h (4 Bft)
03.02.2026 07:11 21,9 °C -5,2 °C 43 % 77 % 1008,3 hPa 0,0 l/m² 17,1 km/h (3 Bft) NO 55 ° 0 min 0 W/m² -8,6 °C -14,7 °C 25,7 km/h (4 Bft)
03.02.2026 07:13 21,9 °C -5,1 °C 43 % 77 % 1008,2 hPa 0,0 l/m² 16,1 km/h (3 Bft) O 82 ° 0 min 0 W/m² -8,5 °C -13,9 °C 22,5 km/h (4 Bft)
03.02.2026 07:14 21,9 °C -5,2 °C 43 % 77 % 1008,3 hPa 0,0 l/m² 20,8 km/h (4 Bft) O-NO 57 ° 0 min 0 W/m² -8,6 °C -16,8 °C 29,0 km/h (5 Bft)
03.02.2026 07:15 21,9 °C -5,2 °C 43 % 77 % 1008,3 hPa 0,0 l/m² 13,6 km/h (3 Bft) O-NO 63 ° 0 min 0 W/m² -8,6 °C -12,3 °C 19,3 km/h (3 Bft)
03.02.2026 07:16 21,9 °C -5,2 °C 43 % 77 % 1008,3 hPa 0,0 l/m² 14,1 km/h (3 Bft) O-NO 75 ° 0 min 0 W/m² -8,6 °C -12,6 °C 20,9 km/h (4 Bft)
03.02.2026 07:17 21,9 °C -5,2 °C 43 % 77 % 1008,4 hPa 0,0 l/m² 13,7 km/h (3 Bft) O 83 ° 0 min 0 W/m² -8,6 °C -12,3 °C 19,3 km/h (3 Bft)
03.02.2026 07:18 21,9 °C -5,2 °C 43 % 77 % 1008,4 hPa 0,0 l/m² 17,6 km/h (3 Bft) O 85 ° 0 min 0 W/m² -8,6 °C -15,0 °C 24,1 km/h (4 Bft)
03.02.2026 07:19 21,9 °C -5,2 °C 43 % 77 % 1008,4 hPa 0,0 l/m² 18,0 km/h (3 Bft) O-NO 76 ° 0 min 0 W/m² -8,6 °C -15,2 °C 24,1 km/h (4 Bft)
03.02.2026 07:21 21,9 °C -5,2 °C 43 % 77 % 1008,3 hPa 0,0 l/m² 15,6 km/h (3 Bft) O 83 ° 0 min 0 W/m² -8,6 °C -13,7 °C 27,4 km/h (5 Bft)
03.02.2026 07:23 21,9 °C -5,2 °C 43 % 77 % 1008,3 hPa 0,0 l/m² 14,6 km/h (3 Bft) O-NO 58 ° 0 min 0 W/m² -8,6 °C -13,0 °C 22,5 km/h (4 Bft)
03.02.2026 07:24 21,9 °C -5,2 °C 43 % 77 % 1008,3 hPa 0,0 l/m² 14,4 km/h (3 Bft) O-NO 69 ° 0 min 0 W/m² -8,6 °C -12,9 °C 20,9 km/h (4 Bft)
03.02.2026 07:25 21,9 °C -5,2 °C 43 % 77 % 1008,3 hPa 0,0 l/m² 16,3 km/h (3 Bft) O-NO 75 ° 0 min 0 W/m² -8,6 °C -14,2 °C 24,1 km/h (4 Bft)
03.02.2026 07:27 21,9 °C -5,2 °C 43 % 77 % 1008,3 hPa 0,0 l/m² 20,7 km/h (4 Bft) O-NO 66 ° 0 min 0 W/m² -8,6 °C -16,7 °C 29,0 km/h (5 Bft)
03.02.2026 07:28 21,9 °C -5,3 °C 43 % 77 % 1008,3 hPa 0,0 l/m² 18,2 km/h (3 Bft) O-NO 76 ° 0 min 0 W/m² -8,7 °C -15,5 °C 27,4 km/h (5 Bft)
03.02.2026 07:29 21,9 °C -5,3 °C 43 % 77 % 1008,3 hPa 0,0 l/m² 20,7 km/h (4 Bft) NO 53 ° 0 min 0 W/m² -8,7 °C -16,9 °C 29,0 km/h (5 Bft)
03.02.2026 07:31 21,9 °C -5,3 °C 43 % 77 % 1008,3 hPa 0,0 l/m² 16,1 km/h (3 Bft) O-NO 70 ° 0 min 0 W/m² -8,7 °C -14,1 °C 19,3 km/h (3 Bft)
03.02.2026 07:33 21,9 °C -5,3 °C 43 % 77 % 1008,2 hPa 0,0 l/m² 12,5 km/h (2 Bft) O 81 ° 0 min 0 W/m² -8,7 °C -11,5 °C 20,9 km/h (4 Bft)
03.02.2026 07:34 21,9 °C -5,3 °C 43 % 77 % 1008,2 hPa 0,0 l/m² 17,6 km/h (3 Bft) O 83 ° 0 min 0 W/m² -8,7 °C -15,1 °C 22,5 km/h (4 Bft)
03.02.2026 07:35 21,9 °C -5,3 °C 43 % 77 % 1008,2 hPa 0,0 l/m² 19,8 km/h (3 Bft) O-NO 65 ° 0 min 0 W/m² -8,7 °C -16,4 °C 27,4 km/h (5 Bft)
03.02.2026 07:36 21,9 °C -5,3 °C 43 % 77 % 1008,2 hPa 0,0 l/m² 16,9 km/h (3 Bft) O 88 ° 0 min 0 W/m² -8,7 °C -14,7 °C 25,7 km/h (4 Bft)
03.02.2026 07:37 21,9 °C -5,3 °C 43 % 77 % 1008,2 hPa 0,0 l/m² 16,8 km/h (3 Bft) NO 50 ° 0 min 0 W/m² -8,7 °C -14,6 °C 24,1 km/h (4 Bft)
03.02.2026 07:38 21,9 °C -5,3 °C 43 % 77 % 1008,1 hPa 0,0 l/m² 18,4 km/h (3 Bft) NO 51 ° 0 min 0 W/m² -8,7 °C -15,6 °C 25,7 km/h (4 Bft)
03.02.2026 07:39 21,9 °C -5,3 °C 43 % 77 % 1008,2 hPa 0,0 l/m² 17,9 km/h (3 Bft) O-NO 72 ° 0 min 0 W/m² -8,7 °C -15,3 °C 25,7 km/h (4 Bft)
03.02.2026 07:41 21,9 °C -5,3 °C 43 % 77 % 1008,2 hPa 0,0 l/m² 18,8 km/h (3 Bft) O 83 ° 0 min 0 W/m² -8,7 °C -15,8 °C 25,7 km/h (4 Bft)
03.02.2026 07:43 21,9 °C -5,3 °C 43 % 77 % 1008,0 hPa 0,0 l/m² 15,1 km/h (3 Bft) O 91 ° 0 min 0 W/m² -8,7 °C -13,5 °C 24,1 km/h (4 Bft)
03.02.2026 07:44 21,9 °C -5,3 °C 43 % 77 % 1008,1 hPa 0,0 l/m² 11,6 km/h (2 Bft) O 90 ° 0 min 0 W/m² -8,7 °C -10,8 °C 20,9 km/h (4 Bft)
03.02.2026 07:45 21,9 °C -5,3 °C 43 % 77 % 1008,0 hPa 0,0 l/m² 16,3 km/h (3 Bft) O-NO 76 ° 0 min 0 W/m² -8,7 °C -14,3 °C 22,5 km/h (4 Bft)
03.02.2026 07:46 21,9 °C -5,3 °C 43 % 77 % 1008,0 hPa 0,0 l/m² 13,3 km/h (3 Bft) O-NO 66 ° 0 min 0 W/m² -8,7 °C -12,2 °C 19,3 km/h (3 Bft)
03.02.2026 07:47 21,9 °C -5,3 °C 43 % 77 % 1008,1 hPa 0,0 l/m² 11,1 km/h (2 Bft) O-NO 68 ° 0 min 0 W/m² -8,7 °C -10,3 °C 16,1 km/h (3 Bft)
03.02.2026 07:48 21,9 °C -5,3 °C 43 % 77 % 1008,2 hPa 0,0 l/m² 14,5 km/h (3 Bft) NO 36 ° 0 min 0 W/m² -8,7 °C -13,0 °C 20,9 km/h (4 Bft)
03.02.2026 07:49 21,9 °C -5,3 °C 43 % 77 % 1008,1 hPa 0,0 l/m² 15,4 km/h (3 Bft) O 79 ° 0 min 0 W/m² -8,7 °C -13,7 °C 25,7 km/h (4 Bft)
03.02.2026 07:51 21,9 °C -5,3 °C 43 % 77 % 1008,2 hPa 0,0 l/m² 17,0 km/h (3 Bft) O-NO 65 ° 0 min 0 W/m² -8,7 °C -14,7 °C 29,0 km/h (5 Bft)
03.02.2026 07:53 21,9 °C -5,3 °C 43 % 77 % 1008,1 hPa 0,0 l/m² 14,4 km/h (3 Bft) O-NO 74 ° 0 min 0 W/m² -8,7 °C -13,0 °C 20,9 km/h (4 Bft)
03.02.2026 07:54 21,9 °C -5,3 °C 43 % 77 % 1008,1 hPa 0,0 l/m² 16,4 km/h (3 Bft) O 82 ° 0 min 0 W/m² -8,7 °C -14,3 °C 20,9 km/h (4 Bft)
03.02.2026 07:55 21,9 °C -5,4 °C 43 % 77 % 1008,2 hPa 0,0 l/m² 14,9 km/h (3 Bft) O-NO 63 ° 0 min 0 W/m² -8,8 °C -13,5 °C 20,9 km/h (4 Bft)
03.02.2026 07:56 21,9 °C -5,3 °C 43 % 77 % 1008,2 hPa 0,0 l/m² 13,9 km/h (3 Bft) O-NO 65 ° 0 min 0 W/m² -8,7 °C -12,6 °C 19,3 km/h (3 Bft)
03.02.2026 07:57 21,9 °C -5,4 °C 43 % 77 % 1008,3 hPa 0,0 l/m² 12,4 km/h (2 Bft) O-NO 66 ° 0 min 5 W/m² -8,8 °C -11,6 °C 19,3 km/h (3 Bft)
03.02.2026 07:58 21,9 °C -5,4 °C 43 % 77 % 1008,3 hPa 0,0 l/m² 16,7 km/h (3 Bft) NO 42 ° 0 min 5 W/m² -8,8 °C -14,7 °C 22,5 km/h (4 Bft)
03.02.2026 07:59 21,9 °C -5,4 °C 43 % 77 % 1008,4 hPa 0,0 l/m² 20,2 km/h (4 Bft) O 87 ° 0 min 5 W/m² -8,8 °C -16,7 °C 29,0 km/h (5 Bft)
03.02.2026 08:01 21,9 °C -5,4 °C 43 % 77 % 1008,2 hPa 0,0 l/m² 17,0 km/h (3 Bft) NO 49 ° 0 min 5 W/m² -8,8 °C -14,9 °C 24,1 km/h (4 Bft)
03.02.2026 08:03 21,9 °C -5,4 °C 43 % 77 % 1008,2 hPa 0,0 l/m² 17,3 km/h (3 Bft) O 83 ° 0 min 5 W/m² -8,8 °C -15,0 °C 27,4 km/h (5 Bft)
03.02.2026 08:04 21,9 °C -5,4 °C 43 % 77 % 1008,1 hPa 0,0 l/m² 16,8 km/h (3 Bft) O 88 ° 0 min 7 W/m² -8,8 °C -14,7 °C 19,3 km/h (3 Bft)
03.02.2026 08:05 21,9 °C -5,4 °C 43 % 77 % 1008,2 hPa 0,0 l/m² 21,9 km/h (4 Bft) O-NO 60 ° 0 min 7 W/m² -8,8 °C -17,6 °C 29,0 km/h (5 Bft)
03.02.2026 08:06 21,9 °C -5,4 °C 43 % 77 % 1008,3 hPa 0,0 l/m² 12,5 km/h (2 Bft) O 88 ° 0 min 7 W/m² -8,8 °C -11,6 °C 25,7 km/h (4 Bft)
03.02.2026 08:07 21,9 °C -5,4 °C 43 % 77 % 1008,4 hPa 0,0 l/m² 13,6 km/h (3 Bft) O-NO 71 ° 0 min 7 W/m² -8,8 °C -12,5 °C 17,7 km/h (3 Bft)
03.02.2026 08:08 21,9 °C -5,4 °C 43 % 77 % 1008,3 hPa 0,0 l/m² 14,3 km/h (3 Bft) O 92 ° 0 min 7 W/m² -8,8 °C -13,0 °C 17,7 km/h (3 Bft)
03.02.2026 08:09 21,9 °C -5,4 °C 43 % 77 % 1008,4 hPa 0,0 l/m² 9,9 km/h (2 Bft) O-NO 59 ° 0 min 7 W/m² -8,8 °C -9,3 °C 12,9 km/h (3 Bft)
03.02.2026 08:11 21,9 °C -5,4 °C 43 % 78 % 1008,4 hPa 0,0 l/m² 9,3 km/h (2 Bft) O 80 ° 0 min 9 W/m² -8,6 °C -8,7 °C 17,7 km/h (3 Bft)
03.02.2026 08:13 21,9 °C -5,4 °C 43 % 78 % 1008,4 hPa 0,0 l/m² 13,7 km/h (3 Bft) O 82 ° 0 min 9 W/m² -8,6 °C -12,6 °C 24,1 km/h (4 Bft)
03.02.2026 08:14 21,9 °C -5,4 °C 43 % 78 % 1008,3 hPa 0,0 l/m² 15,8 km/h (3 Bft) O 89 ° 0 min 11 W/m² -8,6 °C -14,1 °C 22,5 km/h (4 Bft)
03.02.2026 08:15 21,9 °C -5,4 °C 43 % 78 % 1008,3 hPa 0,0 l/m² 14,2 km/h (3 Bft) O-NO 72 ° 0 min 11 W/m² -8,6 °C -12,9 °C 19,3 km/h (3 Bft)
03.02.2026 08:16 21,9 °C -5,4 °C 43 % 78 % 1008,3 hPa 0,0 l/m² 14,0 km/h (3 Bft) O-NO 71 ° 0 min 11 W/m² -8,6 °C -12,8 °C 19,3 km/h (3 Bft)
03.02.2026 08:17 21,9 °C -5,4 °C 43 % 78 % 1008,3 hPa 0,0 l/m² 17,4 km/h (3 Bft) O-NO 69 ° 0 min 12 W/m² -8,6 °C -15,1 °C 24,1 km/h (4 Bft)
03.02.2026 08:18 21,9 °C -5,4 °C 43 % 78 % 1008,2 hPa 0,0 l/m² 19,0 km/h (3 Bft) O 92 ° 0 min 12 W/m² -8,6 °C -16,1 °C 22,5 km/h (4 Bft)
03.02.2026 08:19 21,9 °C -5,4 °C 43 % 78 % 1008,2 hPa 0,0 l/m² 19,2 km/h (3 Bft) O-NO 69 ° 0 min 12 W/m² -8,6 °C -16,2 °C 27,4 km/h (5 Bft)
03.02.2026 08:21 21,9 °C -5,4 °C 43 % 78 % 1008,2 hPa 0,0 l/m² 19,5 km/h (3 Bft) O-NO 64 ° 0 min 14 W/m² -8,6 °C -16,3 °C 32,2 km/h (5 Bft)
03.02.2026 08:23 21,9 °C -5,4 °C 43 % 78 % 1008,2 hPa 0,0 l/m² 17,6 km/h (3 Bft) O 90 ° 0 min 14 W/m² -8,6 °C -15,2 °C 22,5 km/h (4 Bft)
03.02.2026 08:24 21,9 °C -5,4 °C 43 % 78 % 1008,3 hPa 0,0 l/m² 17,6 km/h (3 Bft) O-NO 63 ° 0 min 14 W/m² -8,6 °C -15,2 °C 20,9 km/h (4 Bft)
03.02.2026 08:25 21,9 °C -5,4 °C 43 % 78 % 1008,3 hPa 0,0 l/m² 16,2 km/h (3 Bft) O 83 ° 0 min 16 W/m² -8,6 °C -14,3 °C 19,3 km/h (3 Bft)
03.02.2026 08:26 21,9 °C -5,4 °C 43 % 78 % 1008,3 hPa 0,0 l/m² 17,1 km/h (3 Bft) NO 56 ° 0 min 16 W/m² -8,6 °C -14,9 °C 22,5 km/h (4 Bft)
03.02.2026 08:27 21,8 °C -5,4 °C 43 % 78 % 1008,2 hPa 0,0 l/m² 19,9 km/h (4 Bft) O 90 ° 0 min 16 W/m² -8,6 °C -16,6 °C 24,1 km/h (4 Bft)
03.02.2026 08:28 21,8 °C -5,4 °C 43 % 78 % 1008,2 hPa 0,0 l/m² 23,0 km/h (4 Bft) O-NO 67 ° 0 min 18 W/m² -8,6 °C -18,1 °C 29,0 km/h (5 Bft)
03.02.2026 08:29 21,9 °C -5,4 °C 43 % 78 % 1008,2 hPa 0,0 l/m² 15,7 km/h (3 Bft) O 84 ° 0 min 18 W/m² -8,6 °C -14,0 °C 24,1 km/h (4 Bft)
03.02.2026 08:31 21,9 °C -5,4 °C 43 % 78 % 1008,1 hPa 0,0 l/m² 17,0 km/h (3 Bft) NO 53 ° 0 min 19 W/m² -8,6 °C -14,9 °C 25,7 km/h (4 Bft)
03.02.2026 08:33 21,9 °C -5,4 °C 43 % 78 % 1008,2 hPa 0,0 l/m² 11,8 km/h (2 Bft) O-NO 78 ° 0 min 19 W/m² -8,6 °C -11,1 °C 19,3 km/h (3 Bft)
03.02.2026 08:34 21,9 °C -5,4 °C 43 % 78 % 1008,3 hPa 0,0 l/m² 15,8 km/h (3 Bft) O 92 ° 0 min 19 W/m² -8,6 °C -14,1 °C 25,7 km/h (4 Bft)
03.02.2026 08:35 21,9 °C -5,4 °C 43 % 78 % 1008,3 hPa 0,0 l/m² 11,7 km/h (2 Bft) O 79 ° 0 min 19 W/m² -8,6 °C -11,0 °C 19,3 km/h (3 Bft)
03.02.2026 08:36 21,9 °C -5,4 °C 43 % 78 % 1008,3 hPa 0,0 l/m² 19,3 km/h (3 Bft) O-NO 69 ° 0 min 19 W/m² -8,6 °C -16,2 °C 24,1 km/h (4 Bft)
03.02.2026 08:37 21,9 °C -5,4 °C 43 % 78 % 1008,3 hPa 0,0 l/m² 13,6 km/h (3 Bft) NO 55 ° 0 min 19 W/m² -8,6 °C -12,5 °C 16,1 km/h (3 Bft)
03.02.2026 08:38 21,9 °C -5,4 °C 43 % 78 % 1008,3 hPa 0,0 l/m² 10,7 km/h (2 Bft) O-NO 60 ° 0 min 21 W/m² -8,6 °C -10,1 °C 20,9 km/h (4 Bft)
03.02.2026 08:39 21,9 °C -5,4 °C 43 % 78 % 1008,3 hPa 0,0 l/m² 10,9 km/h (2 Bft) O-NO 69 ° 0 min 21 W/m² -8,6 °C -10,3 °C 17,7 km/h (3 Bft)
03.02.2026 08:41 21,8 °C -5,4 °C 43 % 78 % 1008,3 hPa 0,0 l/m² 14,2 km/h (3 Bft) O-NO 58 ° 0 min 23 W/m² -8,6 °C -12,9 °C 24,1 km/h (4 Bft)
03.02.2026 08:43 21,9 °C -5,4 °C 43 % 78 % 1008,3 hPa 0,0 l/m² 10,8 km/h (2 Bft) O-NO 65 ° 0 min 23 W/m² -8,6 °C -10,2 °C 20,9 km/h (4 Bft)
03.02.2026 08:44 21,9 °C -5,4 °C 43 % 78 % 1008,1 hPa 0,0 l/m² 10,5 km/h (2 Bft) NO 46 ° 0 min 23 W/m² -8,6 °C -9,9 °C 19,3 km/h (3 Bft)
03.02.2026 08:45 21,9 °C -5,4 °C 43 % 78 % 1008,2 hPa 0,0 l/m² 14,6 km/h (3 Bft) O 82 ° 0 min 23 W/m² -8,6 °C -13,2 °C 22,5 km/h (4 Bft)
03.02.2026 08:46 21,9 °C -5,4 °C 43 % 78 % 1008,2 hPa 0,0 l/m² 17,4 km/h (3 Bft) O-NO 62 ° 0 min 25 W/m² -8,6 °C -15,1 °C 22,5 km/h (4 Bft)
03.02.2026 08:47 21,9 °C -5,4 °C 43 % 78 % 1008,3 hPa 0,0 l/m² 20,8 km/h (4 Bft) O-NO 71 ° 0 min 25 W/m² -8,6 °C -17,0 °C 27,4 km/h (5 Bft)
03.02.2026 08:48 21,9 °C -5,4 °C 43 % 78 % 1008,3 hPa 0,0 l/m² 18,9 km/h (3 Bft) O-NO 58 ° 0 min 25 W/m² -8,6 °C -16,0 °C 24,1 km/h (4 Bft)
03.02.2026 08:49 21,9 °C -5,4 °C 43 % 78 % 1008,2 hPa 0,0 l/m² 20,8 km/h (4 Bft) O-NO 75 ° 0 min 26 W/m² -8,6 °C -17,0 °C 29,0 km/h (5 Bft)
03.02.2026 08:51 21,9 °C -5,4 °C 43 % 78 % 1008,2 hPa 0,0 l/m² 16,8 km/h (3 Bft) O 79 ° 0 min 28 W/m² -8,6 °C -14,7 °C 27,4 km/h (5 Bft)
03.02.2026 08:53 21,9 °C -5,4 °C 43 % 78 % 1008,1 hPa 0,0 l/m² 12,1 km/h (2 Bft) NO 51 ° 0 min 28 W/m² -8,6 °C -11,3 °C 22,5 km/h (4 Bft)
03.02.2026 08:54 21,8 °C -5,4 °C 43 % 78 % 1008,2 hPa 0,0 l/m² 11,1 km/h (2 Bft) O 86 ° 0 min 28 W/m² -8,6 °C -10,4 °C 16,1 km/h (3 Bft)
03.02.2026 08:55 21,9 °C -5,4 °C 43 % 78 % 1008,2 hPa 0,0 l/m² 12,7 km/h (3 Bft) O-NO 74 ° 0 min 30 W/m² -8,6 °C -11,8 °C 16,1 km/h (3 Bft)
03.02.2026 08:56 21,9 °C -5,4 °C 43 % 78 % 1008,2 hPa 0,0 l/m² 18,4 km/h (3 Bft) O-NO 78 ° 0 min 30 W/m² -8,6 °C -15,7 °C 24,1 km/h (4 Bft)
03.02.2026 08:57 21,9 °C -5,4 °C 43 % 78 % 1008,2 hPa 0,0 l/m² 11,1 km/h (2 Bft) NO 51 ° 0 min 30 W/m² -8,6 °C -10,4 °C 16,1 km/h (3 Bft)
03.02.2026 08:58 21,8 °C -5,4 °C 43 % 79 % 1008,1 hPa 0,0 l/m² 11,8 km/h (2 Bft) NO 44 ° 0 min 30 W/m² -8,5 °C -11,1 °C 16,1 km/h (3 Bft)
03.02.2026 08:59 21,8 °C -5,3 °C 43 % 79 % 1008,1 hPa 0,0 l/m² 13,6 km/h (3 Bft) O-NO 76 ° 0 min 30 W/m² -8,4 °C -12,4 °C 22,5 km/h (4 Bft)
03.02.2026 09:01 21,9 °C -5,4 °C 43 % 79 % 1008,1 hPa 0,0 l/m² 15,5 km/h (3 Bft) O-NO 63 ° 0 min 32 W/m² -8,5 °C -13,9 °C 24,1 km/h (4 Bft)
03.02.2026 09:03 21,9 °C -5,4 °C 43 % 79 % 1008,1 hPa 0,0 l/m² 10,0 km/h (2 Bft) O 79 ° 0 min 33 W/m² -8,5 °C -9,4 °C 16,1 km/h (3 Bft)
03.02.2026 09:04 21,8 °C -5,4 °C 43 % 79 % 1008,0 hPa 0,0 l/m² 18,8 km/h (3 Bft) O 80 ° 0 min 33 W/m² -8,5 °C -15,9 °C 24,1 km/h (4 Bft)
03.02.2026 09:05 21,8 °C -5,3 °C 43 % 79 % 1008,0 hPa 0,0 l/m² 16,5 km/h (3 Bft) O-NO 75 ° 0 min 33 W/m² -8,4 °C -14,4 °C 22,5 km/h (4 Bft)
03.02.2026 09:06 21,8 °C -5,4 °C 43 % 79 % 1008,0 hPa 0,0 l/m² 15,2 km/h (3 Bft) NO 56 ° 0 min 33 W/m² -8,5 °C -13,7 °C 19,3 km/h (3 Bft)
03.02.2026 09:08 21,8 °C -5,4 °C 43 % 79 % 1007,9 hPa 0,0 l/m² 9,3 km/h (2 Bft) O-NO 61 ° 0 min 35 W/m² -8,5 °C -8,7 °C 19,3 km/h (3 Bft)
03.02.2026 09:09 21,8 °C -5,3 °C 43 % 79 % 1007,9 hPa 0,0 l/m² 8,9 km/h (2 Bft) NO 47 ° 0 min 35 W/m² -8,4 °C -8,2 °C 14,5 km/h (3 Bft)
03.02.2026 09:11 21,8 °C -5,3 °C 43 % 79 % 1008,0 hPa 0,0 l/m² 12,0 km/h (2 Bft) O 84 ° 0 min 37 W/m² -8,4 °C -11,1 °C 17,7 km/h (3 Bft)
03.02.2026 09:13 21,8 °C -5,3 °C 43 % 79 % 1007,9 hPa 0,0 l/m² 11,3 km/h (2 Bft) O-NO 78 ° 0 min 37 W/m² -8,4 °C -10,5 °C 17,7 km/h (3 Bft)
03.02.2026 09:14 21,9 °C -5,3 °C 43 % 79 % 1008,0 hPa 0,0 l/m² 20,1 km/h (4 Bft) O-NO 77 ° 0 min 39 W/m² -8,4 °C -16,5 °C 24,1 km/h (4 Bft)
03.02.2026 09:15 21,9 °C -5,3 °C 43 % 79 % 1008,0 hPa 0,0 l/m² 13,2 km/h (3 Bft) NO 47 ° 0 min 39 W/m² -8,4 °C -12,1 °C 19,3 km/h (3 Bft)
03.02.2026 09:16 21,8 °C -5,3 °C 43 % 79 % 1008,0 hPa 0,0 l/m² 10,5 km/h (2 Bft) O-NO 71 ° 0 min 40 W/m² -8,4 °C -9,8 °C 14,5 km/h (3 Bft)
03.02.2026 09:17 21,8 °C -5,3 °C 43 % 79 % 1008,0 hPa 0,0 l/m² 6,5 km/h (2 Bft) O-NO 57 ° 0 min 40 W/m² -8,4 °C -5,4 °C 12,9 km/h (3 Bft)
03.02.2026 09:18 21,8 °C -5,3 °C 43 % 79 % 1008,0 hPa 0,0 l/m² 8,5 km/h (2 Bft) O-NO 75 ° 0 min 40 W/m² -8,4 °C -7,8 °C 14,5 km/h (3 Bft)
03.02.2026 09:19 21,9 °C -5,3 °C 43 % 79 % 1008,0 hPa 0,0 l/m² 14,7 km/h (3 Bft) NO 48 ° 0 min 44 W/m² -8,4 °C -13,2 °C 17,7 km/h (3 Bft)
03.02.2026 09:21 21,8 °C -5,3 °C 43 % 79 % 1007,8 hPa 0,0 l/m² 17,0 km/h (3 Bft) O 82 ° 0 min 46 W/m² -8,4 °C -14,7 °C 29,0 km/h (5 Bft)
03.02.2026 09:23 21,8 °C -5,3 °C 43 % 79 % 1007,9 hPa 0,0 l/m² 20,9 km/h (4 Bft) NO 54 ° 0 min 46 W/m² -8,4 °C -17,0 °C 27,4 km/h (5 Bft)
03.02.2026 09:24 21,8 °C -5,3 °C 43 % 79 % 1007,9 hPa 0,0 l/m² 16,1 km/h (3 Bft) NO 40 ° 0 min 46 W/m² -8,4 °C -14,1 °C 20,9 km/h (4 Bft)
03.02.2026 09:25 21,8 °C -5,3 °C 43 % 79 % 1007,9 hPa 0,0 l/m² 11,3 km/h (2 Bft) O-NO 67 ° 0 min 47 W/m² -8,4 °C -10,5 °C 17,7 km/h (3 Bft)
03.02.2026 09:27 21,8 °C -5,3 °C 43 % 79 % 1007,8 hPa 0,0 l/m² 11,0 km/h (2 Bft) O-NO 74 ° 0 min 47 W/m² -8,4 °C -10,2 °C 19,3 km/h (3 Bft)
03.02.2026 09:28 21,8 °C -5,3 °C 43 % 79 % 1007,8 hPa 0,0 l/m² 16,9 km/h (3 Bft) O-NO 57 ° 0 min 49 W/m² -8,4 °C -14,7 °C 24,1 km/h (4 Bft)
03.02.2026 09:29 21,9 °C -5,3 °C 43 % 79 % 1007,8 hPa 0,0 l/m² 13,6 km/h (3 Bft) NO 47 ° 0 min 47 W/m² -8,4 °C -12,4 °C 22,5 km/h (4 Bft)
03.02.2026 09:31 21,8 °C -5,3 °C 43 % 79 % 1007,7 hPa 0,0 l/m² 11,0 km/h (2 Bft) NO 47 ° 0 min 51 W/m² -8,4 °C -10,2 °C 19,3 km/h (3 Bft)
03.02.2026 09:33 21,9 °C -5,3 °C 43 % 79 % 1007,7 hPa 0,0 l/m² 7,8 km/h (2 Bft) NO 46 ° 2 min 54 W/m² -8,4 °C -7,0 °C 19,3 km/h (3 Bft)
03.02.2026 09:34 21,8 °C -5,3 °C 43 % 79 % 1007,7 hPa 0,0 l/m² 11,3 km/h (2 Bft) NO 55 ° 1 min 54 W/m² -8,4 °C -10,5 °C 17,7 km/h (3 Bft)
03.02.2026 09:35 21,8 °C -5,3 °C 43 % 79 % 1007,7 hPa 0,0 l/m² 13,5 km/h (3 Bft) O-NO 62 ° 1 min 56 W/m² -8,4 °C -12,3 °C 32,2 km/h (5 Bft)
03.02.2026 09:36 21,8 °C -5,3 °C 43 % 79 % 1007,7 hPa 0,0 l/m² 22,8 km/h (4 Bft) O 88 ° 1 min 56 W/m² -8,4 °C -17,9 °C 30,6 km/h (5 Bft)
03.02.2026 09:37 21,8 °C -5,3 °C 43 % 79 % 1007,7 hPa 0,0 l/m² 20,0 km/h (4 Bft) O 83 ° 1 min 58 W/m² -8,4 °C -16,5 °C 24,1 km/h (4 Bft)
03.02.2026 09:38 21,9 °C -5,3 °C 43 % 79 % 1007,6 hPa 0,0 l/m² 21,1 km/h (4 Bft) O-NO 66 ° 1 min 56 W/m² -8,4 °C -17,1 °C 27,4 km/h (5 Bft)
03.02.2026 09:39 21,9 °C -5,3 °C 43 % 79 % 1007,6 hPa 0,0 l/m² 18,7 km/h (3 Bft) O-NO 78 ° 1 min 56 W/m² -8,4 °C -15,8 °C 25,7 km/h (4 Bft)
03.02.2026 09:41 21,8 °C -5,3 °C 43 % 79 % 1007,7 hPa 0,0 l/m² 17,4 km/h (3 Bft) O-NO 77 ° 2 min 58 W/m² -8,4 °C -15,0 °C 25,7 km/h (4 Bft)
03.02.2026 09:43 21,9 °C -5,3 °C 43 % 79 % 1007,6 hPa 0,0 l/m² 16,0 km/h (3 Bft) O-NO 75 ° 2 min 60 W/m² -8,4 °C -14,1 °C 22,5 km/h (4 Bft)
03.02.2026 09:45 21,8 °C -5,3 °C 43 % 79 % 1007,6 hPa 0,0 l/m² 11,4 km/h (2 Bft) O-NO 77 ° 2 min 63 W/m² -8,4 °C -10,6 °C 17,7 km/h (3 Bft)
03.02.2026 09:46 21,9 °C -5,3 °C 43 % 79 % 1007,6 hPa 0,0 l/m² 8,5 km/h (2 Bft) O-NO 59 ° 1 min 63 W/m² -8,4 °C -7,8 °C 12,9 km/h (3 Bft)
03.02.2026 09:47 21,8 °C -5,2 °C 43 % 79 % 1007,6 hPa 0,0 l/m² 10,4 km/h (2 Bft) O 85 ° 1 min 65 W/m² -8,3 °C -9,6 °C 12,9 km/h (3 Bft)
03.02.2026 09:48 21,8 °C -5,2 °C 43 % 79 % 1007,6 hPa 0,0 l/m² 15,0 km/h (3 Bft) O-NO 77 ° 1 min 63 W/m² -8,3 °C -13,3 °C 25,7 km/h (4 Bft)
03.02.2026 09:49 21,8 °C -5,2 °C 43 % 79 % 1007,7 hPa 0,0 l/m² 16,7 km/h (3 Bft) O-NO 67 ° 1 min 63 W/m² -8,3 °C -14,4 °C 19,3 km/h (3 Bft)
03.02.2026 09:51 21,8 °C -5,2 °C 43 % 79 % 1007,6 hPa 0,0 l/m² 18,2 km/h (3 Bft) O-NO 78 ° 2 min 65 W/m² -8,3 °C -15,3 °C 24,1 km/h (4 Bft)
03.02.2026 09:53 21,9 °C -5,2 °C 43 % 79 % 1007,6 hPa 0,0 l/m² 9,6 km/h (2 Bft) NO 55 ° 2 min 65 W/m² -8,3 °C -8,8 °C 22,5 km/h (4 Bft)
03.02.2026 09:54 21,9 °C -5,2 °C 43 % 79 % 1007,6 hPa 0,0 l/m² 10,4 km/h (2 Bft) N-NO 30 ° 1 min 69 W/m² -8,3 °C -9,6 °C 16,1 km/h (3 Bft)
03.02.2026 09:55 21,9 °C -5,2 °C 43 % 79 % 1007,6 hPa 0,0 l/m² 17,3 km/h (3 Bft) NO 40 ° 1 min 69 W/m² -8,3 °C -14,8 °C 22,5 km/h (4 Bft)
03.02.2026 09:56 21,9 °C -5,2 °C 43 % 79 % 1007,5 hPa 0,0 l/m² 8,6 km/h (2 Bft) NO 43 ° 1 min 69 W/m² -8,3 °C -7,8 °C 22,5 km/h (4 Bft)
03.02.2026 09:57 21,9 °C -5,2 °C 43 % 79 % 1007,5 hPa 0,0 l/m² 10,5 km/h (2 Bft) N-NO 19 ° 1 min 70 W/m² -8,3 °C -9,7 °C 16,1 km/h (3 Bft)
03.02.2026 09:58 21,9 °C -5,2 °C 43 % 79 % 1007,5 hPa 0,0 l/m² 12,0 km/h (2 Bft) O-NO 76 ° 1 min 70 W/m² -8,3 °C -11,0 °C 22,5 km/h (4 Bft)
03.02.2026 09:59 21,9 °C -5,2 °C 43 % 79 % 1007,5 hPa 0,0 l/m² 18,1 km/h (3 Bft) O-NO 77 ° 1 min 72 W/m² -8,3 °C -15,3 °C 27,4 km/h (5 Bft)
03.02.2026 10:01 21,9 °C -5,1 °C 43 % 79 % 1007,5 hPa 0,0 l/m² 14,2 km/h (3 Bft) O-NO 75 ° 2 min 74 W/m² -8,2 °C -12,6 °C 20,9 km/h (4 Bft)
03.02.2026 10:03 21,9 °C -5,2 °C 43 % 79 % 1007,6 hPa 0,0 l/m² 14,1 km/h (3 Bft) NO 40 ° 2 min 72 W/m² -8,3 °C -12,6 °C 22,5 km/h (4 Bft)
03.02.2026 10:04 21,9 °C -5,1 °C 43 % 79 % 1007,6 hPa 0,0 l/m² 12,3 km/h (2 Bft) O-NO 64 ° 1 min 72 W/m² -8,2 °C -11,1 °C 20,9 km/h (4 Bft)
03.02.2026 10:05 21,9 °C -5,1 °C 43 % 79 % 1007,6 hPa 0,0 l/m² 15,0 km/h (3 Bft) NO 49 ° 1 min 70 W/m² -8,2 °C -13,2 °C 22,5 km/h (4 Bft)
03.02.2026 10:06 21,9 °C -5,1 °C 43 % 79 % 1007,6 hPa 0,0 l/m² 14,5 km/h (3 Bft) O 79 ° 1 min 74 W/m² -8,2 °C -12,8 °C 19,3 km/h (3 Bft)
03.02.2026 10:07 21,9 °C -5,1 °C 43 % 79 % 1007,6 hPa 0,0 l/m² 12,5 km/h (2 Bft) O-NO 72 ° 1 min 74 W/m² -8,2 °C -11,3 °C 17,7 km/h (3 Bft)
03.02.2026 10:08 21,9 °C -5,1 °C 43 % 79 % 1007,6 hPa 0,0 l/m² 19,0 km/h (3 Bft) NO 39 ° 1 min 74 W/m² -8,2 °C -15,7 °C 22,5 km/h (4 Bft)
03.02.2026 10:09 21,8 °C -5,1 °C 43 % 79 % 1007,5 hPa 0,0 l/m² 8,1 km/h (2 Bft) NO 49 ° 1 min 74 W/m² -8,2 °C -7,1 °C 14,5 km/h (3 Bft)
03.02.2026 10:11 21,9 °C -5,1 °C 43 % 79 % 1007,6 hPa 0,0 l/m² 13,8 km/h (3 Bft) O-NO 65 ° 2 min 72 W/m² -8,2 °C -12,3 °C 20,9 km/h (4 Bft)
03.02.2026 10:13 21,9 °C -5,1 °C 43 % 79 % 1007,6 hPa 0,0 l/m² 13,1 km/h (3 Bft) O 84 ° 2 min 74 W/m² -8,2 °C -11,8 °C 20,9 km/h (4 Bft)
03.02.2026 10:14 21,9 °C -5,1 °C 43 % 79 % 1007,5 hPa 0,0 l/m² 9,6 km/h (2 Bft) NO 42 ° 1 min 76 W/m² -8,2 °C -8,7 °C 16,1 km/h (3 Bft)
03.02.2026 10:15 21,9 °C -5,1 °C 43 % 79 % 1007,6 hPa 0,0 l/m² 11,7 km/h (2 Bft) NO 49 ° 1 min 76 W/m² -8,2 °C -10,6 °C 17,7 km/h (3 Bft)
03.02.2026 10:16 21,9 °C -5,1 °C 43 % 79 % 1007,5 hPa 0,0 l/m² 13,4 km/h (3 Bft) NO 44 ° 1 min 77 W/m² -8,2 °C -12,0 °C 20,9 km/h (4 Bft)
03.02.2026 10:17 21,9 °C -5,1 °C 43 % 79 % 1007,6 hPa 0,0 l/m² 12,9 km/h (3 Bft) O 85 ° 1 min 79 W/m² -8,2 °C -11,6 °C 17,7 km/h (3 Bft)
03.02.2026 10:18 21,9 °C -5,0 °C 43 % 79 % 1007,6 hPa 0,0 l/m² 17,6 km/h (3 Bft) O 85 ° 1 min 79 W/m² -8,1 °C -14,7 °C 25,7 km/h (4 Bft)
03.02.2026 10:19 21,9 °C -5,0 °C 43 % 79 % 1007,6 hPa 0,0 l/m² 17,5 km/h (3 Bft) O-NO 75 ° 1 min 79 W/m² -8,1 °C -14,7 °C 19,3 km/h (3 Bft)
03.02.2026 10:21 21,9 °C -5,0 °C 43 % 79 % 1007,5 hPa 0,0 l/m² 13,7 km/h (3 Bft) NO 56 ° 2 min 81 W/m² -8,1 °C -12,1 °C 20,9 km/h (4 Bft)
03.02.2026 10:23 21,9 °C -5,0 °C 43 % 79 % 1007,6 hPa 0,0 l/m² 11,6 km/h (2 Bft) O-NO 66 ° 2 min 77 W/m² -8,1 °C -10,4 °C 17,7 km/h (3 Bft)
03.02.2026 10:24 21,9 °C -5,0 °C 43 % 79 % 1007,5 hPa 0,0 l/m² 15,3 km/h (3 Bft) O-NO 78 ° 1 min 77 W/m² -8,1 °C -13,2 °C 17,7 km/h (3 Bft)
03.02.2026 10:25 21,9 °C -4,9 °C 43 % 80 % 1007,6 hPa 0,0 l/m² 9,4 km/h (2 Bft) O-NO 71 ° 1 min 77 W/m² -7,8 °C -8,3 °C 12,9 km/h (3 Bft)
03.02.2026 10:26 21,9 °C -4,9 °C 43 % 79 % 1007,6 hPa 0,0 l/m² 11,1 km/h (2 Bft) O 83 ° 1 min 76 W/m² -8,0 °C -9,9 °C 14,5 km/h (3 Bft)
03.02.2026 10:27 21,9 °C -4,9 °C 43 % 79 % 1007,6 hPa 0,0 l/m² 12,5 km/h (2 Bft) O 86 ° 1 min 76 W/m² -8,0 °C -11,1 °C 16,1 km/h (3 Bft)
03.02.2026 10:28 21,9 °C -5,0 °C 43 % 79 % 1007,6 hPa 0,0 l/m² 14,6 km/h (3 Bft) O 87 ° 1 min 76 W/m² -8,1 °C -12,8 °C 19,3 km/h (3 Bft)
03.02.2026 10:29 21,9 °C -4,9 °C 43 % 79 % 1007,7 hPa 0,0 l/m² 16,3 km/h (3 Bft) O 91 ° 1 min 76 W/m² -8,0 °C -13,8 °C 20,9 km/h (4 Bft)
03.02.2026 10:31 21,9 °C -5,0 °C 43 % 79 % 1007,7 hPa 0,0 l/m² 10,3 km/h (2 Bft) O-NO 63 ° 2 min 76 W/m² -8,1 °C -9,3 °C 19,3 km/h (3 Bft)
03.02.2026 10:33 21,9 °C -5,0 °C 43 % 80 % 1007,7 hPa 0,0 l/m² 7,7 km/h (2 Bft) O 87 ° 2 min 76 W/m² -7,9 °C -6,6 °C 16,1 km/h (3 Bft)
03.02.2026 10:34 21,9 °C -4,9 °C 43 % 80 % 1007,8 hPa 0,0 l/m² 16,0 km/h (3 Bft) O 88 ° 1 min 77 W/m² -7,8 °C -13,6 °C 19,3 km/h (3 Bft)
03.02.2026 10:35 21,9 °C -4,9 °C 43 % 80 % 1007,8 hPa 0,0 l/m² 15,6 km/h (3 Bft) O-NO 73 ° 1 min 74 W/m² -7,8 °C -13,3 °C 20,9 km/h (4 Bft)
03.02.2026 10:36 21,9 °C -5,0 °C 43 % 80 % 1007,8 hPa 0,0 l/m² 9,7 km/h (2 Bft) NO 53 ° 1 min 76 W/m² -7,9 °C -8,7 °C 12,9 km/h (3 Bft)
03.02.2026 10:37 21,9 °C -5,0 °C 43 % 80 % 1007,8 hPa 0,0 l/m² 9,3 km/h (2 Bft) O-NO 72 ° 1 min 76 W/m² -7,9 °C -8,3 °C 14,5 km/h (3 Bft)
03.02.2026 10:38 21,9 °C -4,9 °C 43 % 80 % 1007,8 hPa 0,0 l/m² 9,6 km/h (2 Bft) O 84 ° 1 min 76 W/m² -7,8 °C -8,5 °C 16,1 km/h (3 Bft)
03.02.2026 10:39 21,9 °C -4,9 °C 43 % 80 % 1007,8 hPa 0,0 l/m² 14,6 km/h (3 Bft) O 80 ° 1 min 76 W/m² -7,8 °C -12,6 °C 16,1 km/h (3 Bft)
03.02.2026 10:41 21,9 °C -4,9 °C 43 % 80 % 1007,9 hPa 0,0 l/m² 13,5 km/h (3 Bft) O 82 ° 2 min 77 W/m² -7,8 °C -11,8 °C 19,3 km/h (3 Bft)
03.02.2026 10:43 21,9 °C -5,0 °C 43 % 80 % 1007,9 hPa 0,0 l/m² 17,7 km/h (3 Bft) O 91 ° 2 min 77 W/m² -7,9 °C -14,8 °C 24,1 km/h (4 Bft)
03.02.2026 10:44 21,9 °C -5,0 °C 43 % 80 % 1007,8 hPa 0,0 l/m² 20,1 km/h (4 Bft) O 82 ° 1 min 81 W/m² -7,9 °C -16,1 °C 24,1 km/h (4 Bft)
03.02.2026 10:45 21,9 °C -5,0 °C 43 % 80 % 1007,8 hPa 0,0 l/m² 15,6 km/h (3 Bft) O 80 ° 1 min 86 W/m² -7,9 °C -13,4 °C 20,9 km/h (4 Bft)
03.02.2026 10:46 21,9 °C -5,0 °C 43 % 80 % 1007,7 hPa 0,0 l/m² 16,4 km/h (3 Bft) O-NO 74 ° 1 min 86 W/m² -7,9 °C -14,0 °C 22,5 km/h (4 Bft)
03.02.2026 10:47 21,9 °C -5,0 °C 43 % 80 % 1007,7 hPa 0,0 l/m² 16,9 km/h (3 Bft) O-NO 72 ° 1 min 90 W/m² -7,9 °C -14,3 °C 22,5 km/h (4 Bft)
03.02.2026 10:48 21,9 °C -5,0 °C 43 % 80 % 1007,7 hPa 0,0 l/m² 13,7 km/h (3 Bft) O-NO 76 ° 1 min 88 W/m² -7,9 °C -12,1 °C 19,3 km/h (3 Bft)
03.02.2026 10:49 21,9 °C -5,0 °C 43 % 80 % 1007,7 hPa 0,0 l/m² 15,1 km/h (3 Bft) O-NO 74 ° 1 min 88 W/m² -7,9 °C -13,1 °C 20,9 km/h (4 Bft)
03.02.2026 10:51 21,9 °C -4,9 °C 43 % 80 % 1007,6 hPa 0,0 l/m² 13,8 km/h (3 Bft) O-NO 74 ° 2 min 91 W/m² -7,8 °C -12,1 °C 22,5 km/h (4 Bft)
03.02.2026 10:53 21,9 °C -4,9 °C 43 % 80 % 1007,5 hPa 0,0 l/m² 11,3 km/h (2 Bft) O-NO 67 ° 2 min 98 W/m² -7,8 °C -10,0 °C 16,1 km/h (3 Bft)
03.02.2026 10:54 21,9 °C -4,9 °C 43 % 80 % 1007,5 hPa 0,0 l/m² 11,7 km/h (2 Bft) O 82 ° 1 min 104 W/m² -7,8 °C -10,4 °C 17,7 km/h (3 Bft)
03.02.2026 10:55 21,9 °C -4,9 °C 43 % 80 % 1007,5 hPa 0,0 l/m² 12,0 km/h (2 Bft) O 96 ° 1 min 111 W/m² -7,8 °C -10,6 °C 16,1 km/h (3 Bft)
03.02.2026 10:56 21,9 °C -4,9 °C 43 % 80 % 1007,5 hPa 0,0 l/m² 8,9 km/h (2 Bft) O-NO 78 ° 1 min 111 W/m² -7,8 °C -7,8 °C 12,9 km/h (3 Bft)
03.02.2026 10:57 21,9 °C -4,9 °C 43 % 80 % 1007,5 hPa 0,0 l/m² 3,3 km/h (1 Bft) O-NO 61 ° 1 min 113 W/m² -7,8 °C -4,9 °C 8,0 km/h (2 Bft)
03.02.2026 10:58 21,9 °C -4,9 °C 43 % 80 % 1007,5 hPa 0,0 l/m² 9,7 km/h (2 Bft) O-NO 77 ° 1 min 111 W/m² -7,8 °C -8,6 °C 16,1 km/h (3 Bft)
03.02.2026 10:59 21,9 °C -4,8 °C 43 % 81 % 1007,5 hPa 0,0 l/m² 8,1 km/h (2 Bft) O-NO 78 ° 1 min 109 W/m² -7,5 °C -6,8 °C 16,1 km/h (3 Bft)
03.02.2026 11:01 21,9 °C -4,8 °C 43 % 81 % 1007,4 hPa 0,0 l/m² 9,0 km/h (2 Bft) O-NO 73 ° 2 min 107 W/m² -7,5 °C -7,8 °C 14,5 km/h (3 Bft)
03.02.2026 11:03 21,9 °C -4,8 °C 43 % 80 % 1007,4 hPa 0,0 l/m² 10,8 km/h (2 Bft) O 90 ° 2 min 107 W/m² -7,7 °C -9,5 °C 20,9 km/h (4 Bft)
03.02.2026 11:04 21,9 °C -4,8 °C 43 % 80 % 1007,4 hPa 0,0 l/m² 13,4 km/h (3 Bft) O 87 ° 1 min 107 W/m² -7,7 °C -11,6 °C 25,7 km/h (4 Bft)
03.02.2026 11:05 21,9 °C -4,8 °C 43 % 80 % 1007,4 hPa 0,0 l/m² 17,5 km/h (3 Bft) O 82 ° 1 min 107 W/m² -7,7 °C -14,4 °C 20,9 km/h (4 Bft)
03.02.2026 11:06 21,9 °C -4,7 °C 43 % 80 % 1007,5 hPa 0,0 l/m² 12,3 km/h (2 Bft) O-NO 67 ° 1 min 109 W/m² -7,6 °C -10,7 °C 17,7 km/h (3 Bft)
03.02.2026 11:08 21,9 °C -4,7 °C 43 % 80 % 1007,3 hPa 0,0 l/m² 14,0 km/h (3 Bft) O-NO 62 ° 2 min 109 W/m² -7,6 °C -12,0 °C 20,9 km/h (4 Bft)
03.02.2026 11:09 21,9 °C -4,7 °C 43 % 80 % 1007,2 hPa 0,0 l/m² 15,0 km/h (3 Bft) O 88 ° 1 min 109 W/m² -7,6 °C -12,7 °C 22,5 km/h (4 Bft)
03.02.2026 11:11 21,9 °C -4,7 °C 43 % 80 % 1007,2 hPa 0,0 l/m² 12,0 km/h (2 Bft) NO 54 ° 2 min 114 W/m² -7,6 °C -10,4 °C 20,9 km/h (4 Bft)
03.02.2026 11:13 21,9 °C -4,7 °C 43 % 80 % 1007,2 hPa 0,0 l/m² 12,0 km/h (2 Bft) O-NO 71 ° 2 min 114 W/m² -7,6 °C -10,4 °C 24,1 km/h (4 Bft)
03.02.2026 11:14 21,9 °C -4,7 °C 43 % 80 % 1007,3 hPa 0,0 l/m² 24,4 km/h (4 Bft) O-NO 68 ° 1 min 114 W/m² -7,6 °C -17,8 °C 30,6 km/h (5 Bft)
03.02.2026 11:15 21,9 °C -4,6 °C 43 % 80 % 1007,3 hPa 0,0 l/m² 15,1 km/h (3 Bft) O-NO 66 ° 1 min 114 W/m² -7,5 °C -12,6 °C 17,7 km/h (3 Bft)
03.02.2026 11:16 21,9 °C -4,7 °C 43 % 80 % 1007,1 hPa 0,0 l/m² 16,9 km/h (3 Bft) NO 56 ° 1 min 116 W/m² -7,6 °C -13,9 °C 25,7 km/h (4 Bft)
03.02.2026 11:17 21,9 °C -4,6 °C 43 % 80 % 1007,1 hPa 0,0 l/m² 15,6 km/h (3 Bft) O 84 ° 1 min 114 W/m² -7,5 °C -13,0 °C 20,9 km/h (4 Bft)
03.02.2026 11:18 21,9 °C -4,6 °C 43 % 80 % 1007,1 hPa 0,0 l/m² 16,3 km/h (3 Bft) O-NO 72 ° 1 min 113 W/m² -7,5 °C -13,4 °C 19,3 km/h (3 Bft)
03.02.2026 11:19 21,9 °C -4,6 °C 43 % 80 % 1007,1 hPa 0,0 l/m² 12,9 km/h (3 Bft) O 84 ° 1 min 111 W/m² -7,5 °C -11,0 °C 22,5 km/h (4 Bft)
03.02.2026 11:21 21,9 °C -4,6 °C 43 % 80 % 1007,1 hPa 0,0 l/m² 15,7 km/h (3 Bft) O-NO 78 ° 2 min 107 W/m² -7,5 °C -13,0 °C 24,1 km/h (4 Bft)
03.02.2026 11:23 21,9 °C -4,6 °C 43 % 80 % 1007,1 hPa 0,0 l/m² 16,4 km/h (3 Bft) O-NO 59 ° 2 min 107 W/m² -7,5 °C -13,5 °C 22,5 km/h (4 Bft)
03.02.2026 11:24 21,9 °C -4,6 °C 43 % 80 % 1007,2 hPa 0,0 l/m² 20,6 km/h (4 Bft) O-NO 78 ° 1 min 104 W/m² -7,5 °C -15,9 °C 25,7 km/h (4 Bft)
03.02.2026 11:25 21,9 °C -4,6 °C 43 % 80 % 1007,1 hPa 0,0 l/m² 17,7 km/h (3 Bft) NO 38 ° 1 min 100 W/m² -7,5 °C -14,3 °C 22,5 km/h (4 Bft)
03.02.2026 11:26 21,9 °C -4,6 °C 43 % 80 % 1007,1 hPa 0,0 l/m² 13,6 km/h (3 Bft) O 85 ° 1 min 97 W/m² -7,5 °C -11,6 °C 19,3 km/h (3 Bft)
03.02.2026 11:27 21,9 °C -4,6 °C 43 % 80 % 1007,1 hPa 0,0 l/m² 17,7 km/h (3 Bft) O 81 ° 1 min 93 W/m² -7,5 °C -14,3 °C 24,1 km/h (4 Bft)
03.02.2026 11:28 21,9 °C -4,6 °C 43 % 80 % 1007,1 hPa 0,0 l/m² 17,6 km/h (3 Bft) O-NO 64 ° 1 min 91 W/m² -7,5 °C -14,2 °C 20,9 km/h (4 Bft)
03.02.2026 11:29 21,9 °C -4,6 °C 43 % 80 % 1007,1 hPa 0,0 l/m² 14,4 km/h (3 Bft) O-NO 62 ° 1 min 95 W/m² -7,5 °C -12,1 °C 20,9 km/h (4 Bft)
03.02.2026 11:31 21,9 °C -4,6 °C 43 % 80 % 1007,0 hPa 0,0 l/m² 17,3 km/h (3 Bft) O-NO 75 ° 2 min 97 W/m² -7,5 °C -14,0 °C 24,1 km/h (4 Bft)
03.02.2026 11:33 21,9 °C -4,5 °C 43 % 80 % 1007,0 hPa 0,0 l/m² 19,6 km/h (3 Bft) O 87 ° 2 min 98 W/m² -7,4 °C -15,2 °C 27,4 km/h (5 Bft)
03.02.2026 11:34 21,9 °C -4,6 °C 43 % 81 % 1007,1 hPa 0,0 l/m² 15,9 km/h (3 Bft) O 81 ° 1 min 97 W/m² -7,4 °C -13,2 °C 19,3 km/h (3 Bft)
03.02.2026 11:35 21,9 °C -4,6 °C 43 % 80 % 1007,1 hPa 0,0 l/m² 19,1 km/h (3 Bft) O 89 ° 1 min 98 W/m² -7,5 °C -15,1 °C 22,5 km/h (4 Bft)
03.02.2026 11:36 21,9 °C -4,6 °C 43 % 80 % 1007,1 hPa 0,0 l/m² 15,3 km/h (3 Bft) O-NO 74 ° 1 min 98 W/m² -7,5 °C -12,8 °C 17,7 km/h (3 Bft)
03.02.2026 11:37 21,9 °C -4,5 °C 43 % 81 % 1007,1 hPa 0,0 l/m² 17,8 km/h (3 Bft) O-NO 65 ° 1 min 100 W/m² -7,3 °C -14,2 °C 24,1 km/h (4 Bft)
03.02.2026 11:38 21,9 °C -4,6 °C 43 % 81 % 1007,1 hPa 0,0 l/m² 18,5 km/h (3 Bft) O-NO 70 ° 1 min 104 W/m² -7,4 °C -14,7 °C 20,9 km/h (4 Bft)
03.02.2026 11:39 21,9 °C -4,5 °C 43 % 81 % 1007,1 hPa 0,0 l/m² 14,7 km/h (3 Bft) O 80 ° 1 min 109 W/m² -7,3 °C -12,2 °C 17,7 km/h (3 Bft)
03.02.2026 11:41 21,9 °C -4,5 °C 43 % 81 % 1007,0 hPa 0,0 l/m² 18,1 km/h (3 Bft) O 82 ° 2 min 113 W/m² -7,3 °C -14,4 °C 25,7 km/h (4 Bft)
03.02.2026 11:43 21,9 °C -4,4 °C 43 % 81 % 1007,1 hPa 0,0 l/m² 16,4 km/h (3 Bft) NO 55 ° 2 min 114 W/m² -7,2 °C -13,2 °C 22,5 km/h (4 Bft)
03.02.2026 11:44 21,9 °C -4,4 °C 43 % 81 % 1007,0 hPa 0,0 l/m² 14,4 km/h (3 Bft) O-NO 72 ° 1 min 116 W/m² -7,2 °C -11,9 °C 17,7 km/h (3 Bft)
03.02.2026 11:45 21,9 °C -4,4 °C 43 % 81 % 1007,1 hPa 0,0 l/m² 15,1 km/h (3 Bft) O-SO 107 ° 1 min 118 W/m² -7,2 °C -12,4 °C 24,1 km/h (4 Bft)
03.02.2026 11:46 21,8 °C -4,4 °C 43 % 81 % 1007,0 hPa 0,0 l/m² 12,8 km/h (3 Bft) O-NO 70 ° 1 min 116 W/m² -7,2 °C -10,7 °C 25,7 km/h (4 Bft)
03.02.2026 11:47 21,8 °C -4,4 °C 43 % 81 % 1007,0 hPa 0,0 l/m² 13,2 km/h (3 Bft) O-NO 73 ° 1 min 114 W/m² -7,2 °C -11,0 °C 17,7 km/h (3 Bft)
03.02.2026 11:48 21,8 °C -4,4 °C 43 % 81 % 1007,0 hPa 0,0 l/m² 12,6 km/h (3 Bft) N-NO 25 ° 1 min 116 W/m² -7,2 °C -10,6 °C 17,7 km/h (3 Bft)
03.02.2026 11:49 21,9 °C -4,4 °C 43 % 81 % 1006,9 hPa 0,0 l/m² 13,4 km/h (3 Bft) O-NO 76 ° 1 min 116 W/m² -7,2 °C -11,2 °C 22,5 km/h (4 Bft)
03.02.2026 11:51 21,9 °C -4,3 °C 43 % 81 % 1006,9 hPa 0,0 l/m² 18,7 km/h (3 Bft) O-NO 57 ° 2 min 116 W/m² -7,1 °C -14,5 °C 27,4 km/h (5 Bft)
03.02.2026 11:53 21,9 °C -4,3 °C 43 % 81 % 1006,9 hPa 0,0 l/m² 13,8 km/h (3 Bft) NO 49 ° 2 min 120 W/m² -7,1 °C -11,3 °C 24,1 km/h (4 Bft)
03.02.2026 11:54 21,8 °C -4,3 °C 43 % 81 % 1006,9 hPa 0,0 l/m² 16,3 km/h (3 Bft) O 80 ° 1 min 120 W/m² -7,1 °C -13,0 °C 20,9 km/h (4 Bft)
03.02.2026 11:55 21,9 °C -4,3 °C 43 % 81 % 1006,9 hPa 0,0 l/m² 9,5 km/h (2 Bft) O-NO 71 ° 1 min 121 W/m² -7,1 °C -7,7 °C 17,7 km/h (3 Bft)
03.02.2026 11:56 21,9 °C -4,3 °C 43 % 81 % 1006,9 hPa 0,0 l/m² 19,9 km/h (4 Bft) O-NO 77 ° 1 min 125 W/m² -7,1 °C -15,1 °C 25,7 km/h (4 Bft)
03.02.2026 11:57 21,9 °C -4,3 °C 43 % 81 % 1006,8 hPa 0,0 l/m² 21,2 km/h (4 Bft) O 93 ° 1 min 125 W/m² -7,1 °C -15,8 °C 25,7 km/h (4 Bft)
03.02.2026 11:58 21,9 °C -4,3 °C 43 % 81 % 1006,8 hPa 0,0 l/m² 25,0 km/h (4 Bft) O-NO 70 ° 1 min 125 W/m² -7,1 °C -17,5 °C 33,8 km/h (5 Bft)
03.02.2026 11:59 21,9 °C -4,3 °C 43 % 81 % 1006,8 hPa 0,0 l/m² 20,9 km/h (4 Bft) O-NO 76 ° 1 min 125 W/m² -7,1 °C -15,7 °C 35,4 km/h (5 Bft)
03.02.2026 12:00 21,8 °C -4,3 °C 43 % 81 % 1006,7 hPa 0,0 l/m² 17,7 km/h (3 Bft) O-NO 67 ° 1 min 125 W/m² -7,1 °C -13,9 °C 25,7 km/h (4 Bft)
03.02.2026 12:06 21,8 °C -4,3 °C 43 % 81 % 1006,8 hPa 0,0 l/m² 13,0 km/h (3 Bft) O-NO 76 ° 6 min 134 W/m² -7,1 °C -10,7 °C 20,9 km/h (4 Bft)
03.02.2026 12:07 21,9 °C -4,3 °C 43 % 81 % 1006,8 hPa 0,0 l/m² 11,5 km/h (2 Bft) O 89 ° 1 min 134 W/m² -7,1 °C -9,5 °C 16,1 km/h (3 Bft)
03.02.2026 12:08 21,9 °C -4,3 °C 43 % 81 % 1006,8 hPa 0,0 l/m² 18,3 km/h (3 Bft) O 81 ° 1 min 137 W/m² -7,1 °C -14,3 °C 32,2 km/h (5 Bft)
03.02.2026 12:10 21,9 °C -4,3 °C 43 % 81 % 1006,7 hPa 0,0 l/m² 18,1 km/h (3 Bft) O-NO 70 ° 2 min 134 W/m² -7,1 °C -14,1 °C 25,7 km/h (4 Bft)
03.02.2026 12:12 21,8 °C -4,3 °C 43 % 81 % 1006,7 hPa 0,0 l/m² 17,5 km/h (3 Bft) O 86 ° 2 min 132 W/m² -7,1 °C -13,8 °C 29,0 km/h (5 Bft)
03.02.2026 12:13 21,8 °C -4,2 °C 43 % 81 % 1006,7 hPa 0,0 l/m² 19,5 km/h (3 Bft) O 84 ° 1 min 128 W/m² -7,0 °C -14,8 °C 25,7 km/h (4 Bft)
03.02.2026 12:15 21,8 °C -4,2 °C 43 % 80 % 1006,7 hPa 0,0 l/m² 22,8 km/h (4 Bft) NO 48 ° 2 min 132 W/m² -7,1 °C -16,4 °C 33,8 km/h (5 Bft)
03.02.2026 12:17 21,8 °C -4,2 °C 43 % 80 % 1006,8 hPa 0,0 l/m² 17,4 km/h (3 Bft) O-NO 76 ° 2 min 132 W/m² -7,1 °C -13,6 °C 27,4 km/h (5 Bft)
03.02.2026 12:19 21,8 °C -4,2 °C 43 % 80 % 1006,8 hPa 0,0 l/m² 18,8 km/h (3 Bft) O-NO 63 ° 2 min 134 W/m² -7,1 °C -14,4 °C 29,0 km/h (5 Bft)
03.02.2026 12:21 21,8 °C -4,2 °C 43 % 81 % 1006,8 hPa 0,0 l/m² 12,7 km/h (3 Bft) O 88 ° 2 min 132 W/m² -7,0 °C -10,4 °C 22,5 km/h (4 Bft)
03.02.2026 12:22 21,8 °C -4,2 °C 43 % 81 % 1006,8 hPa 0,0 l/m² 20,7 km/h (4 Bft) O 80 ° 1 min 134 W/m² -7,0 °C -15,4 °C 25,7 km/h (4 Bft)
03.02.2026 12:23 21,8 °C -4,1 °C 43 % 81 % 1006,7 hPa 0,0 l/m² 11,9 km/h (2 Bft) NO 35 ° 1 min 134 W/m² -6,9 °C -9,6 °C 19,3 km/h (3 Bft)
03.02.2026 12:25 21,8 °C -4,1 °C 43 % 81 % 1006,8 hPa 0,0 l/m² 14,3 km/h (3 Bft) NO 36 ° 2 min 128 W/m² -6,9 °C -11,5 °C 25,7 km/h (4 Bft)
03.02.2026 12:27 21,8 °C -4,1 °C 43 % 81 % 1006,8 hPa 0,0 l/m² 14,9 km/h (3 Bft) NO 51 ° 2 min 125 W/m² -6,9 °C -11,9 °C 24,1 km/h (4 Bft)
03.02.2026 12:29 21,8 °C -4,1 °C 43 % 81 % 1006,9 hPa 0,0 l/m² 12,8 km/h (3 Bft) O-NO 78 ° 2 min 125 W/m² -6,9 °C -10,4 °C 22,5 km/h (4 Bft)
03.02.2026 12:31 21,8 °C -4,1 °C 43 % 81 % 1006,8 hPa 0,0 l/m² 14,2 km/h (3 Bft) O-NO 63 ° 2 min 125 W/m² -6,9 °C -11,4 °C 22,5 km/h (4 Bft)
03.02.2026 12:32 21,8 °C -4,1 °C 43 % 81 % 1006,8 hPa 0,0 l/m² 16,6 km/h (3 Bft) O-NO 65 ° 1 min 128 W/m² -6,9 °C -13,0 °C 25,7 km/h (4 Bft)
03.02.2026 12:33 21,8 °C -4,0 °C 43 % 81 % 1006,7 hPa 0,0 l/m² 10,1 km/h (2 Bft) O-NO 61 ° 1 min 127 W/m² -6,8 °C -8,0 °C 16,1 km/h (3 Bft)
03.02.2026 12:35 21,8 °C -4,0 °C 43 % 81 % 1006,7 hPa 0,0 l/m² 14,7 km/h (3 Bft) O-NO 62 ° 2 min 128 W/m² -6,8 °C -11,6 °C 25,7 km/h (4 Bft)
03.02.2026 12:37 21,8 °C -4,0 °C 43 % 80 % 1006,8 hPa 0,0 l/m² 18,8 km/h (3 Bft) O-NO 73 ° 2 min 128 W/m² -6,9 °C -14,2 °C 25,7 km/h (4 Bft)
03.02.2026 12:39 21,8 °C -4,0 °C 43 % 80 % 1006,6 hPa 0,0 l/m² 19,9 km/h (4 Bft) O-NO 65 ° 2 min 123 W/m² -6,9 °C -14,7 °C 27,4 km/h (5 Bft)
03.02.2026 12:41 21,8 °C -4,0 °C 43 % 80 % 1006,7 hPa 0,0 l/m² 17,8 km/h (3 Bft) O-NO 71 ° 2 min 125 W/m² -6,9 °C -13,6 °C 27,4 km/h (5 Bft)
03.02.2026 12:42 21,8 °C -4,0 °C 43 % 80 % 1006,7 hPa 0,0 l/m² 17,4 km/h (3 Bft) NO 47 ° 1 min 123 W/m² -6,9 °C -13,3 °C 22,5 km/h (4 Bft)
03.02.2026 12:43 21,8 °C -4,0 °C 43 % 80 % 1006,7 hPa 0,0 l/m² 14,3 km/h (3 Bft) O-NO 64 ° 1 min 118 W/m² -6,9 °C -11,3 °C 20,9 km/h (4 Bft)
03.02.2026 12:46 21,8 °C -3,9 °C 43 % 80 % 1006,7 hPa 0,0 l/m² 18,4 km/h (3 Bft) O-NO 65 ° 3 min 111 W/m² -6,8 °C -13,8 °C 27,4 km/h (5 Bft)
03.02.2026 12:48 21,8 °C -3,9 °C 43 % 80 % 1006,9 hPa 0,0 l/m² 17,1 km/h (3 Bft) O-NO 72 ° 2 min 107 W/m² -6,8 °C -13,0 °C 20,9 km/h (4 Bft)
03.02.2026 12:50 21,8 °C -3,9 °C 43 % 80 % 1006,7 hPa 0,0 l/m² 14,7 km/h (3 Bft) O-NO 75 ° 2 min 109 W/m² -6,8 °C -11,5 °C 29,0 km/h (5 Bft)
03.02.2026 12:52 21,8 °C -3,9 °C 43 % 80 % 1006,7 hPa 0,0 l/m² 21,1 km/h (4 Bft) O 84 ° 2 min 109 W/m² -6,8 °C -15,2 °C 30,6 km/h (5 Bft)
03.02.2026 12:53 21,8 °C -3,9 °C 43 % 80 % 1006,7 hPa 0,0 l/m² 19,0 km/h (3 Bft) O 87 ° 1 min 111 W/m² -6,8 °C -14,1 °C 24,1 km/h (4 Bft)
03.02.2026 12:54 21,8 °C -3,9 °C 43 % 80 % 1006,7 hPa 0,0 l/m² 15,4 km/h (3 Bft) O-NO 78 ° 1 min 113 W/m² -6,8 °C -12,0 °C 22,5 km/h (4 Bft)
03.02.2026 12:56 21,8 °C -3,9 °C 43 % 80 % 1006,7 hPa 0,0 l/m² 15,2 km/h (3 Bft) O-NO 74 ° 2 min 114 W/m² -6,8 °C -11,8 °C 27,4 km/h (5 Bft)
03.02.2026 12:58 21,8 °C -3,9 °C 43 % 80 % 1006,7 hPa 0,0 l/m² 13,4 km/h (3 Bft) O-NO 69 ° 2 min 114 W/m² -6,8 °C -10,6 °C 24,1 km/h (4 Bft)
03.02.2026 13:00 21,8 °C -3,9 °C 43 % 80 % 1006,8 hPa 0,0 l/m² 17,2 km/h (3 Bft) NO 40 ° 2 min 116 W/m² -6,8 °C -13,1 °C 27,4 km/h (5 Bft)
03.02.2026 13:02 21,8 °C -3,9 °C 43 % 80 % 1006,8 hPa 0,0 l/m² 14,9 km/h (3 Bft) O-NO 64 ° 2 min 111 W/m² -6,8 °C -11,6 °C 22,5 km/h (4 Bft)
03.02.2026 13:03 21,8 °C -3,9 °C 43 % 80 % 1006,8 hPa 0,0 l/m² 18,6 km/h (3 Bft) O-NO 62 ° 1 min 111 W/m² -6,8 °C -13,9 °C 22,5 km/h (4 Bft)
03.02.2026 13:05 21,8 °C -3,8 °C 43 % 80 % 1006,7 hPa 0,0 l/m² 15,7 km/h (3 Bft) O-NO 78 ° 2 min 111 W/m² -6,7 °C -12,0 °C 22,5 km/h (4 Bft)
03.02.2026 13:07 21,8 °C -3,9 °C 43 % 80 % 1006,7 hPa 0,0 l/m² 17,9 km/h (3 Bft) O-NO 66 ° 2 min 118 W/m² -6,8 °C -13,5 °C 25,7 km/h (4 Bft)
03.02.2026 13:09 21,8 °C -3,8 °C 43 % 80 % 1006,6 hPa 0,0 l/m² 15,8 km/h (3 Bft) O 80 ° 2 min 123 W/m² -6,7 °C -12,1 °C 29,0 km/h (5 Bft)
03.02.2026 13:11 21,8 °C -3,8 °C 43 % 80 % 1006,6 hPa 0,0 l/m² 14,8 km/h (3 Bft) NO 49 ° 2 min 125 W/m² -6,7 °C -11,4 °C 25,7 km/h (4 Bft)
03.02.2026 13:12 21,8 °C -3,8 °C 43 % 80 % 1006,6 hPa 0,0 l/m² 24,1 km/h (4 Bft) O-NO 76 ° 1 min 127 W/m² -6,7 °C -16,5 °C 32,2 km/h (5 Bft)
03.02.2026 13:13 21,8 °C -3,8 °C 43 % 80 % 1006,6 hPa 0,0 l/m² 23,4 km/h (4 Bft) O-NO 71 ° 1 min 123 W/m² -6,7 °C -16,2 °C 27,4 km/h (5 Bft)
03.02.2026 13:15 21,8 °C -3,8 °C 43 % 80 % 1006,6 hPa 0,0 l/m² 14,2 km/h (3 Bft) O-NO 60 ° 2 min 120 W/m² -6,7 °C -11,0 °C 22,5 km/h (4 Bft)
03.02.2026 13:17 21,8 °C -3,8 °C 43 % 80 % 1006,6 hPa 0,0 l/m² 12,1 km/h (2 Bft) O-NO 67 ° 2 min 120 W/m² -6,7 °C -9,5 °C 19,3 km/h (3 Bft)
03.02.2026 13:19 21,8 °C -3,8 °C 43 % 80 % 1006,7 hPa 0,0 l/m² 10,2 km/h (2 Bft) O-NO 58 ° 2 min 120 W/m² -6,7 °C -7,8 °C 17,7 km/h (3 Bft)
03.02.2026 13:21 21,8 °C -3,8 °C 43 % 80 % 1006,6 hPa 0,0 l/m² 10,0 km/h (2 Bft) O-NO 57 ° 2 min 125 W/m² -6,7 °C -7,6 °C 19,3 km/h (3 Bft)
03.02.2026 13:22 21,8 °C -3,7 °C 43 % 80 % 1006,6 hPa 0,0 l/m² 5,2 km/h (1 Bft) NO 51 ° 1 min 125 W/m² -6,6 °C -3,7 °C 8,0 km/h (2 Bft)
03.02.2026 13:23 21,9 °C -3,7 °C 43 % 80 % 1006,6 hPa 0,0 l/m² 14,8 km/h (3 Bft) O-NO 63 ° 1 min 127 W/m² -6,6 °C -11,3 °C 19,3 km/h (3 Bft)
03.02.2026 13:25 21,8 °C -3,7 °C 43 % 80 % 1006,6 hPa 0,0 l/m² 14,2 km/h (3 Bft) O-NO 62 ° 2 min 127 W/m² -6,6 °C -10,9 °C 22,5 km/h (4 Bft)
03.02.2026 13:27 21,8 °C -3,7 °C 43 % 80 % 1006,6 hPa 0,0 l/m² 14,5 km/h (3 Bft) O-NO 74 ° 2 min 127 W/m² -6,6 °C -11,1 °C 19,3 km/h (3 Bft)
03.02.2026 13:29 21,8 °C -3,6 °C 43 % 80 % 1006,7 hPa 0,0 l/m² 12,5 km/h (2 Bft) O-NO 66 ° 2 min 128 W/m² -6,5 °C -9,5 °C 19,3 km/h (3 Bft)
03.02.2026 13:31 21,8 °C -3,6 °C 43 % 80 % 1006,6 hPa 0,0 l/m² 10,4 km/h (2 Bft) O 101 ° 2 min 123 W/m² -6,5 °C -7,8 °C 20,9 km/h (4 Bft)
03.02.2026 13:32 21,8 °C -3,6 °C 43 % 80 % 1006,6 hPa 0,0 l/m² 13,0 km/h (3 Bft) NO 43 ° 1 min 121 W/m² -6,5 °C -9,9 °C 19,3 km/h (3 Bft)
03.02.2026 13:33 21,8 °C -3,6 °C 43 % 80 % 1006,5 hPa 0,0 l/m² 9,9 km/h (2 Bft) NO 42 ° 1 min 121 W/m² -6,5 °C -7,3 °C 19,3 km/h (3 Bft)
03.02.2026 13:35 21,8 °C -3,5 °C 43 % 80 % 1006,6 hPa 0,0 l/m² 14,7 km/h (3 Bft) O 83 ° 2 min 118 W/m² -6,4 °C -11,0 °C 24,1 km/h (4 Bft)
03.02.2026 13:37 21,8 °C -3,6 °C 43 % 79 % 1006,5 hPa 0,0 l/m² 15,3 km/h (3 Bft) O 83 ° 2 min 116 W/m² -6,7 °C -11,5 °C 24,1 km/h (4 Bft)
03.02.2026 13:39 21,9 °C -3,5 °C 43 % 79 % 1006,5 hPa 0,0 l/m² 13,9 km/h (3 Bft) O 81 ° 2 min 114 W/m² -6,6 °C -10,5 °C 29,0 km/h (5 Bft)
03.02.2026 13:41 21,9 °C -3,6 °C 43 % 79 % 1006,5 hPa 0,0 l/m² 15,3 km/h (3 Bft) NO 51 ° 2 min 113 W/m² -6,7 °C -11,5 °C 22,5 km/h (4 Bft)
03.02.2026 13:42 21,9 °C -3,5 °C 43 % 79 % 1006,5 hPa 0,0 l/m² 13,4 km/h (3 Bft) O 85 ° 1 min 111 W/m² -6,6 °C -10,1 °C 20,9 km/h (4 Bft)
03.02.2026 13:43 21,8 °C -3,6 °C 43 % 79 % 1006,6 hPa 0,0 l/m² 11,8 km/h (2 Bft) NO 48 ° 1 min 109 W/m² -6,7 °C -9,0 °C 19,3 km/h (3 Bft)
03.02.2026 13:45 21,8 °C -3,5 °C 43 % 79 % 1006,5 hPa 0,0 l/m² 10,4 km/h (2 Bft) O 89 ° 2 min 105 W/m² -6,6 °C -7,7 °C 19,3 km/h (3 Bft)
03.02.2026 13:47 21,9 °C -3,5 °C 43 % 79 % 1006,5 hPa 0,0 l/m² 21,7 km/h (4 Bft) O-NO 67 ° 2 min 105 W/m² -6,6 °C -15,0 °C 32,2 km/h (5 Bft)
03.02.2026 13:49 21,8 °C -3,5 °C 43 % 79 % 1006,6 hPa 0,0 l/m² 9,9 km/h (2 Bft) NO 54 ° 2 min 105 W/m² -6,6 °C -7,2 °C 19,3 km/h (3 Bft)
03.02.2026 13:51 21,8 °C -3,5 °C 43 % 79 % 1006,6 hPa 0,0 l/m² 8,7 km/h (2 Bft) O-NO 60 ° 2 min 104 W/m² -6,6 °C -6,1 °C 16,1 km/h (3 Bft)
03.02.2026 13:52 21,8 °C -3,5 °C 43 % 79 % 1006,6 hPa 0,0 l/m² 14,3 km/h (3 Bft) O-NO 63 ° 1 min 102 W/m² -6,6 °C -10,7 °C 22,5 km/h (4 Bft)
03.02.2026 13:53 21,9 °C -3,5 °C 43 % 79 % 1006,6 hPa 0,0 l/m² 16,1 km/h (3 Bft) O-NO 58 ° 1 min 104 W/m² -6,6 °C -11,9 °C 25,7 km/h (4 Bft)
03.02.2026 13:55 21,9 °C -3,5 °C 43 % 79 % 1006,6 hPa 0,0 l/m² 13,3 km/h (3 Bft) O-NO 71 ° 2 min 102 W/m² -6,6 °C -10,0 °C 20,9 km/h (4 Bft)
03.02.2026 13:57 21,9 °C -3,4 °C 43 % 79 % 1006,5 hPa 0,0 l/m² 14,8 km/h (3 Bft) O 84 ° 2 min 100 W/m² -6,5 °C -11,0 °C 20,9 km/h (4 Bft)
03.02.2026 13:59 21,9 °C -3,5 °C 43 % 79 % 1006,6 hPa 0,0 l/m² 17,4 km/h (3 Bft) O-NO 69 ° 2 min 95 W/m² -6,6 °C -12,7 °C 25,7 km/h (4 Bft)
03.02.2026 14:01 21,9 °C -3,5 °C 43 % 79 % 1006,7 hPa 0,0 l/m² 15,4 km/h (3 Bft) O-NO 72 ° 2 min 93 W/m² -6,6 °C -11,5 °C 24,1 km/h (4 Bft)
03.02.2026 14:02 21,9 °C -3,4 °C 43 % 79 % 1006,7 hPa 0,0 l/m² 16,2 km/h (3 Bft) O-NO 74 ° 1 min 93 W/m² -6,5 °C -11,9 °C 19,3 km/h (3 Bft)
03.02.2026 14:03 21,9 °C -3,5 °C 43 % 79 % 1006,7 hPa 0,0 l/m² 10,5 km/h (2 Bft) O-NO 78 ° 1 min 91 W/m² -6,6 °C -7,8 °C 16,1 km/h (3 Bft)
03.02.2026 14:05 21,9 °C -3,5 °C 43 % 79 % 1006,7 hPa 0,0 l/m² 7,3 km/h (2 Bft) O-NO 67 ° 2 min 91 W/m² -6,6 °C -4,5 °C 17,7 km/h (3 Bft)
03.02.2026 14:07 21,9 °C -3,5 °C 43 % 79 % 1006,7 hPa 0,0 l/m² 10,1 km/h (2 Bft) O-NO 70 ° 2 min 91 W/m² -6,6 °C -7,4 °C 17,7 km/h (3 Bft)
03.02.2026 14:09 21,9 °C -3,4 °C 43 % 79 % 1006,6 hPa 0,0 l/m² 16,1 km/h (3 Bft) O-NO 70 ° 2 min 93 W/m² -6,5 °C -11,8 °C 24,1 km/h (4 Bft)
03.02.2026 14:11 21,9 °C -3,4 °C 43 % 79 % 1006,6 hPa 0,0 l/m² 16,0 km/h (3 Bft) O 85 ° 2 min 91 W/m² -6,5 °C -11,7 °C 30,6 km/h (5 Bft)
03.02.2026 14:12 21,9 °C -3,4 °C 43 % 79 % 1006,6 hPa 0,0 l/m² 7,0 km/h (2 Bft) O-NO 76 ° 1 min 91 W/m² -6,5 °C -4,1 °C 9,7 km/h (2 Bft)
03.02.2026 14:13 21,9 °C -3,4 °C 43 % 79 % 1006,5 hPa 0,0 l/m² 14,7 km/h (3 Bft) O-NO 65 ° 1 min 91 W/m² -6,5 °C -10,9 °C 17,7 km/h (3 Bft)
03.02.2026 14:15 21,9 °C -3,4 °C 43 % 79 % 1006,5 hPa 0,0 l/m² 15,7 km/h (3 Bft) O-NO 74 ° 2 min 91 W/m² -6,5 °C -11,6 °C 24,1 km/h (4 Bft)
03.02.2026 14:17 21,9 °C -3,4 °C 43 % 79 % 1006,5 hPa 0,0 l/m² 10,6 km/h (2 Bft) N-NO 30 ° 2 min 91 W/m² -6,5 °C -7,7 °C 17,7 km/h (3 Bft)
03.02.2026 14:19 21,9 °C -3,4 °C 43 % 79 % 1006,5 hPa 0,0 l/m² 14,8 km/h (3 Bft) O-NO 76 ° 2 min 95 W/m² -6,5 °C -11,0 °C 22,5 km/h (4 Bft)
03.02.2026 14:21 21,9 °C -3,4 °C 43 % 79 % 1006,5 hPa 0,0 l/m² 16,4 km/h (3 Bft) O 79 ° 2 min 95 W/m² -6,5 °C -12,0 °C 27,4 km/h (5 Bft)
03.02.2026 14:22 21,9 °C -3,4 °C 43 % 79 % 1006,5 hPa 0,0 l/m² 17,6 km/h (3 Bft) O 82 ° 1 min 95 W/m² -6,5 °C -12,7 °C 27,4 km/h (5 Bft)
03.02.2026 14:23 21,9 °C -3,4 °C 43 % 79 % 1006,5 hPa 0,0 l/m² 10,9 km/h (2 Bft) NO 51 ° 1 min 95 W/m² -6,5 °C -8,0 °C 19,3 km/h (3 Bft)
03.02.2026 14:25 21,9 °C -3,4 °C 43 % 79 % 1006,5 hPa 0,0 l/m² 11,4 km/h (2 Bft) NO 48 ° 2 min 91 W/m² -6,5 °C -8,4 °C 17,7 km/h (3 Bft)
03.02.2026 14:27 21,9 °C -3,3 °C 43 % 79 % 1006,4 hPa 0,0 l/m² 14,7 km/h (3 Bft) O-NO 59 ° 2 min 91 W/m² -6,4 °C -10,8 °C 22,5 km/h (4 Bft)
03.02.2026 14:29 21,9 °C -3,3 °C 43 % 79 % 1006,4 hPa 0,0 l/m² 9,7 km/h (2 Bft) NO 52 ° 2 min 88 W/m² -6,4 °C -6,8 °C 17,7 km/h (3 Bft)
03.02.2026 14:31 21,9 °C -3,3 °C 43 % 79 % 1006,4 hPa 0,0 l/m² 14,4 km/h (3 Bft) O-NO 69 ° 2 min 86 W/m² -6,4 °C -10,6 °C 22,5 km/h (4 Bft)
03.02.2026 14:32 21,9 °C -3,3 °C 43 % 79 % 1006,4 hPa 0,0 l/m² 11,1 km/h (2 Bft) O-NO 65 ° 1 min 86 W/m² -6,4 °C -8,1 °C 17,7 km/h (3 Bft)
03.02.2026 14:33 21,9 °C -3,3 °C 43 % 79 % 1006,4 hPa 0,0 l/m² 13,2 km/h (3 Bft) NO 53 ° 1 min 90 W/m² -6,4 °C -9,7 °C 17,7 km/h (3 Bft)
03.02.2026 14:35 21,9 °C -3,3 °C 43 % 79 % 1006,3 hPa 0,0 l/m² 14,7 km/h (3 Bft) O-NO 68 ° 2 min 88 W/m² -6,4 °C -10,8 °C 25,7 km/h (4 Bft)
03.02.2026 14:37 21,9 °C -3,3 °C 43 % 79 % 1006,3 hPa 0,0 l/m² 12,9 km/h (3 Bft) O-NO 69 ° 2 min 84 W/m² -6,4 °C -9,5 °C 22,5 km/h (4 Bft)
03.02.2026 14:39 21,9 °C -3,3 °C 43 % 79 % 1006,3 hPa 0,0 l/m² 15,6 km/h (3 Bft) NO 53 ° 2 min 83 W/m² -6,4 °C -11,4 °C 20,9 km/h (4 Bft)
03.02.2026 14:41 21,9 °C -3,3 °C 43 % 79 % 1006,4 hPa 0,0 l/m² 14,2 km/h (3 Bft) O-NO 57 ° 2 min 81 W/m² -6,4 °C -10,4 °C 24,1 km/h (4 Bft)
03.02.2026 14:42 22,0 °C -3,3 °C 43 % 79 % 1006,4 hPa 0,0 l/m² 9,2 km/h (2 Bft) O-NO 69 ° 1 min 81 W/m² -6,4 °C -6,3 °C 20,9 km/h (4 Bft)
03.02.2026 14:43 22,0 °C -3,3 °C 43 % 79 % 1006,4 hPa 0,0 l/m² 13,1 km/h (3 Bft) O-NO 62 ° 1 min 81 W/m² -6,4 °C -9,6 °C 22,5 km/h (4 Bft)
03.02.2026 14:45 22,0 °C -3,3 °C 43 % 79 % 1006,4 hPa 0,0 l/m² 9,8 km/h (2 Bft) NO 51 ° 2 min 79 W/m² -6,4 °C -6,9 °C 19,3 km/h (3 Bft)
03.02.2026 14:47 22,0 °C -3,3 °C 43 % 79 % 1006,4 hPa 0,0 l/m² 14,7 km/h (3 Bft) NO 54 ° 2 min 74 W/m² -6,4 °C -10,8 °C 22,5 km/h (4 Bft)
03.02.2026 14:49 21,9 °C -3,2 °C 43 % 79 % 1006,3 hPa 0,0 l/m² 16,8 km/h (3 Bft) NO 50 ° 2 min 74 W/m² -6,3 °C -12,0 °C 25,7 km/h (4 Bft)
03.02.2026 14:51 21,9 °C -3,3 °C 43 % 79 % 1006,4 hPa 0,0 l/m² 11,7 km/h (2 Bft) NO 48 ° 2 min 74 W/m² -6,4 °C -8,6 °C 20,9 km/h (4 Bft)
03.02.2026 14:52 21,9 °C -3,3 °C 43 % 79 % 1006,4 hPa 0,0 l/m² 16,9 km/h (3 Bft) NO 52 ° 1 min 74 W/m² -6,4 °C -12,2 °C 20,9 km/h (4 Bft)
03.02.2026 14:53 21,9 °C -3,3 °C 43 % 79 % 1006,4 hPa 0,0 l/m² 16,2 km/h (3 Bft) NO 50 ° 1 min 70 W/m² -6,4 °C -11,7 °C 22,5 km/h (4 Bft)
03.02.2026 14:55 21,9 °C -3,3 °C 43 % 79 % 1006,4 hPa 0,0 l/m² 17,5 km/h (3 Bft) NO 54 ° 2 min 70 W/m² -6,4 °C -12,5 °C 25,7 km/h (4 Bft)
03.02.2026 14:57 22,0 °C -3,3 °C 43 % 79 % 1006,3 hPa 0,0 l/m² 17,6 km/h (3 Bft) NO 46 ° 2 min 69 W/m² -6,4 °C -12,6 °C 25,7 km/h (4 Bft)
03.02.2026 14:59 21,9 °C -3,3 °C 43 % 79 % 1006,4 hPa 0,0 l/m² 16,2 km/h (3 Bft) NO 46 ° 2 min 70 W/m² -6,4 °C -11,7 °C 24,1 km/h (4 Bft)
03.02.2026 15:01 22,0 °C -3,3 °C 43 % 79 % 1006,4 hPa 0,0 l/m² 17,3 km/h (3 Bft) O 85 ° 2 min 70 W/m² -6,4 °C -12,4 °C 25,7 km/h (4 Bft)
03.02.2026 15:02 22,0 °C -3,3 °C 43 % 79 % 1006,4 hPa 0,0 l/m² 10,9 km/h (2 Bft) O 98 ° 1 min 70 W/m² -6,4 °C -7,9 °C 14,5 km/h (3 Bft)
03.02.2026 15:03 21,9 °C -3,3 °C 43 % 79 % 1006,4 hPa 0,0 l/m² 8,0 km/h (2 Bft) O-NO 66 ° 1 min 70 W/m² -6,4 °C -5,1 °C 16,1 km/h (3 Bft)
03.02.2026 15:05 21,9 °C -3,3 °C 43 % 79 % 1006,4 hPa 0,0 l/m² 12,4 km/h (2 Bft) NO 44 ° 2 min 67 W/m² -6,4 °C -9,1 °C 19,3 km/h (3 Bft)
03.02.2026 15:07 21,9 °C -3,3 °C 43 % 79 % 1006,4 hPa 0,0 l/m² 12,0 km/h (2 Bft) O 79 ° 2 min 67 W/m² -6,4 °C -8,8 °C 22,5 km/h (4 Bft)
03.02.2026 15:09 22,0 °C -3,3 °C 43 % 79 % 1006,5 hPa 0,0 l/m² 15,1 km/h (3 Bft) NO 50 ° 2 min 69 W/m² -6,4 °C -11,0 °C 25,7 km/h (4 Bft)
03.02.2026 15:11 21,9 °C -3,3 °C 43 % 79 % 1006,5 hPa 0,0 l/m² 12,6 km/h (3 Bft) O-NO 61 ° 2 min 65 W/m² -6,4 °C -9,3 °C 19,3 km/h (3 Bft)
03.02.2026 15:12 21,9 °C -3,3 °C 43 % 79 % 1006,5 hPa 0,0 l/m² 9,3 km/h (2 Bft) O-NO 67 ° 1 min 65 W/m² -6,4 °C -6,4 °C 17,7 km/h (3 Bft)
03.02.2026 15:13 21,9 °C -3,2 °C 43 % 79 % 1006,5 hPa 0,0 l/m² 6,4 km/h (2 Bft) O-NO 68 ° 1 min 67 W/m² -6,3 °C -3,2 °C 9,7 km/h (2 Bft)
03.02.2026 15:15 21,9 °C -3,3 °C 43 % 79 % 1006,4 hPa 0,0 l/m² 15,2 km/h (3 Bft) NO 52 ° 2 min 67 W/m² -6,4 °C -11,1 °C 22,5 km/h (4 Bft)
03.02.2026 15:17 21,9 °C -3,2 °C 43 % 79 % 1006,3 hPa 0,0 l/m² 15,3 km/h (3 Bft) O 84 ° 2 min 63 W/m² -6,3 °C -11,1 °C 22,5 km/h (4 Bft)
03.02.2026 15:19 21,9 °C -3,3 °C 43 % 79 % 1006,4 hPa 0,0 l/m² 12,8 km/h (3 Bft) NO 53 ° 2 min 60 W/m² -6,4 °C -9,4 °C 24,1 km/h (4 Bft)
03.02.2026 15:21 21,9 °C -3,2 °C 43 % 79 % 1006,4 hPa 0,0 l/m² 17,1 km/h (3 Bft) O-NO 61 ° 2 min 58 W/m² -6,3 °C -12,2 °C 24,1 km/h (4 Bft)
03.02.2026 15:22 21,9 °C -3,3 °C 43 % 79 % 1006,4 hPa 0,0 l/m² 15,5 km/h (3 Bft) O 92 ° 1 min 56 W/m² -6,4 °C -11,3 °C 22,5 km/h (4 Bft)
03.02.2026 15:23 21,9 °C -3,2 °C 43 % 79 % 1006,2 hPa 0,0 l/m² 14,7 km/h (3 Bft) NO 43 ° 1 min 54 W/m² -6,3 °C -10,7 °C 29,0 km/h (5 Bft)
03.02.2026 15:25 21,9 °C -3,3 °C 43 % 79 % 1006,4 hPa 0,0 l/m² 14,6 km/h (3 Bft) O-NO 60 ° 0 min 51 W/m² -6,4 °C -10,7 °C 25,7 km/h (4 Bft)
03.02.2026 15:27 22,0 °C -3,3 °C 43 % 79 % 1006,3 hPa 0,0 l/m² 11,9 km/h (2 Bft) O-NO 63 ° 0 min 49 W/m² -6,4 °C -8,7 °C 19,3 km/h (3 Bft)
03.02.2026 15:29 21,9 °C -3,3 °C 43 % 79 % 1006,4 hPa 0,0 l/m² 9,7 km/h (2 Bft) O-NO 58 ° 0 min 51 W/m² -6,4 °C -6,8 °C 16,1 km/h (3 Bft)
03.02.2026 15:31 21,9 °C -3,3 °C 43 % 79 % 1006,4 hPa 0,0 l/m² 13,7 km/h (3 Bft) N-NO 25 ° 0 min 49 W/m² -6,4 °C -10,1 °C 22,5 km/h (4 Bft)
03.02.2026 15:32 21,9 °C -3,2 °C 43 % 79 % 1006,4 hPa 0,0 l/m² 14,9 km/h (3 Bft) O-NO 64 ° 0 min 47 W/m² -6,3 °C -10,8 °C 19,3 km/h (3 Bft)
03.02.2026 15:33 21,9 °C -3,2 °C 43 % 79 % 1006,4 hPa 0,0 l/m² 15,2 km/h (3 Bft) O 81 ° 0 min 47 W/m² -6,3 °C -11,0 °C 17,7 km/h (3 Bft)
03.02.2026 15:35 21,9 °C -3,2 °C 43 % 79 % 1006,5 hPa 0,0 l/m² 12,0 km/h (2 Bft) NO 55 ° 0 min 42 W/m² -6,3 °C -8,7 °C 22,5 km/h (4 Bft)
03.02.2026 15:37 21,9 °C -3,2 °C 43 % 79 % 1006,4 hPa 0,0 l/m² 12,2 km/h (2 Bft) N-NO 30 ° 0 min 39 W/m² -6,3 °C -8,8 °C 17,7 km/h (3 Bft)
03.02.2026 15:39 21,9 °C -3,2 °C 43 % 79 % 1006,4 hPa 0,0 l/m² 14,7 km/h (3 Bft) O-NO 61 ° 0 min 33 W/m² -6,3 °C -10,7 °C 27,4 km/h (5 Bft)
03.02.2026 15:41 21,9 °C -3,2 °C 43 % 79 % 1006,5 hPa 0,0 l/m² 18,9 km/h (3 Bft) O-NO 68 ° 0 min 30 W/m² -6,3 °C -13,2 °C 27,4 km/h (5 Bft)
03.02.2026 15:42 21,9 °C -3,2 °C 43 % 79 % 1006,5 hPa 0,0 l/m² 15,1 km/h (3 Bft) O 80 ° 0 min 30 W/m² -6,3 °C -10,9 °C 19,3 km/h (3 Bft)
03.02.2026 15:43 21,9 °C -3,3 °C 43 % 79 % 1006,5 hPa 0,0 l/m² 18,0 km/h (3 Bft) O-NO 65 ° 0 min 30 W/m² -6,4 °C -12,8 °C 20,9 km/h (4 Bft)
03.02.2026 15:45 21,9 °C -3,3 °C 43 % 79 % 1006,5 hPa 0,0 l/m² 15,2 km/h (3 Bft) NO 41 ° 0 min 28 W/m² -6,4 °C -11,1 °C 20,9 km/h (4 Bft)
03.02.2026 15:48 21,9 °C -3,3 °C 43 % 79 % 1006,5 hPa 0,0 l/m² 9,9 km/h (2 Bft) O-NO 67 ° 0 min 28 W/m² -6,4 °C -7,0 °C 22,5 km/h (4 Bft)
03.02.2026 15:50 21,9 °C -3,3 °C 43 % 80 % 1006,5 hPa 0,0 l/m² 14,7 km/h (3 Bft) NO 49 ° 0 min 25 W/m² -6,2 °C -10,8 °C 25,7 km/h (4 Bft)
03.02.2026 15:52 21,9 °C -3,3 °C 43 % 80 % 1006,6 hPa 0,0 l/m² 13,7 km/h (3 Bft) O-NO 61 ° 0 min 19 W/m² -6,2 °C -10,1 °C 20,9 km/h (4 Bft)
03.02.2026 15:53 21,9 °C -3,3 °C 43 % 79 % 1006,6 hPa 0,0 l/m² 14,8 km/h (3 Bft) O 80 ° 0 min 19 W/m² -6,4 °C -10,8 °C 19,3 km/h (3 Bft)
03.02.2026 15:54 21,9 °C -3,3 °C 43 % 80 % 1006,5 hPa 0,0 l/m² 13,6 km/h (3 Bft) O-NO 76 ° 0 min 18 W/m² -6,2 °C -10,0 °C 17,7 km/h (3 Bft)
03.02.2026 15:56 21,9 °C -3,3 °C 43 % 80 % 1006,5 hPa 0,0 l/m² 13,5 km/h (3 Bft) NO 51 ° 0 min 18 W/m² -6,2 °C -9,9 °C 19,3 km/h (3 Bft)
03.02.2026 15:58 21,9 °C -3,3 °C 43 % 80 % 1006,5 hPa 0,0 l/m² 10,3 km/h (2 Bft) NO 44 ° 0 min 16 W/m² -6,2 °C -7,4 °C 19,3 km/h (3 Bft)
03.02.2026 16:00 21,9 °C -3,3 °C 43 % 80 % 1006,4 hPa 0,0 l/m² 14,9 km/h (3 Bft) O-NO 65 ° 0 min 14 W/m² -6,2 °C -10,9 °C 25,7 km/h (4 Bft)
03.02.2026 16:02 21,9 °C -3,3 °C 43 % 80 % 1006,4 hPa 0,0 l/m² 17,0 km/h (3 Bft) O-NO 61 ° 0 min 11 W/m² -6,2 °C -12,2 °C 27,4 km/h (5 Bft)
03.02.2026 16:03 21,9 °C -3,3 °C 43 % 80 % 1006,4 hPa 0,0 l/m² 14,1 km/h (3 Bft) O-NO 57 ° 0 min 11 W/m² -6,2 °C -10,4 °C 19,3 km/h (3 Bft)
03.02.2026 16:04 21,9 °C -3,3 °C 43 % 80 % 1006,4 hPa 0,0 l/m² 10,7 km/h (2 Bft) NO 51 ° 0 min 11 W/m² -6,2 °C -7,7 °C 16,1 km/h (3 Bft)
03.02.2026 16:06 21,9 °C -3,3 °C 43 % 80 % 1006,4 hPa 0,0 l/m² 12,1 km/h (2 Bft) O-NO 57 ° 0 min 11 W/m² -6,2 °C -8,9 °C 19,3 km/h (3 Bft)
03.02.2026 16:08 21,9 °C -3,3 °C 43 % 80 % 1006,4 hPa 0,0 l/m² 13,1 km/h (3 Bft) O 94 ° 0 min 9 W/m² -6,2 °C -9,6 °C 25,7 km/h (4 Bft)
03.02.2026 16:10 21,9 °C -3,3 °C 43 % 80 % 1006,3 hPa 0,0 l/m² 17,4 km/h (3 Bft) NO 39 ° 0 min 9 W/m² -6,2 °C -12,5 °C 24,1 km/h (4 Bft)
03.02.2026 16:12 21,9 °C -3,3 °C 43 % 80 % 1006,4 hPa 0,0 l/m² 8,2 km/h (2 Bft) O-NO 74 ° 0 min 7 W/m² -6,2 °C -5,3 °C 19,3 km/h (3 Bft)
03.02.2026 16:13 21,9 °C -3,3 °C 43 % 80 % 1006,4 hPa 0,0 l/m² 13,3 km/h (3 Bft) O-NO 67 ° 0 min 7 W/m² -6,2 °C -9,8 °C 16,1 km/h (3 Bft)
03.02.2026 16:14 21,9 °C -3,3 °C 43 % 80 % 1006,4 hPa 0,0 l/m² 10,7 km/h (2 Bft) O 86 ° 0 min 7 W/m² -6,2 °C -7,7 °C 17,7 km/h (3 Bft)
03.02.2026 16:16 21,9 °C -3,3 °C 43 % 80 % 1006,3 hPa 0,0 l/m² 11,0 km/h (2 Bft) O-NO 76 ° 0 min 7 W/m² -6,2 °C -8,0 °C 20,9 km/h (4 Bft)
03.02.2026 16:18 21,9 °C -3,3 °C 43 % 80 % 1006,3 hPa 0,0 l/m² 13,2 km/h (3 Bft) NO 37 ° 0 min 7 W/m² -6,2 °C -9,7 °C 20,9 km/h (4 Bft)
03.02.2026 16:20 21,9 °C -3,3 °C 43 % 80 % 1006,4 hPa 0,0 l/m² 14,1 km/h (3 Bft) O 89 ° 0 min 7 W/m² -6,2 °C -10,4 °C 20,9 km/h (4 Bft)
03.02.2026 16:22 21,9 °C -3,3 °C 43 % 80 % 1006,4 hPa 0,0 l/m² 12,6 km/h (3 Bft) O-NO 58 ° 0 min 7 W/m² -6,2 °C -9,3 °C 27,4 km/h (5 Bft)
03.02.2026 16:23 21,9 °C -3,3 °C 43 % 80 % 1006,4 hPa 0,0 l/m² 13,6 km/h (3 Bft) NO 56 ° 0 min 7 W/m² -6,2 °C -10,0 °C 25,7 km/h (4 Bft)
03.02.2026 16:24 21,9 °C -3,3 °C 43 % 80 % 1006,4 hPa 0,0 l/m² 11,3 km/h (2 Bft) NO 52 ° 0 min 7 W/m² -6,2 °C -8,2 °C 14,5 km/h (3 Bft)
03.02.2026 16:26 21,9 °C -3,3 °C 43 % 80 % 1006,4 hPa 0,0 l/m² 16,1 km/h (3 Bft) O-NO 63 ° 0 min 7 W/m² -6,2 °C -11,7 °C 22,5 km/h (4 Bft)
03.02.2026 16:28 21,9 °C -3,3 °C 43 % 80 % 1006,4 hPa 0,0 l/m² 10,5 km/h (2 Bft) O-NO 66 ° 0 min 7 W/m² -6,2 °C -7,5 °C 16,1 km/h (3 Bft)
03.02.2026 16:30 21,9 °C -3,3 °C 43 % 80 % 1006,5 hPa 0,0 l/m² 11,2 km/h (2 Bft) O-NO 57 ° 0 min 5 W/m² -6,2 °C -8,1 °C 20,9 km/h (4 Bft)
03.02.2026 16:32 21,9 °C -3,3 °C 43 % 80 % 1006,5 hPa 0,0 l/m² 12,9 km/h (3 Bft) O-NO 63 ° 0 min 5 W/m² -6,2 °C -9,5 °C 24,1 km/h (4 Bft)
03.02.2026 16:33 21,9 °C -3,3 °C 43 % 80 % 1006,5 hPa 0,0 l/m² 16,5 km/h (3 Bft) O-NO 70 ° 0 min 5 W/m² -6,2 °C -11,9 °C 22,5 km/h (4 Bft)
03.02.2026 16:34 21,9 °C -3,3 °C 43 % 80 % 1006,5 hPa 0,0 l/m² 15,3 km/h (3 Bft) NO 37 ° 0 min 5 W/m² -6,2 °C -11,2 °C 22,5 km/h (4 Bft)
03.02.2026 16:36 21,9 °C -3,3 °C 43 % 80 % 1006,5 hPa 0,0 l/m² 8,7 km/h (2 Bft) O 79 ° 0 min 5 W/m² -6,2 °C -5,8 °C 17,7 km/h (3 Bft)
03.02.2026 16:38 21,9 °C -3,3 °C 43 % 80 % 1006,5 hPa 0,0 l/m² 14,9 km/h (3 Bft) NO 53 ° 0 min 5 W/m² -6,2 °C -10,9 °C 24,1 km/h (4 Bft)
03.02.2026 16:40 21,9 °C -3,3 °C 43 % 80 % 1006,5 hPa 0,0 l/m² 12,3 km/h (2 Bft) NO 56 ° 0 min 5 W/m² -6,2 °C -9,0 °C 22,5 km/h (4 Bft)
03.02.2026 16:42 21,9 °C -3,3 °C 43 % 80 % 1006,6 hPa 0,0 l/m² 12,3 km/h (2 Bft) O-NO 65 ° 0 min 5 W/m² -6,2 °C -9,0 °C 17,7 km/h (3 Bft)
03.02.2026 16:43 21,9 °C -3,3 °C 43 % 80 % 1006,6 hPa 0,0 l/m² 8,0 km/h (2 Bft) O-NO 61 ° 0 min 5 W/m² -6,2 °C -5,1 °C 16,1 km/h (3 Bft)
03.02.2026 16:44 21,9 °C -3,3 °C 43 % 80 % 1006,5 hPa 0,0 l/m² 16,5 km/h (3 Bft) O-NO 67 ° 0 min 5 W/m² -6,2 °C -11,9 °C 20,9 km/h (4 Bft)
03.02.2026 16:46 21,9 °C -3,3 °C 43 % 80 % 1006,5 hPa 0,0 l/m² 10,9 km/h (2 Bft) O 84 ° 0 min 5 W/m² -6,2 °C -7,9 °C 19,3 km/h (3 Bft)
03.02.2026 16:48 21,9 °C -3,3 °C 43 % 80 % 1006,4 hPa 0,0 l/m² 14,5 km/h (3 Bft) O-NO 69 ° 0 min 0 W/m² -6,2 °C -10,6 °C 24,1 km/h (4 Bft)
03.02.2026 16:50 21,9 °C -3,3 °C 43 % 80 % 1006,5 hPa 0,0 l/m² 13,5 km/h (3 Bft) O-NO 67 ° 0 min 0 W/m² -6,2 °C -9,9 °C 20,9 km/h (4 Bft)
03.02.2026 16:52 21,9 °C -3,4 °C 43 % 80 % 1006,5 hPa 0,0 l/m² 14,3 km/h (3 Bft) NO 53 ° 0 min 0 W/m² -6,3 °C -10,6 °C 20,9 km/h (4 Bft)
03.02.2026 16:53 21,9 °C -3,4 °C 43 % 80 % 1006,5 hPa 0,0 l/m² 8,5 km/h (2 Bft) O-NO 61 ° 0 min 0 W/m² -6,3 °C -5,7 °C 16,1 km/h (3 Bft)
03.02.2026 16:54 21,9 °C -3,3 °C 43 % 80 % 1006,5 hPa 0,0 l/m² 13,0 km/h (3 Bft) O-NO 65 ° 0 min 0 W/m² -6,2 °C -9,6 °C 20,9 km/h (4 Bft)
03.02.2026 16:56 21,9 °C -3,3 °C 43 % 80 % 1006,5 hPa 0,0 l/m² 12,3 km/h (2 Bft) NO 45 ° 0 min 0 W/m² -6,2 °C -9,0 °C 24,1 km/h (4 Bft)
03.02.2026 16:58 21,9 °C -3,4 °C 43 % 80 % 1006,5 hPa 0,0 l/m² 14,3 km/h (3 Bft) O-NO 76 ° 0 min 0 W/m² -6,3 °C -10,6 °C 22,5 km/h (4 Bft)
03.02.2026 17:00 21,9 °C -3,4 °C 43 % 80 % 1006,5 hPa 0,0 l/m² 12,0 km/h (2 Bft) NO 54 ° 0 min 0 W/m² -6,3 °C -8,9 °C 20,9 km/h (4 Bft)
03.02.2026 17:02 21,9 °C -3,4 °C 43 % 80 % 1006,4 hPa 0,0 l/m² 11,7 km/h (2 Bft) O-NO 57 ° 0 min 0 W/m² -6,3 °C -8,7 °C 17,7 km/h (3 Bft)
03.02.2026 17:03 21,9 °C -3,4 °C 43 % 80 % 1006,4 hPa 0,0 l/m² 13,1 km/h (3 Bft) NO 45 ° 0 min 0 W/m² -6,3 °C -9,8 °C 17,7 km/h (3 Bft)
03.02.2026 17:05 21,9 °C -3,4 °C 43 % 80 % 1006,4 hPa 0,0 l/m² 12,4 km/h (2 Bft) O-NO 57 ° 0 min 0 W/m² -6,3 °C -9,2 °C 20,9 km/h (4 Bft)
03.02.2026 17:07 21,9 °C -3,4 °C 43 % 80 % 1006,4 hPa 0,0 l/m² 9,1 km/h (2 Bft) O 86 ° 0 min 0 W/m² -6,3 °C -6,4 °C 16,1 km/h (3 Bft)
03.02.2026 17:09 21,9 °C -3,4 °C 43 % 80 % 1006,5 hPa 0,0 l/m² 11,5 km/h (2 Bft) O-NO 67 ° 0 min 0 W/m² -6,3 °C -8,5 °C 20,9 km/h (4 Bft)
03.02.2026 17:10 21,9 °C -3,4 °C 43 % 80 % 1006,5 hPa 0,0 l/m² 7,7 km/h (2 Bft) NO 53 ° 0 min 0 W/m² -6,3 °C -4,9 °C 16,1 km/h (3 Bft)
03.02.2026 17:12 21,9 °C -3,4 °C 43 % 80 % 1006,5 hPa 0,0 l/m² 11,0 km/h (2 Bft) O-NO 63 ° 0 min 0 W/m² -6,3 °C -8,1 °C 17,7 km/h (3 Bft)
03.02.2026 17:13 21,9 °C -3,4 °C 43 % 80 % 1006,5 hPa 0,0 l/m² 15,6 km/h (3 Bft) O-NO 63 ° 0 min 0 W/m² -6,3 °C -11,5 °C 19,3 km/h (3 Bft)
03.02.2026 17:14 21,9 °C -3,4 °C 43 % 80 % 1006,6 hPa 0,0 l/m² 16,3 km/h (3 Bft) N-NO 25 ° 0 min 0 W/m² -6,3 °C -11,9 °C 24,1 km/h (4 Bft)
03.02.2026 17:16 21,9 °C -3,4 °C 43 % 80 % 1006,5 hPa 0,0 l/m² 15,7 km/h (3 Bft) O-NO 61 ° 0 min 0 W/m² -6,3 °C -11,6 °C 27,4 km/h (5 Bft)
03.02.2026 17:18 21,9 °C -3,4 °C 43 % 79 % 1006,5 hPa 0,0 l/m² 13,0 km/h (3 Bft) NO 46 ° 0 min 0 W/m² -6,5 °C -9,7 °C 17,7 km/h (3 Bft)
03.02.2026 17:20 21,9 °C -3,4 °C 43 % 80 % 1006,5 hPa 0,0 l/m² 15,8 km/h (3 Bft) O-NO 73 ° 0 min 0 W/m² -6,3 °C -11,6 °C 24,1 km/h (4 Bft)
03.02.2026 17:22 21,9 °C -3,5 °C 43 % 80 % 1006,5 hPa 0,0 l/m² 16,2 km/h (3 Bft) O 80 ° 0 min 0 W/m² -6,4 °C -12,0 °C 29,0 km/h (5 Bft)
03.02.2026 17:23 21,9 °C -3,5 °C 43 % 79 % 1006,5 hPa 0,0 l/m² 20,9 km/h (4 Bft) O-NO 74 ° 0 min 0 W/m² -6,6 °C -14,6 °C 29,0 km/h (5 Bft)
03.02.2026 17:24 21,9 °C -3,5 °C 43 % 79 % 1006,5 hPa 0,0 l/m² 10,2 km/h (2 Bft) O 92 ° 0 min 0 W/m² -6,6 °C -7,5 °C 16,1 km/h (3 Bft)
03.02.2026 17:26 21,9 °C -3,5 °C 43 % 79 % 1006,6 hPa 0,0 l/m² 11,8 km/h (2 Bft) NO 52 ° 0 min 0 W/m² -6,6 °C -8,9 °C 20,9 km/h (4 Bft)
03.02.2026 17:28 21,9 °C -3,6 °C 43 % 79 % 1006,6 hPa 0,0 l/m² 11,0 km/h (2 Bft) O-NO 72 ° 0 min 0 W/m² -6,7 °C -8,3 °C 16,1 km/h (3 Bft)
03.02.2026 17:30 21,9 °C -3,5 °C 43 % 80 % 1006,5 hPa 0,0 l/m² 9,8 km/h (2 Bft) O-NO 66 ° 0 min 0 W/m² -6,4 °C -7,1 °C 16,1 km/h (3 Bft)
03.02.2026 17:32 21,9 °C -3,6 °C 43 % 80 % 1006,6 hPa 0,0 l/m² 12,4 km/h (2 Bft) NO 45 ° 0 min 0 W/m² -6,5 °C -9,5 °C 17,7 km/h (3 Bft)
03.02.2026 17:33 21,9 °C -3,6 °C 43 % 80 % 1006,6 hPa 0,0 l/m² 17,8 km/h (3 Bft) O-NO 75 ° 0 min 0 W/m² -6,5 °C -13,1 °C 25,7 km/h (4 Bft)
03.02.2026 17:34 21,9 °C -3,6 °C 43 % 80 % 1006,6 hPa 0,0 l/m² 13,4 km/h (3 Bft) O-NO 71 ° 0 min 0 W/m² -6,5 °C -10,2 °C 20,9 km/h (4 Bft)
03.02.2026 17:36 21,9 °C -3,6 °C 43 % 79 % 1006,6 hPa 0,0 l/m² 19,6 km/h (3 Bft) O 88 ° 0 min 0 W/m² -6,7 °C -14,1 °C 25,7 km/h (4 Bft)
03.02.2026 17:38 21,9 °C -3,6 °C 43 % 79 % 1006,6 hPa 0,0 l/m² 13,6 km/h (3 Bft) NO 41 ° 0 min 0 W/m² -6,7 °C -10,4 °C 20,9 km/h (4 Bft)
03.02.2026 17:40 21,9 °C -3,6 °C 43 % 79 % 1006,5 hPa 0,0 l/m² 14,6 km/h (3 Bft) O-NO 71 ° 0 min 0 W/m² -6,7 °C -11,1 °C 22,5 km/h (4 Bft)
03.02.2026 17:42 21,9 °C -3,6 °C 43 % 79 % 1006,5 hPa 0,0 l/m² 14,2 km/h (3 Bft) NO 54 ° 0 min 0 W/m² -6,7 °C -10,8 °C 22,5 km/h (4 Bft)
03.02.2026 17:43 21,9 °C -3,6 °C 43 % 79 % 1006,5 hPa 0,0 l/m² 11,2 km/h (2 Bft) O-NO 74 ° 0 min 0 W/m² -6,7 °C -8,5 °C 14,5 km/h (3 Bft)
03.02.2026 17:44 21,9 °C -3,6 °C 43 % 79 % 1006,6 hPa 0,0 l/m² 8,7 km/h (2 Bft) O 99 ° 0 min 0 W/m² -6,7 °C -6,2 °C 14,5 km/h (3 Bft)
03.02.2026 17:46 21,9 °C -3,6 °C 43 % 79 % 1006,5 hPa 0,0 l/m² 11,7 km/h (2 Bft) O-NO 60 ° 0 min 0 W/m² -6,7 °C -8,9 °C 20,9 km/h (4 Bft)
03.02.2026 17:48 21,9 °C -3,6 °C 43 % 79 % 1006,6 hPa 0,0 l/m² 10,6 km/h (2 Bft) O-NO 78 ° 0 min 0 W/m² -6,7 °C -8,0 °C 22,5 km/h (4 Bft)
03.02.2026 17:50 21,9 °C -3,7 °C 43 % 79 % 1006,5 hPa 0,0 l/m² 10,7 km/h (2 Bft) NO 48 ° 0 min 0 W/m² -6,8 °C -8,2 °C 19,3 km/h (3 Bft)
03.02.2026 17:52 21,9 °C -3,7 °C 43 % 79 % 1006,6 hPa 0,0 l/m² 14,5 km/h (3 Bft) O-NO 65 ° 0 min 0 W/m² -6,8 °C -11,1 °C 24,1 km/h (4 Bft)
03.02.2026 17:53 21,9 °C -3,7 °C 43 % 79 % 1006,6 hPa 0,0 l/m² 17,9 km/h (3 Bft) O-NO 69 ° 0 min 0 W/m² -6,8 °C -13,3 °C 22,5 km/h (4 Bft)
03.02.2026 17:54 21,9 °C -3,7 °C 43 % 79 % 1006,5 hPa 0,0 l/m² 13,1 km/h (3 Bft) O-NO 62 ° 0 min 0 W/m² -6,8 °C -10,1 °C 19,3 km/h (3 Bft)
03.02.2026 17:56 21,9 °C -3,7 °C 43 % 79 % 1006,6 hPa 0,0 l/m² 15,0 km/h (3 Bft) NO 40 ° 0 min 0 W/m² -6,8 °C -11,5 °C 27,4 km/h (5 Bft)
03.02.2026 17:58 21,9 °C -3,7 °C 43 % 79 % 1006,6 hPa 0,0 l/m² 13,7 km/h (3 Bft) O-NO 63 ° 0 min 0 W/m² -6,8 °C -10,6 °C 22,5 km/h (4 Bft)
03.02.2026 18:00 21,9 °C -3,7 °C 43 % 79 % 1006,6 hPa 0,0 l/m² 15,9 km/h (3 Bft) O-NO 70 ° 0 min 0 W/m² -6,8 °C -12,1 °C 25,7 km/h (4 Bft)
03.02.2026 18:02 21,9 °C -3,7 °C 43 % 79 % 1006,5 hPa 0,0 l/m² 9,5 km/h (2 Bft) O-NO 59 ° 0 min 0 W/m² -6,8 °C -7,1 °C 20,9 km/h (4 Bft)
03.02.2026 18:03 21,9 °C -3,7 °C 43 % 79 % 1006,5 hPa 0,0 l/m² 14,1 km/h (3 Bft) O 83 ° 0 min 0 W/m² -6,8 °C -10,8 °C 24,1 km/h (4 Bft)
03.02.2026 18:04 21,9 °C -3,7 °C 43 % 79 % 1006,5 hPa 0,0 l/m² 12,4 km/h (2 Bft) O-NO 63 ° 0 min 0 W/m² -6,8 °C -9,6 °C 17,7 km/h (3 Bft)
03.02.2026 18:06 21,9 °C -3,7 °C 43 % 79 % 1006,6 hPa 0,0 l/m² 10,8 km/h (2 Bft) NO 49 ° 0 min 0 W/m² -6,8 °C -8,3 °C 17,7 km/h (3 Bft)
03.02.2026 18:08 21,9 °C -3,7 °C 43 % 79 % 1006,6 hPa 0,0 l/m² 7,5 km/h (2 Bft) NO 46 ° 0 min 0 W/m² -6,8 °C -5,0 °C 14,5 km/h (3 Bft)
03.02.2026 18:10 21,9 °C -3,8 °C 43 % 79 % 1006,6 hPa 0,0 l/m² 11,3 km/h (2 Bft) O-NO 77 ° 0 min 0 W/m² -6,9 °C -8,8 °C 19,3 km/h (3 Bft)
03.02.2026 18:12 21,9 °C -3,7 °C 43 % 79 % 1006,7 hPa 0,0 l/m² 8,5 km/h (2 Bft) O-NO 76 ° 0 min 0 W/m² -6,8 °C -6,1 °C 16,1 km/h (3 Bft)
03.02.2026 18:13 21,9 °C -3,7 °C 43 % 79 % 1006,7 hPa 0,0 l/m² 17,1 km/h (3 Bft) NO 35 ° 0 min 0 W/m² -6,8 °C -12,8 °C 20,9 km/h (4 Bft)
03.02.2026 18:14 21,9 °C -3,8 °C 43 % 79 % 1006,7 hPa 0,0 l/m² 13,1 km/h (3 Bft) O-NO 60 ° 0 min 0 W/m² -6,9 °C -10,2 °C 17,7 km/h (3 Bft)
03.02.2026 18:16 21,9 °C -3,8 °C 43 % 79 % 1006,7 hPa 0,0 l/m² 15,0 km/h (3 Bft) N-NO 28 ° 0 min 0 W/m² -6,9 °C -11,6 °C 24,1 km/h (4 Bft)
03.02.2026 18:18 21,9 °C -3,8 °C 43 % 79 % 1006,7 hPa 0,0 l/m² 12,8 km/h (3 Bft) O-NO 60 ° 0 min 0 W/m² -6,9 °C -10,0 °C 27,4 km/h (5 Bft)
03.02.2026 18:20 21,9 °C -3,8 °C 43 % 79 % 1006,7 hPa 0,0 l/m² 10,0 km/h (2 Bft) O-NO 62 ° 0 min 0 W/m² -6,9 °C -7,6 °C 20,9 km/h (4 Bft)
03.02.2026 18:22 21,9 °C -3,7 °C 43 % 79 % 1006,8 hPa 0,0 l/m² 12,1 km/h (2 Bft) O 86 ° 0 min 0 W/m² -6,8 °C -9,3 °C 22,5 km/h (4 Bft)
03.02.2026 18:23 21,9 °C -3,8 °C 43 % 79 % 1006,8 hPa 0,0 l/m² 8,5 km/h (2 Bft) O 92 ° 0 min 0 W/m² -6,9 °C -6,2 °C 11,3 km/h (2 Bft)
03.02.2026 18:24 21,9 °C -3,7 °C 43 % 79 % 1006,7 hPa 0,0 l/m² 16,5 km/h (3 Bft) O-NO 58 ° 0 min 0 W/m² -6,8 °C -12,4 °C 20,9 km/h (4 Bft)
03.02.2026 18:26 21,9 °C -3,8 °C 43 % 79 % 1006,9 hPa 0,0 l/m² 12,4 km/h (2 Bft) O-NO 71 ° 0 min 0 W/m² -6,9 °C -9,7 °C 19,3 km/h (3 Bft)
03.02.2026 18:28 21,9 °C -3,8 °C 43 % 79 % 1006,8 hPa 0,0 l/m² 12,3 km/h (2 Bft) O-NO 60 ° 0 min 0 W/m² -6,9 °C -9,6 °C 19,3 km/h (3 Bft)
03.02.2026 18:30 21,9 °C -3,8 °C 43 % 79 % 1006,8 hPa 0,0 l/m² 9,9 km/h (2 Bft) O 81 ° 0 min 0 W/m² -6,9 °C -7,6 °C 19,3 km/h (3 Bft)
03.02.2026 18:32 21,9 °C -3,8 °C 43 % 79 % 1006,9 hPa 0,0 l/m² 12,1 km/h (2 Bft) O 80 ° 0 min 0 W/m² -6,9 °C -9,5 °C 24,1 km/h (4 Bft)
03.02.2026 18:33 21,9 °C -3,8 °C 43 % 79 % 1006,9 hPa 0,0 l/m² 9,3 km/h (2 Bft) O 92 ° 0 min 0 W/m² -6,9 °C -7,0 °C 12,9 km/h (3 Bft)
03.02.2026 18:34 21,9 °C -3,8 °C 43 % 79 % 1006,9 hPa 0,0 l/m² 10,3 km/h (2 Bft) O-NO 70 ° 0 min 0 W/m² -6,9 °C -7,9 °C 14,5 km/h (3 Bft)
03.02.2026 18:36 21,9 °C -3,8 °C 43 % 79 % 1006,9 hPa 0,0 l/m² 6,4 km/h (2 Bft) NO 53 ° 0 min 0 W/m² -6,9 °C -3,7 °C 12,9 km/h (3 Bft)
03.02.2026 18:38 21,9 °C -3,8 °C 43 % 79 % 1006,8 hPa 0,0 l/m² 12,5 km/h (2 Bft) O 92 ° 0 min 0 W/m² -6,9 °C -9,8 °C 19,3 km/h (3 Bft)
03.02.2026 18:40 21,9 °C -3,8 °C 43 % 79 % 1006,8 hPa 0,0 l/m² 15,8 km/h (3 Bft) O 90 ° 0 min 0 W/m² -6,9 °C -12,1 °C 22,5 km/h (4 Bft)
03.02.2026 18:42 21,9 °C -3,8 °C 43 % 79 % 1006,8 hPa 0,0 l/m² 10,5 km/h (2 Bft) O-NO 78 ° 0 min 0 W/m² -6,9 °C -8,1 °C 16,1 km/h (3 Bft)
03.02.2026 18:43 21,9 °C -3,8 °C 43 % 79 % 1006,8 hPa 0,0 l/m² 7,1 km/h (2 Bft) O 90 ° 0 min 0 W/m² -6,9 °C -4,6 °C 16,1 km/h (3 Bft)
03.02.2026 18:44 21,9 °C -3,8 °C 43 % 79 % 1006,8 hPa 0,0 l/m² 10,8 km/h (2 Bft) NO 46 ° 0 min 0 W/m² -6,9 °C -8,4 °C 12,9 km/h (3 Bft)
03.02.2026 18:46 21,9 °C -3,8 °C 43 % 80 % 1006,9 hPa 0,0 l/m² 12,8 km/h (3 Bft) O-NO 57 ° 0 min 0 W/m² -6,7 °C -10,0 °C 20,9 km/h (4 Bft)
03.02.2026 18:48 21,9 °C -3,8 °C 43 % 80 % 1007,0 hPa 0,0 l/m² 14,6 km/h (3 Bft) O 80 ° 0 min 0 W/m² -6,7 °C -11,3 °C 22,5 km/h (4 Bft)
03.02.2026 18:50 21,9 °C -3,8 °C 43 % 80 % 1006,9 hPa 0,0 l/m² 10,8 km/h (2 Bft) O-SO 107 ° 0 min 0 W/m² -6,7 °C -8,4 °C 16,1 km/h (3 Bft)
03.02.2026 18:52 21,9 °C -3,8 °C 43 % 80 % 1006,9 hPa 0,0 l/m² 7,3 km/h (2 Bft) O-NO 67 ° 0 min 0 W/m² -6,7 °C -4,8 °C 14,5 km/h (3 Bft)
03.02.2026 18:53 21,9 °C -3,8 °C 43 % 80 % 1006,9 hPa 0,0 l/m² 5,9 km/h (2 Bft) O-NO 67 ° 0 min 0 W/m² -6,7 °C -3,8 °C 8,0 km/h (2 Bft)
03.02.2026 18:54 21,9 °C -3,8 °C 43 % 80 % 1007,0 hPa 0,0 l/m² 6,1 km/h (2 Bft) O-NO 71 ° 0 min 0 W/m² -6,7 °C -3,8 °C 8,0 km/h (2 Bft)
03.02.2026 18:56 21,9 °C -3,8 °C 43 % 81 % 1006,9 hPa 0,0 l/m² 8,7 km/h (2 Bft) O-NO 71 ° 0 min 0 W/m² -6,6 °C -6,4 °C 17,7 km/h (3 Bft)
03.02.2026 18:58 21,9 °C -3,9 °C 43 % 81 % 1006,9 hPa 0,0 l/m² 11,3 km/h (2 Bft) O 84 ° 0 min 0 W/m² -6,7 °C -8,9 °C 16,1 km/h (3 Bft)
03.02.2026 19:00 21,9 °C -3,9 °C 43 % 81 % 1006,9 hPa 0,0 l/m² 11,9 km/h (2 Bft) O 89 ° 0 min 0 W/m² -6,7 °C -9,4 °C 20,9 km/h (4 Bft)
03.02.2026 19:02 21,9 °C -3,9 °C 43 % 82 % 1006,9 hPa 0,0 l/m² 6,8 km/h (2 Bft) NO 51 ° 0 min 0 W/m² -6,5 °C -4,4 °C 11,3 km/h (2 Bft)
03.02.2026 19:03 21,9 °C -3,9 °C 43 % 82 % 1006,9 hPa 0,0 l/m² 7,8 km/h (2 Bft) NO 53 ° 0 min 0 W/m² -6,5 °C -5,5 °C 9,7 km/h (2 Bft)
03.02.2026 19:05 21,9 °C -4,0 °C 43 % 82 % 1007,0 hPa 0,0 l/m² 9,1 km/h (2 Bft) NO 53 ° 0 min 0 W/m² -6,6 °C -7,0 °C 17,7 km/h (3 Bft)
03.02.2026 19:07 21,9 °C -4,1 °C 43 % 83 % 1006,9 hPa 0,0 l/m² 11,1 km/h (2 Bft) O-NO 59 ° 0 min 0 W/m² -6,5 °C -9,0 °C 16,1 km/h (3 Bft)
03.02.2026 19:09 21,9 °C -4,1 °C 43 % 83 % 1007,0 hPa 0,0 l/m² 9,9 km/h (2 Bft) O 98 ° 0 min 0 W/m² -6,5 °C -7,9 °C 17,7 km/h (3 Bft)
03.02.2026 19:11 21,9 °C -4,1 °C 43 % 83 % 1007,0 hPa 0,0 l/m² 10,7 km/h (2 Bft) O-NO 67 ° 0 min 0 W/m² -6,5 °C -8,6 °C 17,7 km/h (3 Bft)
03.02.2026 19:12 21,9 °C -4,1 °C 43 % 83 % 1007,0 hPa 0,0 l/m² 8,2 km/h (2 Bft) O 84 ° 0 min 0 W/m² -6,5 °C -6,2 °C 12,9 km/h (3 Bft)
03.02.2026 19:13 21,9 °C -4,1 °C 43 % 83 % 1006,9 hPa 0,0 l/m² 8,4 km/h (2 Bft) O 84 ° 0 min 0 W/m² -6,5 °C -6,4 °C 11,3 km/h (2 Bft)
03.02.2026 19:15 21,9 °C -4,1 °C 43 % 83 % 1007,0 hPa 0,0 l/m² 10,2 km/h (2 Bft) O-NO 76 ° 0 min 0 W/m² -6,5 °C -8,2 °C 14,5 km/h (3 Bft)
03.02.2026 19:17 21,9 °C -4,2 °C 43 % 84 % 1007,0 hPa 0,0 l/m² 9,4 km/h (2 Bft) O-NO 78 ° 0 min 0 W/m² -6,5 °C -7,5 °C 17,7 km/h (3 Bft)
03.02.2026 19:19 21,9 °C -4,2 °C 43 % 84 % 1007,0 hPa 0,0 l/m² 12,5 km/h (2 Bft) O-NO 63 ° 0 min 0 W/m² -6,5 °C -10,2 °C 17,7 km/h (3 Bft)
03.02.2026 19:21 21,9 °C -4,2 °C 43 % 85 % 1007,0 hPa 0,0 l/m² 10,1 km/h (2 Bft) O-NO 76 ° 0 min 0 W/m² -6,3 °C -8,2 °C 17,7 km/h (3 Bft)
03.02.2026 19:22 21,9 °C -4,3 °C 43 % 85 % 1007,0 hPa 0,0 l/m² 8,3 km/h (2 Bft) O 83 ° 0 min 0 W/m² -6,4 °C -6,5 °C 14,5 km/h (3 Bft)
03.02.2026 19:23 21,8 °C -4,3 °C 43 % 85 % 1007,0 hPa 0,0 l/m² 7,9 km/h (2 Bft) O 79 ° 0 min 0 W/m² -6,4 °C -6,0 °C 11,3 km/h (2 Bft)
03.02.2026 19:25 21,8 °C -4,3 °C 43 % 85 % 1007,0 hPa 0,0 l/m² 5,5 km/h (2 Bft) O 79 ° 0 min 0 W/m² -6,4 °C -4,3 °C 9,7 km/h (2 Bft)
03.02.2026 19:27 21,9 °C -4,3 °C 43 % 85 % 1007,0 hPa 0,0 l/m² 9,1 km/h (2 Bft) O-NO 71 ° 0 min 0 W/m² -6,4 °C -7,3 °C 14,5 km/h (3 Bft)
03.02.2026 19:29 21,9 °C -4,3 °C 43 % 85 % 1007,0 hPa 0,0 l/m² 8,1 km/h (2 Bft) O-NO 78 ° 0 min 0 W/m² -6,4 °C -6,3 °C 14,5 km/h (3 Bft)
03.02.2026 19:31 21,9 °C -4,3 °C 43 % 86 % 1007,0 hPa 0,0 l/m² 8,5 km/h (2 Bft) NO 55 ° 0 min 0 W/m² -6,3 °C -6,7 °C 14,5 km/h (3 Bft)
03.02.2026 19:32 21,9 °C -4,4 °C 43 % 86 % 1007,0 hPa 0,0 l/m² 5,1 km/h (1 Bft) NO 55 ° 0 min 0 W/m² -6,4 °C -4,4 °C 8,0 km/h (2 Bft)
03.02.2026 19:33 21,9 °C -4,3 °C 43 % 86 % 1007,0 hPa 0,0 l/m² 8,0 km/h (2 Bft) O-NO 75 ° 0 min 0 W/m² -6,3 °C -6,2 °C 11,3 km/h (2 Bft)
03.02.2026 19:35 21,9 °C -4,4 °C 43 % 86 % 1006,9 hPa 0,0 l/m² 11,3 km/h (2 Bft) O 83 ° 0 min 0 W/m² -6,4 °C -9,5 °C 14,5 km/h (3 Bft)
03.02.2026 19:37 21,9 °C -4,4 °C 43 % 86 % 1006,9 hPa 0,0 l/m² 12,8 km/h (3 Bft) O-NO 70 ° 0 min 0 W/m² -6,4 °C -10,7 °C 16,1 km/h (3 Bft)
03.02.2026 19:39 21,9 °C -4,4 °C 43 % 86 % 1007,0 hPa 0,0 l/m² 10,8 km/h (2 Bft) O-NO 78 ° 0 min 0 W/m² -6,4 °C -9,0 °C 16,1 km/h (3 Bft)
03.02.2026 19:41 21,9 °C -4,4 °C 43 % 87 % 1007,0 hPa 0,0 l/m² 8,7 km/h (2 Bft) NO 55 ° 0 min 0 W/m² -6,2 °C -7,0 °C 14,5 km/h (3 Bft)
03.02.2026 19:42 21,9 °C -4,4 °C 43 % 86 % 1007,0 hPa 0,0 l/m² 13,3 km/h (3 Bft) O-NO 71 ° 0 min 0 W/m² -6,4 °C -11,1 °C 17,7 km/h (3 Bft)
03.02.2026 19:43 21,9 °C -4,4 °C 43 % 86 % 1007,0 hPa 0,0 l/m² 12,2 km/h (2 Bft) O-NO 75 ° 0 min 0 W/m² -6,4 °C -10,2 °C 17,7 km/h (3 Bft)
03.02.2026 19:45 21,9 °C -4,4 °C 43 % 87 % 1007,0 hPa 0,0 l/m² 12,2 km/h (2 Bft) O-NO 78 ° 0 min 0 W/m² -6,2 °C -10,2 °C 19,3 km/h (3 Bft)
03.02.2026 19:47 21,9 °C -4,4 °C 43 % 87 % 1007,0 hPa 0,0 l/m² 10,1 km/h (2 Bft) O-NO 77 ° 0 min 0 W/m² -6,2 °C -8,4 °C 16,1 km/h (3 Bft)
03.02.2026 19:49 21,9 °C -4,5 °C 43 % 87 % 1007,0 hPa 0,0 l/m² 9,3 km/h (2 Bft) O 82 ° 0 min 0 W/m² -6,3 °C -7,7 °C 16,1 km/h (3 Bft)
03.02.2026 19:51 21,9 °C -4,5 °C 43 % 87 % 1007,0 hPa 0,0 l/m² 8,6 km/h (2 Bft) O 83 ° 0 min 0 W/m² -6,3 °C -7,0 °C 14,5 km/h (3 Bft)
03.02.2026 19:52 21,9 °C -4,5 °C 43 % 87 % 1007,0 hPa 0,0 l/m² 8,4 km/h (2 Bft) O-NO 70 ° 0 min 0 W/m² -6,3 °C -6,8 °C 16,1 km/h (3 Bft)
03.02.2026 19:53 21,9 °C -4,5 °C 43 % 87 % 1007,0 hPa 0,0 l/m² 5,2 km/h (1 Bft) O-NO 70 ° 0 min 0 W/m² -6,3 °C -4,5 °C 6,4 km/h (2 Bft)
03.02.2026 19:55 21,9 °C -4,5 °C 43 % 87 % 1007,1 hPa 0,0 l/m² 6,6 km/h (2 Bft) O-NO 60 ° 0 min 0 W/m² -6,3 °C -4,7 °C 11,3 km/h (2 Bft)
03.02.2026 19:57 21,9 °C -4,6 °C 43 % 88 % 1007,0 hPa 0,0 l/m² 5,6 km/h (2 Bft) O 79 ° 0 min 0 W/m² -6,3 °C -4,6 °C 11,3 km/h (2 Bft)
03.02.2026 19:59 21,9 °C -4,6 °C 43 % 88 % 1007,0 hPa 0,0 l/m² 7,7 km/h (2 Bft) O-NO 76 ° 0 min 0 W/m² -6,3 °C -6,1 °C 12,9 km/h (3 Bft)
03.02.2026 20:01 21,9 °C -4,6 °C 43 % 88 % 1007,1 hPa 0,0 l/m² 10,1 km/h (2 Bft) O-NO 78 ° 0 min 0 W/m² -6,3 °C -8,6 °C 17,7 km/h (3 Bft)
03.02.2026 20:02 21,9 °C -4,6 °C 43 % 88 % 1007,1 hPa 0,0 l/m² 6,2 km/h (2 Bft) O 80 ° 0 min 0 W/m² -6,3 °C -4,6 °C 11,3 km/h (2 Bft)
03.02.2026 20:03 21,9 °C -4,6 °C 43 % 88 % 1007,0 hPa 0,0 l/m² 9,9 km/h (2 Bft) O-NO 68 ° 0 min 0 W/m² -6,3 °C -8,4 °C 12,9 km/h (3 Bft)
03.02.2026 20:05 21,9 °C -4,6 °C 43 % 88 % 1007,0 hPa 0,0 l/m² 9,3 km/h (2 Bft) NO 54 ° 0 min 0 W/m² -6,3 °C -7,8 °C 16,1 km/h (3 Bft)
03.02.2026 20:07 21,9 °C -4,6 °C 43 % 88 % 1007,0 hPa 0,0 l/m² 9,4 km/h (2 Bft) O 91 ° 0 min 0 W/m² -6,3 °C -7,9 °C 16,1 km/h (3 Bft)
03.02.2026 20:09 21,9 °C -4,6 °C 43 % 88 % 1006,9 hPa 0,0 l/m² 9,3 km/h (2 Bft) O 84 ° 0 min 0 W/m² -6,3 °C -7,8 °C 16,1 km/h (3 Bft)
03.02.2026 20:11 21,9 °C -4,6 °C 43 % 88 % 1007,0 hPa 0,0 l/m² 9,4 km/h (2 Bft) O-NO 72 ° 0 min 0 W/m² -6,3 °C -7,9 °C 14,5 km/h (3 Bft)
03.02.2026 20:12 21,9 °C -4,6 °C 43 % 88 % 1007,0 hPa 0,0 l/m² 8,9 km/h (2 Bft) O 82 ° 0 min 0 W/m² -6,3 °C -7,4 °C 14,5 km/h (3 Bft)
03.02.2026 20:13 21,9 °C -4,6 °C 43 % 88 % 1007,0 hPa 0,0 l/m² 10,0 km/h (2 Bft) O 84 ° 0 min 0 W/m² -6,3 °C -8,5 °C 14,5 km/h (3 Bft)
03.02.2026 20:15 21,9 °C -4,6 °C 43 % 88 % 1007,0 hPa 0,0 l/m² 9,0 km/h (2 Bft) NO 44 ° 0 min 0 W/m² -6,3 °C -7,5 °C 14,5 km/h (3 Bft)
03.02.2026 20:17 21,9 °C -4,6 °C 43 % 88 % 1006,9 hPa 0,0 l/m² 10,4 km/h (2 Bft) O-NO 76 ° 0 min 0 W/m² -6,3 °C -8,9 °C 14,5 km/h (3 Bft)
03.02.2026 20:19 21,9 °C -4,6 °C 43 % 88 % 1007,0 hPa 0,0 l/m² 9,5 km/h (2 Bft) O 83 ° 0 min 0 W/m² -6,3 °C -8,0 °C 16,1 km/h (3 Bft)
03.02.2026 20:21 21,9 °C -4,6 °C 43 % 88 % 1007,0 hPa 0,0 l/m² 8,0 km/h (2 Bft) O 86 ° 0 min 0 W/m² -6,3 °C -6,5 °C 14,5 km/h (3 Bft)
03.02.2026 20:22 21,9 °C -4,6 °C 43 % 89 % 1007,0 hPa 0,0 l/m² 7,7 km/h (2 Bft) O 86 ° 0 min 0 W/m² -6,1 °C -6,1 °C 11,3 km/h (2 Bft)
03.02.2026 20:23 21,9 °C -4,6 °C 43 % 89 % 1007,0 hPa 0,0 l/m² 8,0 km/h (2 Bft) O-NO 69 ° 0 min 0 W/m² -6,1 °C -6,5 °C 11,3 km/h (2 Bft)
03.02.2026 20:25 21,9 °C -4,6 °C 43 % 89 % 1006,9 hPa 0,0 l/m² 7,9 km/h (2 Bft) O-NO 63 ° 0 min 0 W/m² -6,1 °C -6,4 °C 14,5 km/h (3 Bft)
03.02.2026 20:27 21,9 °C -4,6 °C 43 % 89 % 1006,9 hPa 0,0 l/m² 10,1 km/h (2 Bft) NO 49 ° 0 min 0 W/m² -6,1 °C -8,6 °C 17,7 km/h (3 Bft)
03.02.2026 20:29 21,9 °C -4,6 °C 43 % 89 % 1006,8 hPa 0,0 l/m² 8,0 km/h (2 Bft) O-NO 62 ° 0 min 0 W/m² -6,1 °C -6,5 °C 16,1 km/h (3 Bft)
03.02.2026 20:31 21,9 °C -4,6 °C 43 % 89 % 1006,9 hPa 0,0 l/m² 7,7 km/h (2 Bft) O-NO 74 ° 0 min 0 W/m² -6,1 °C -6,1 °C 12,9 km/h (3 Bft)
03.02.2026 20:32 21,9 °C -4,6 °C 43 % 89 % 1006,9 hPa 0,0 l/m² 11,5 km/h (2 Bft) O-NO 74 ° 0 min 0 W/m² -6,1 °C -9,9 °C 14,5 km/h (3 Bft)
03.02.2026 20:33 21,9 °C -4,6 °C 43 % 89 % 1007,0 hPa 0,0 l/m² 9,0 km/h (2 Bft) O-NO 57 ° 0 min 0 W/m² -6,1 °C -7,5 °C 14,5 km/h (3 Bft)
03.02.2026 20:35 21,9 °C -4,6 °C 43 % 89 % 1007,0 hPa 0,0 l/m² 7,3 km/h (2 Bft) O 81 ° 0 min 0 W/m² -6,1 °C -5,7 °C 12,9 km/h (3 Bft)
03.02.2026 20:37 21,9 °C -4,6 °C 43 % 89 % 1006,9 hPa 0,0 l/m² 8,5 km/h (2 Bft) NO 54 ° 0 min 0 W/m² -6,1 °C -7,0 °C 16,1 km/h (3 Bft)
03.02.2026 20:39 21,9 °C -4,6 °C 43 % 89 % 1006,9 hPa 0,0 l/m² 7,1 km/h (2 Bft) O 81 ° 0 min 0 W/m² -6,1 °C -5,4 °C 14,5 km/h (3 Bft)
03.02.2026 20:41 21,9 °C -4,6 °C 43 % 89 % 1006,9 hPa 0,0 l/m² 8,4 km/h (2 Bft) O 84 ° 0 min 0 W/m² -6,1 °C -6,9 °C 14,5 km/h (3 Bft)
03.02.2026 20:42 21,9 °C -4,6 °C 43 % 89 % 1006,9 hPa 0,0 l/m² 12,2 km/h (2 Bft) NO 49 ° 0 min 0 W/m² -6,1 °C -10,5 °C 17,7 km/h (3 Bft)
03.02.2026 20:43 21,9 °C -4,6 °C 43 % 89 % 1006,8 hPa 0,0 l/m² 10,7 km/h (2 Bft) O-NO 64 ° 0 min 0 W/m² -6,1 °C -9,2 °C 16,1 km/h (3 Bft)
03.02.2026 20:45 21,9 °C -4,6 °C 43 % 89 % 1006,9 hPa 0,0 l/m² 11,4 km/h (2 Bft) O-NO 77 ° 0 min 0 W/m² -6,1 °C -9,8 °C 14,5 km/h (3 Bft)
03.02.2026 20:47 21,9 °C -4,6 °C 43 % 89 % 1006,9 hPa 0,0 l/m² 12,2 km/h (2 Bft) O 82 ° 0 min 0 W/m² -6,1 °C -10,5 °C 17,7 km/h (3 Bft)
03.02.2026 20:49 21,9 °C -4,6 °C 43 % 89 % 1006,9 hPa 0,0 l/m² 10,3 km/h (2 Bft) O-NO 65 ° 0 min 0 W/m² -6,1 °C -8,8 °C 17,7 km/h (3 Bft)
03.02.2026 20:51 21,9 °C -4,6 °C 43 % 89 % 1006,7 hPa 0,0 l/m² 9,2 km/h (2 Bft) O 90 ° 0 min 0 W/m² -6,1 °C -7,7 °C 14,5 km/h (3 Bft)
03.02.2026 20:52 21,9 °C -4,5 °C 43 % 89 % 1006,7 hPa 0,0 l/m² 9,8 km/h (2 Bft) O-NO 78 ° 0 min 0 W/m² -6,0 °C -8,2 °C 14,5 km/h (3 Bft)
03.02.2026 20:53 21,9 °C -4,6 °C 43 % 89 % 1006,7 hPa 0,0 l/m² 9,8 km/h (2 Bft) NO 34 ° 0 min 0 W/m² -6,1 °C -8,3 °C 16,1 km/h (3 Bft)
03.02.2026 20:55 21,9 °C -4,6 °C 43 % 90 % 1006,7 hPa 0,0 l/m² 12,4 km/h (2 Bft) O 86 ° 0 min 0 W/m² -6,0 °C -10,6 °C 16,1 km/h (3 Bft)
03.02.2026 20:57 21,9 °C -4,6 °C 43 % 90 % 1006,7 hPa 0,0 l/m² 9,1 km/h (2 Bft) O-NO 74 ° 0 min 0 W/m² -6,0 °C -7,6 °C 14,5 km/h (3 Bft)
03.02.2026 20:59 21,9 °C -4,5 °C 43 % 90 % 1006,8 hPa 0,0 l/m² 9,2 km/h (2 Bft) O-NO 71 ° 0 min 0 W/m² -5,9 °C -7,6 °C 16,1 km/h (3 Bft)
03.02.2026 21:01 21,9 °C -4,5 °C 43 % 90 % 1006,8 hPa 0,0 l/m² 7,7 km/h (2 Bft) O-NO 59 ° 0 min 0 W/m² -5,9 °C -6,0 °C 16,1 km/h (3 Bft)
03.02.2026 21:02 21,9 °C -4,5 °C 43 % 90 % 1006,8 hPa 0,0 l/m² 7,0 km/h (2 Bft) O 84 ° 0 min 0 W/m² -5,9 °C -5,2 °C 12,9 km/h (3 Bft)
03.02.2026 21:03 21,9 °C -4,5 °C 43 % 90 % 1006,7 hPa 0,0 l/m² 9,8 km/h (2 Bft) O 93 ° 0 min 0 W/m² -5,9 °C -8,2 °C 12,9 km/h (3 Bft)
03.02.2026 21:04 22,0 °C -4,4 °C 43 % 90 % 1006,7 hPa 0,0 l/m² 16,4 km/h (3 Bft) O 92 ° 0 min 0 W/m² -5,8 °C -13,2 °C 20,9 km/h (4 Bft)
03.02.2026 21:05 21,9 °C -4,4 °C 43 % 90 % 1006,7 hPa 0,0 l/m² 12,5 km/h (2 Bft) O-NO 70 ° 0 min 0 W/m² -5,8 °C -10,5 °C 16,1 km/h (3 Bft)
03.02.2026 21:06 22,0 °C -4,4 °C 43 % 90 % 1006,7 hPa 0,0 l/m² 14,5 km/h (3 Bft) O 84 ° 0 min 0 W/m² -5,8 °C -12,0 °C 17,7 km/h (3 Bft)
03.02.2026 21:08 21,9 °C -4,4 °C 43 % 90 % 1006,7 hPa 0,0 l/m² 17,3 km/h (3 Bft) O-NO 61 ° 0 min 0 W/m² -5,8 °C -13,8 °C 22,5 km/h (4 Bft)
03.02.2026 21:09 21,9 °C -4,4 °C 43 % 90 % 1006,7 hPa 0,0 l/m² 17,6 km/h (3 Bft) NO 52 ° 0 min 0 W/m² -5,8 °C -14,0 °C 19,3 km/h (3 Bft)
03.02.2026 21:11 21,9 °C -4,4 °C 43 % 90 % 1006,7 hPa 0,0 l/m² 15,6 km/h (3 Bft) O-NO 57 ° 0 min 0 W/m² -5,8 °C -12,7 °C 22,5 km/h (4 Bft)
03.02.2026 21:12 21,9 °C -4,4 °C 43 % 90 % 1006,8 hPa 0,0 l/m² 16,4 km/h (3 Bft) O 88 ° 0 min 0 W/m² -5,8 °C -13,2 °C 19,3 km/h (3 Bft)
03.02.2026 21:13 21,9 °C -4,4 °C 43 % 90 % 1006,8 hPa 0,0 l/m² 16,2 km/h (3 Bft) O 89 ° 0 min 0 W/m² -5,8 °C -13,1 °C 19,3 km/h (3 Bft)
03.02.2026 21:15 21,9 °C -4,4 °C 43 % 90 % 1006,8 hPa 0,0 l/m² 13,5 km/h (3 Bft) O-NO 78 ° 0 min 0 W/m² -5,8 °C -11,2 °C 19,3 km/h (3 Bft)
03.02.2026 21:16 21,9 °C -4,4 °C 43 % 90 % 1006,7 hPa 0,0 l/m² 14,8 km/h (3 Bft) O 85 ° 0 min 0 W/m² -5,8 °C -12,2 °C 19,3 km/h (3 Bft)
03.02.2026 21:17 21,9 °C -4,4 °C 43 % 90 % 1006,9 hPa 0,0 l/m² 14,3 km/h (3 Bft) O-NO 74 ° 0 min 0 W/m² -5,8 °C -11,8 °C 17,7 km/h (3 Bft)
03.02.2026 21:18 21,9 °C -4,4 °C 43 % 90 % 1006,8 hPa 0,0 l/m² 15,5 km/h (3 Bft) O 84 ° 0 min 0 W/m² -5,8 °C -12,6 °C 17,7 km/h (3 Bft)
03.02.2026 21:19 21,9 °C -4,4 °C 43 % 90 % 1006,8 hPa 0,0 l/m² 15,8 km/h (3 Bft) O 79 ° 0 min 0 W/m² -5,8 °C -12,8 °C 19,3 km/h (3 Bft)
03.02.2026 21:21 21,9 °C -4,4 °C 43 % 90 % 1006,8 hPa 0,0 l/m² 16,2 km/h (3 Bft) O-NO 76 ° 0 min 0 W/m² -5,8 °C -13,1 °C 22,5 km/h (4 Bft)
03.02.2026 21:22 21,9 °C -4,3 °C 43 % 90 % 1006,8 hPa 0,0 l/m² 14,2 km/h (3 Bft) O 86 ° 0 min 0 W/m² -5,7 °C -11,6 °C 17,7 km/h (3 Bft)
03.02.2026 21:23 21,9 °C -4,4 °C 43 % 90 % 1006,8 hPa 0,0 l/m² 11,4 km/h (2 Bft) O-NO 76 ° 0 min 0 W/m² -5,8 °C -9,6 °C 16,1 km/h (3 Bft)
03.02.2026 21:25 21,9 °C -4,4 °C 43 % 90 % 1006,7 hPa 0,0 l/m² 12,4 km/h (2 Bft) O 82 ° 0 min 0 W/m² -5,8 °C -10,4 °C 17,7 km/h (3 Bft)
03.02.2026 21:26 21,9 °C -4,3 °C 43 % 90 % 1006,7 hPa 0,0 l/m² 17,0 km/h (3 Bft) O-NO 73 ° 0 min 0 W/m² -5,7 °C -13,5 °C 20,9 km/h (4 Bft)
03.02.2026 21:27 21,9 °C -4,3 °C 43 % 90 % 1006,7 hPa 0,0 l/m² 16,9 km/h (3 Bft) O 84 ° 0 min 0 W/m² -5,7 °C -13,4 °C 24,1 km/h (4 Bft)
03.02.2026 21:28 21,9 °C -4,4 °C 43 % 90 % 1006,7 hPa 0,0 l/m² 18,4 km/h (3 Bft) O 81 ° 0 min 0 W/m² -5,8 °C -14,4 °C 22,5 km/h (4 Bft)
03.02.2026 21:29 21,9 °C -4,4 °C 43 % 90 % 1006,8 hPa 0,0 l/m² 18,5 km/h (3 Bft) O-NO 76 ° 0 min 0 W/m² -5,8 °C -14,5 °C 24,1 km/h (4 Bft)
03.02.2026 21:31 21,9 °C -4,3 °C 43 % 90 % 1006,8 hPa 0,0 l/m² 15,4 km/h (3 Bft) O 83 ° 0 min 0 W/m² -5,7 °C -12,5 °C 24,1 km/h (4 Bft)
03.02.2026 21:32 21,9 °C -4,3 °C 43 % 90 % 1006,7 hPa 0,0 l/m² 12,8 km/h (3 Bft) O-NO 68 ° 0 min 0 W/m² -5,7 °C -10,6 °C 17,7 km/h (3 Bft)
03.02.2026 21:33 21,9 °C -4,3 °C 43 % 90 % 1006,7 hPa 0,0 l/m² 14,1 km/h (3 Bft) NO 35 ° 0 min 0 W/m² -5,7 °C -11,6 °C 17,7 km/h (3 Bft)
03.02.2026 21:35 21,9 °C -4,3 °C 43 % 90 % 1006,7 hPa 0,0 l/m² 13,9 km/h (3 Bft) O 84 ° 0 min 0 W/m² -5,7 °C -11,4 °C 20,9 km/h (4 Bft)
03.02.2026 21:36 21,9 °C -4,3 °C 43 % 90 % 1006,7 hPa 0,0 l/m² 15,1 km/h (3 Bft) O 82 ° 0 min 0 W/m² -5,7 °C -12,3 °C 17,7 km/h (3 Bft)
03.02.2026 21:37 21,9 °C -4,3 °C 43 % 90 % 1006,7 hPa 0,0 l/m² 12,2 km/h (2 Bft) NO 51 ° 0 min 0 W/m² -5,7 °C -10,1 °C 16,1 km/h (3 Bft)
03.02.2026 21:38 21,9 °C -4,3 °C 43 % 90 % 1006,7 hPa 0,0 l/m² 9,7 km/h (2 Bft) O-NO 77 ° 0 min 0 W/m² -5,7 °C -7,9 °C 14,5 km/h (3 Bft)
03.02.2026 21:39 21,9 °C -4,3 °C 43 % 90 % 1006,7 hPa 0,0 l/m² 11,7 km/h (2 Bft) O-NO 74 ° 0 min 0 W/m² -5,7 °C -9,7 °C 16,1 km/h (3 Bft)
03.02.2026 21:41 21,9 °C -4,3 °C 43 % 90 % 1006,7 hPa 0,0 l/m² 13,8 km/h (3 Bft) O-NO 62 ° 0 min 0 W/m² -5,7 °C -11,3 °C 19,3 km/h (3 Bft)
03.02.2026 21:42 21,9 °C -4,3 °C 43 % 90 % 1006,7 hPa 0,0 l/m² 14,1 km/h (3 Bft) O-NO 65 ° 0 min 0 W/m² -5,7 °C -11,6 °C 17,7 km/h (3 Bft)
03.02.2026 21:43 21,9 °C -4,3 °C 43 % 90 % 1006,7 hPa 0,0 l/m² 16,4 km/h (3 Bft) O 90 ° 0 min 0 W/m² -5,7 °C -13,1 °C 19,3 km/h (3 Bft)
03.02.2026 21:45 21,9 °C -4,3 °C 43 % 90 % 1006,8 hPa 0,0 l/m² 13,8 km/h (3 Bft) O 81 ° 0 min 0 W/m² -5,7 °C -11,3 °C 17,7 km/h (3 Bft)
03.02.2026 21:47 21,9 °C -4,3 °C 43 % 90 % 1006,7 hPa 0,0 l/m² 15,7 km/h (3 Bft) O 79 ° 0 min 0 W/m² -5,7 °C -12,7 °C 22,5 km/h (4 Bft)
03.02.2026 21:48 21,9 °C -4,3 °C 43 % 90 % 1006,7 hPa 0,0 l/m² 15,7 km/h (3 Bft) O-NO 70 ° 0 min 0 W/m² -5,7 °C -12,7 °C 19,3 km/h (3 Bft)
03.02.2026 21:49 21,9 °C -4,3 °C 43 % 90 % 1006,7 hPa 0,0 l/m² 14,8 km/h (3 Bft) O 87 ° 0 min 0 W/m² -5,7 °C -12,1 °C 19,3 km/h (3 Bft)
03.02.2026 21:51 21,9 °C -4,3 °C 43 % 90 % 1006,7 hPa 0,0 l/m² 13,3 km/h (3 Bft) O 85 ° 0 min 0 W/m² -5,7 °C -11,0 °C 19,3 km/h (3 Bft)
03.02.2026 21:52 21,9 °C -4,3 °C 43 % 90 % 1006,7 hPa 0,0 l/m² 16,0 km/h (3 Bft) O-NO 73 ° 0 min 0 W/m² -5,7 °C -12,9 °C 20,9 km/h (4 Bft)
03.02.2026 21:53 21,9 °C -4,3 °C 43 % 90 % 1006,7 hPa 0,0 l/m² 16,9 km/h (3 Bft) O 81 ° 0 min 0 W/m² -5,7 °C -13,4 °C 20,9 km/h (4 Bft)
03.02.2026 21:55 21,9 °C -4,3 °C 43 % 90 % 1006,7 hPa 0,0 l/m² 14,7 km/h (3 Bft) O 86 ° 0 min 0 W/m² -5,7 °C -12,0 °C 17,7 km/h (3 Bft)
03.02.2026 21:56 21,9 °C -4,3 °C 43 % 90 % 1006,8 hPa 0,0 l/m² 14,1 km/h (3 Bft) O 91 ° 0 min 0 W/m² -5,7 °C -11,6 °C 16,1 km/h (3 Bft)
03.02.2026 21:57 21,9 °C -4,3 °C 43 % 90 % 1006,8 hPa 0,0 l/m² 14,2 km/h (3 Bft) O 82 ° 0 min 0 W/m² -5,7 °C -11,6 °C 17,7 km/h (3 Bft)
03.02.2026 21:58 21,9 °C -4,3 °C 43 % 90 % 1006,8 hPa 0,0 l/m² 11,7 km/h (2 Bft) O 80 ° 0 min 0 W/m² -5,7 °C -9,7 °C 16,1 km/h (3 Bft)
03.02.2026 21:59 21,9 °C -4,3 °C 43 % 90 % 1006,8 hPa 0,0 l/m² 10,9 km/h (2 Bft) O-NO 73 ° 0 min 0 W/m² -5,7 °C -9,0 °C 16,1 km/h (3 Bft)
03.02.2026 22:01 21,9 °C -4,3 °C 43 % 90 % 1006,7 hPa 0,0 l/m² 13,2 km/h (3 Bft) O-NO 71 ° 0 min 0 W/m² -5,7 °C -10,9 °C 20,9 km/h (4 Bft)
03.02.2026 22:02 21,9 °C -4,3 °C 43 % 90 % 1006,7 hPa 0,0 l/m² 9,9 km/h (2 Bft) O-NO 78 ° 0 min 0 W/m² -5,7 °C -8,1 °C 17,7 km/h (3 Bft)
03.02.2026 22:03 21,9 °C -4,3 °C 43 % 90 % 1006,7 hPa 0,0 l/m² 16,2 km/h (3 Bft) O-NO 67 ° 0 min 0 W/m² -5,7 °C -13,0 °C 19,3 km/h (3 Bft)
03.02.2026 22:05 21,9 °C -4,3 °C 43 % 90 % 1006,7 hPa 0,0 l/m² 15,2 km/h (3 Bft) O 92 ° 0 min 0 W/m² -5,7 °C -12,3 °C 20,9 km/h (4 Bft)
03.02.2026 22:06 21,9 °C -4,3 °C 43 % 90 % 1006,7 hPa 0,0 l/m² 19,9 km/h (4 Bft) O-NO 73 ° 0 min 0 W/m² -5,7 °C -15,1 °C 24,1 km/h (4 Bft)
03.02.2026 22:07 21,9 °C -4,3 °C 43 % 90 % 1006,7 hPa 0,0 l/m² 15,4 km/h (3 Bft) O 91 ° 0 min 0 W/m² -5,7 °C -12,5 °C 17,7 km/h (3 Bft)
03.02.2026 22:08 21,9 °C -4,3 °C 43 % 90 % 1006,7 hPa 0,0 l/m² 15,3 km/h (3 Bft) O 80 ° 0 min 0 W/m² -5,7 °C -12,4 °C 17,7 km/h (3 Bft)
03.02.2026 22:09 21,9 °C -4,3 °C 43 % 90 % 1006,7 hPa 0,0 l/m² 18,2 km/h (3 Bft) O 85 ° 0 min 0 W/m² -5,7 °C -14,2 °C 22,5 km/h (4 Bft)
03.02.2026 22:11 21,9 °C -4,3 °C 43 % 90 % 1006,8 hPa 0,0 l/m² 15,5 km/h (3 Bft) O 79 ° 0 min 0 W/m² -5,7 °C -12,5 °C 20,9 km/h (4 Bft)
03.02.2026 22:12 21,9 °C -4,3 °C 43 % 90 % 1006,8 hPa 0,0 l/m² 17,5 km/h (3 Bft) O 84 ° 0 min 0 W/m² -5,7 °C -13,8 °C 22,5 km/h (4 Bft)
03.02.2026 22:13 21,9 °C -4,3 °C 43 % 90 % 1006,8 hPa 0,0 l/m² 15,5 km/h (3 Bft) O-NO 57 ° 0 min 0 W/m² -5,7 °C -12,5 °C 19,3 km/h (3 Bft)
03.02.2026 22:15 21,9 °C -4,4 °C 43 % 90 % 1006,8 hPa 0,0 l/m² 14,4 km/h (3 Bft) O 92 ° 0 min 0 W/m² -5,8 °C -11,9 °C 19,3 km/h (3 Bft)
03.02.2026 22:16 21,9 °C -4,4 °C 43 % 90 % 1006,7 hPa 0,0 l/m² 14,2 km/h (3 Bft) O 82 ° 0 min 0 W/m² -5,8 °C -11,8 °C 17,7 km/h (3 Bft)
03.02.2026 22:17 21,9 °C -4,4 °C 43 % 90 % 1006,7 hPa 0,0 l/m² 13,3 km/h (3 Bft) O 83 ° 0 min 0 W/m² -5,8 °C -11,1 °C 16,1 km/h (3 Bft)
03.02.2026 22:18 21,9 °C -4,3 °C 43 % 90 % 1006,7 hPa 0,0 l/m² 14,0 km/h (3 Bft) O-NO 74 ° 0 min 0 W/m² -5,7 °C -11,5 °C 22,5 km/h (4 Bft)
03.02.2026 22:19 21,9 °C -4,4 °C 43 % 90 % 1006,8 hPa 0,0 l/m² 12,5 km/h (2 Bft) O 79 ° 0 min 0 W/m² -5,8 °C -10,5 °C 19,3 km/h (3 Bft)
03.02.2026 22:21 21,9 °C -4,4 °C 43 % 90 % 1006,7 hPa 0,0 l/m² 12,8 km/h (3 Bft) O-NO 71 ° 0 min 0 W/m² -5,8 °C -10,7 °C 19,3 km/h (3 Bft)
03.02.2026 22:22 21,9 °C -4,4 °C 43 % 90 % 1006,8 hPa 0,0 l/m² 20,1 km/h (4 Bft) O-NO 63 ° 0 min 0 W/m² -5,8 °C -15,4 °C 25,7 km/h (4 Bft)
03.02.2026 22:23 21,9 °C -4,4 °C 43 % 90 % 1006,8 hPa 0,0 l/m² 16,9 km/h (3 Bft) O-NO 72 ° 0 min 0 W/m² -5,8 °C -13,5 °C 22,5 km/h (4 Bft)
03.02.2026 22:25 21,9 °C -4,4 °C 43 % 90 % 1006,7 hPa 0,0 l/m² 17,7 km/h (3 Bft) O 85 ° 0 min 0 W/m² -5,8 °C -14,0 °C 22,5 km/h (4 Bft)
03.02.2026 22:26 21,9 °C -4,4 °C 43 % 90 % 1006,7 hPa 0,0 l/m² 16,3 km/h (3 Bft) O 81 ° 0 min 0 W/m² -5,8 °C -13,2 °C 20,9 km/h (4 Bft)
03.02.2026 22:27 21,9 °C -4,4 °C 43 % 90 % 1006,8 hPa 0,0 l/m² 17,4 km/h (3 Bft) O 81 ° 0 min 0 W/m² -5,8 °C -13,9 °C 20,9 km/h (4 Bft)
03.02.2026 22:28 21,9 °C -4,4 °C 43 % 90 % 1006,7 hPa 0,0 l/m² 16,3 km/h (3 Bft) O-NO 63 ° 0 min 0 W/m² -5,8 °C -13,2 °C 20,9 km/h (4 Bft)
03.02.2026 22:29 21,9 °C -4,4 °C 43 % 91 % 1006,7 hPa 0,0 l/m² 20,3 km/h (4 Bft) O 82 ° 0 min 0 W/m² -5,6 °C -15,5 °C 25,7 km/h (4 Bft)
03.02.2026 22:31 21,9 °C -4,4 °C 43 % 91 % 1006,8 hPa 0,0 l/m² 19,6 km/h (3 Bft) O 82 ° 0 min 0 W/m² -5,6 °C -15,1 °C 25,7 km/h (4 Bft)
03.02.2026 22:32 21,9 °C -4,4 °C 43 % 91 % 1006,7 hPa 0,0 l/m² 18,0 km/h (3 Bft) O 88 ° 0 min 0 W/m² -5,6 °C -14,2 °C 20,9 km/h (4 Bft)
03.02.2026 22:33 21,9 °C -4,4 °C 43 % 91 % 1006,7 hPa 0,0 l/m² 16,0 km/h (3 Bft) O-NO 70 ° 0 min 0 W/m² -5,6 °C -13,0 °C 20,9 km/h (4 Bft)
03.02.2026 22:35 21,9 °C -4,4 °C 43 % 91 % 1006,8 hPa 0,0 l/m² 17,5 km/h (3 Bft) O 88 ° 0 min 0 W/m² -5,6 °C -13,9 °C 20,9 km/h (4 Bft)
03.02.2026 22:36 21,9 °C -4,4 °C 43 % 91 % 1006,8 hPa 0,0 l/m² 17,8 km/h (3 Bft) O-NO 78 ° 0 min 0 W/m² -5,6 °C -14,1 °C 19,3 km/h (3 Bft)
03.02.2026 22:37 21,9 °C -4,4 °C 43 % 91 % 1006,8 hPa 0,0 l/m² 15,6 km/h (3 Bft) O 84 ° 0 min 0 W/m² -5,6 °C -12,7 °C 17,7 km/h (3 Bft)
03.02.2026 22:38 21,9 °C -4,4 °C 43 % 91 % 1006,8 hPa 0,0 l/m² 15,4 km/h (3 Bft) O 93 ° 0 min 0 W/m² -5,6 °C -12,6 °C 19,3 km/h (3 Bft)
03.02.2026 22:39 21,9 °C -4,3 °C 43 % 91 % 1006,8 hPa 0,0 l/m² 13,5 km/h (3 Bft) O 91 ° 0 min 0 W/m² -5,5 °C -11,1 °C 19,3 km/h (3 Bft)
03.02.2026 22:41 21,9 °C -4,4 °C 43 % 91 % 1006,8 hPa 0,0 l/m² 16,0 km/h (3 Bft) O-NO 66 ° 0 min 0 W/m² -5,6 °C -13,0 °C 24,1 km/h (4 Bft)
03.02.2026 22:42 21,9 °C -4,4 °C 43 % 91 % 1006,8 hPa 0,0 l/m² 19,3 km/h (3 Bft) O 93 ° 0 min 0 W/m² -5,6 °C -14,9 °C 22,5 km/h (4 Bft)
03.02.2026 22:43 21,9 °C -4,4 °C 43 % 91 % 1006,8 hPa 0,0 l/m² 15,7 km/h (3 Bft) O 89 ° 0 min 0 W/m² -5,6 °C -12,8 °C 19,3 km/h (3 Bft)
03.02.2026 22:45 21,9 °C -4,3 °C 43 % 91 % 1006,6 hPa 0,0 l/m² 18,8 km/h (3 Bft) O 86 ° 0 min 0 W/m² -5,5 °C -14,5 °C 25,7 km/h (4 Bft)
03.02.2026 22:46 21,9 °C -4,3 °C 43 % 91 % 1006,7 hPa 0,0 l/m² 18,4 km/h (3 Bft) O 86 ° 0 min 0 W/m² -5,5 °C -14,3 °C 22,5 km/h (4 Bft)
03.02.2026 22:47 21,9 °C -4,3 °C 43 % 91 % 1006,7 hPa 0,0 l/m² 21,0 km/h (4 Bft) O-NO 74 ° 0 min 0 W/m² -5,5 °C -15,7 °C 25,7 km/h (4 Bft)
03.02.2026 22:48 21,9 °C -4,3 °C 43 % 91 % 1006,7 hPa 0,0 l/m² 21,2 km/h (4 Bft) O 88 ° 0 min 0 W/m² -5,5 °C -15,8 °C 24,1 km/h (4 Bft)
03.02.2026 22:49 21,9 °C -4,3 °C 43 % 91 % 1006,7 hPa 0,0 l/m² 16,9 km/h (3 Bft) O 82 ° 0 min 0 W/m² -5,5 °C -13,4 °C 24,1 km/h (4 Bft)
03.02.2026 22:51 21,9 °C -4,3 °C 43 % 91 % 1006,7 hPa 0,0 l/m² 18,6 km/h (3 Bft) O-NO 67 ° 0 min 0 W/m² -5,5 °C -14,4 °C 25,7 km/h (4 Bft)
03.02.2026 22:52 21,9 °C -4,3 °C 43 % 91 % 1006,7 hPa 0,0 l/m² 19,4 km/h (3 Bft) O-NO 74 ° 0 min 0 W/m² -5,5 °C -14,9 °C 22,5 km/h (4 Bft)
03.02.2026 22:53 21,9 °C -4,3 °C 43 % 91 % 1006,7 hPa 0,0 l/m² 16,9 km/h (3 Bft) O 86 ° 0 min 0 W/m² -5,5 °C -13,4 °C 22,5 km/h (4 Bft)
03.02.2026 22:55 21,9 °C -4,3 °C 43 % 91 % 1006,7 hPa 0,0 l/m² 14,8 km/h (3 Bft) O 84 ° 0 min 0 W/m² -5,5 °C -12,1 °C 19,3 km/h (3 Bft)
03.02.2026 22:56 21,9 °C -4,3 °C 43 % 91 % 1006,7 hPa 0,0 l/m² 13,2 km/h (3 Bft) O 79 ° 0 min 0 W/m² -5,5 °C -10,9 °C 17,7 km/h (3 Bft)
03.02.2026 22:57 21,9 °C -4,3 °C 43 % 91 % 1006,7 hPa 0,0 l/m² 17,5 km/h (3 Bft) O 92 ° 0 min 0 W/m² -5,5 °C -13,8 °C 20,9 km/h (4 Bft)
03.02.2026 22:58 21,9 °C -4,3 °C 43 % 91 % 1006,8 hPa 0,0 l/m² 16,7 km/h (3 Bft) O 80 ° 0 min 0 W/m² -5,5 °C -13,3 °C 20,9 km/h (4 Bft)
03.02.2026 22:59 21,9 °C -4,3 °C 43 % 91 % 1006,7 hPa 0,0 l/m² 11,4 km/h (2 Bft) O-NO 69 ° 0 min 0 W/m² -5,5 °C -9,5 °C 20,9 km/h (4 Bft)
03.02.2026 23:01 21,9 °C -4,3 °C 43 % 91 % 1006,8 hPa 0,0 l/m² 15,9 km/h (3 Bft) O-NO 76 ° 0 min 0 W/m² -5,5 °C -12,8 °C 20,9 km/h (4 Bft)
03.02.2026 23:02 21,9 °C -4,3 °C 43 % 91 % 1006,8 hPa 0,0 l/m² 17,2 km/h (3 Bft) O 84 ° 0 min 0 W/m² -5,5 °C -13,6 °C 24,1 km/h (4 Bft)
03.02.2026 23:03 21,9 °C -4,3 °C 43 % 91 % 1006,8 hPa 0,0 l/m² 19,0 km/h (3 Bft) O 87 ° 0 min 0 W/m² -5,5 °C -14,6 °C 22,5 km/h (4 Bft)
03.02.2026 23:05 21,9 °C -4,3 °C 43 % 91 % 1006,8 hPa 0,0 l/m² 20,3 km/h (4 Bft) O 82 ° 0 min 0 W/m² -5,5 °C -15,3 °C 27,4 km/h (5 Bft)
03.02.2026 23:06 21,9 °C -4,3 °C 43 % 91 % 1006,8 hPa 0,0 l/m² 17,3 km/h (3 Bft) O-NO 69 ° 0 min 0 W/m² -5,5 °C -13,7 °C 19,3 km/h (3 Bft)
03.02.2026 23:08 21,9 °C -4,3 °C 43 % 91 % 1006,8 hPa 0,0 l/m² 16,8 km/h (3 Bft) O-NO 60 ° 0 min 0 W/m² -5,5 °C -13,4 °C 22,5 km/h (4 Bft)
03.02.2026 23:09 21,9 °C -4,3 °C 43 % 91 % 1006,8 hPa 0,0 l/m² 21,7 km/h (4 Bft) O 86 ° 0 min 0 W/m² -5,5 °C -16,0 °C 25,7 km/h (4 Bft)
03.02.2026 23:11 21,9 °C -4,3 °C 43 % 91 % 1006,7 hPa 0,0 l/m² 18,0 km/h (3 Bft) NO 40 ° 0 min 0 W/m² -5,5 °C -14,1 °C 24,1 km/h (4 Bft)
03.02.2026 23:12 21,9 °C -4,3 °C 43 % 91 % 1006,8 hPa 0,0 l/m² 15,9 km/h (3 Bft) O 81 ° 0 min 0 W/m² -5,5 °C -12,8 °C 19,3 km/h (3 Bft)
03.02.2026 23:13 21,9 °C -4,3 °C 43 % 91 % 1006,8 hPa 0,0 l/m² 13,2 km/h (3 Bft) O 95 ° 0 min 0 W/m² -5,5 °C -10,9 °C 17,7 km/h (3 Bft)
03.02.2026 23:15 21,9 °C -4,3 °C 43 % 91 % 1006,8 hPa 0,0 l/m² 16,3 km/h (3 Bft) O 99 ° 0 min 0 W/m² -5,5 °C -13,0 °C 24,1 km/h (4 Bft)
03.02.2026 23:16 21,9 °C -4,3 °C 43 % 91 % 1006,8 hPa 0,0 l/m² 17,7 km/h (3 Bft) O 90 ° 0 min 0 W/m² -5,5 °C -13,9 °C 19,3 km/h (3 Bft)
03.02.2026 23:17 21,9 °C -4,3 °C 43 % 91 % 1006,9 hPa 0,0 l/m² 16,1 km/h (3 Bft) O 90 ° 0 min 0 W/m² -5,5 °C -12,9 °C 22,5 km/h (4 Bft)
03.02.2026 23:22 21,9 °C -4,3 °C 43 % 91 % 1006,7 hPa 0,0 l/m² 13,3 km/h (3 Bft) O 90 ° 0 min 0 W/m² -5,5 °C -11,0 °C 16,1 km/h (3 Bft)
03.02.2026 23:24 21,9 °C -4,2 °C 43 % 91 % 1006,7 hPa 0,0 l/m² 15,2 km/h (3 Bft) O-NO 71 ° 0 min 0 W/m² -5,4 °C -12,2 °C 22,5 km/h (4 Bft)
03.02.2026 23:25 21,9 °C -4,2 °C 43 % 91 % 1006,7 hPa 0,0 l/m² 17,4 km/h (3 Bft) O 83 ° 0 min 0 W/m² -5,4 °C -13,6 °C 19,3 km/h (3 Bft)
03.02.2026 23:27 21,9 °C -4,2 °C 43 % 91 % 1006,7 hPa 0,0 l/m² 17,8 km/h (3 Bft) O 94 ° 0 min 0 W/m² -5,4 °C -13,8 °C 22,5 km/h (4 Bft)
03.02.2026 23:29 21,9 °C -4,2 °C 43 % 91 % 1006,7 hPa 0,0 l/m² 15,6 km/h (3 Bft) O 84 ° 0 min 0 W/m² -5,4 °C -12,5 °C 22,5 km/h (4 Bft)
03.02.2026 23:30 21,9 °C -4,3 °C 43 % 91 % 1006,6 hPa 0,0 l/m² 14,3 km/h (3 Bft) O 79 ° 0 min 0 W/m² -5,5 °C -11,7 °C 19,3 km/h (3 Bft)
03.02.2026 23:31 21,9 °C -4,2 °C 43 % 91 % 1006,8 hPa 0,0 l/m² 17,0 km/h (3 Bft) O 80 ° 0 min 0 W/m² -5,4 °C -13,4 °C 20,9 km/h (4 Bft)
03.02.2026 23:32 21,9 °C -4,2 °C 43 % 91 % 1006,8 hPa 0,0 l/m² 14,6 km/h (3 Bft) O-NO 73 ° 0 min 0 W/m² -5,4 °C -11,8 °C 20,9 km/h (4 Bft)
03.02.2026 23:34 21,9 °C -4,2 °C 43 % 91 % 1006,7 hPa 0,0 l/m² 15,5 km/h (3 Bft) O-NO 78 ° 0 min 0 W/m² -5,4 °C -12,4 °C 20,9 km/h (4 Bft)
03.02.2026 23:36 21,9 °C -4,2 °C 43 % 91 % 1006,7 hPa 0,0 l/m² 15,0 km/h (3 Bft) O 86 ° 0 min 0 W/m² -5,4 °C -12,1 °C 20,9 km/h (4 Bft)
03.02.2026 23:38 21,9 °C -4,2 °C 43 % 91 % 1006,6 hPa 0,0 l/m² 17,3 km/h (3 Bft) O 79 ° 0 min 0 W/m² -5,4 °C -13,5 °C 24,1 km/h (4 Bft)
03.02.2026 23:40 21,9 °C -4,3 °C 43 % 91 % 1006,7 hPa 0,0 l/m² 15,3 km/h (3 Bft) O 96 ° 0 min 0 W/m² -5,5 °C -12,4 °C 20,9 km/h (4 Bft)
03.02.2026 23:41 21,9 °C -4,3 °C 43 % 91 % 1006,6 hPa 0,0 l/m² 13,6 km/h (3 Bft) O-NO 69 ° 0 min 0 W/m² -5,5 °C -11,2 °C 19,3 km/h (3 Bft)
03.02.2026 23:42 21,9 °C -4,2 °C 43 % 91 % 1006,6 hPa 0,0 l/m² 16,9 km/h (3 Bft) O 88 ° 0 min 0 W/m² -5,4 °C -13,3 °C 22,5 km/h (4 Bft)
03.02.2026 23:44 21,9 °C -4,3 °C 43 % 91 % 1006,6 hPa 0,0 l/m² 18,0 km/h (3 Bft) O 80 ° 0 min 0 W/m² -5,5 °C -14,1 °C 20,9 km/h (4 Bft)
03.02.2026 23:46 21,9 °C -4,2 °C 43 % 91 % 1006,6 hPa 0,0 l/m² 15,2 km/h (3 Bft) O 90 ° 0 min 0 W/m² -5,4 °C -12,2 °C 22,5 km/h (4 Bft)
03.02.2026 23:48 21,9 °C -4,2 °C 43 % 91 % 1006,6 hPa 0,0 l/m² 12,2 km/h (2 Bft) O 90 ° 0 min 0 W/m² -5,4 °C -10,0 °C 20,9 km/h (4 Bft)
03.02.2026 23:50 21,9 °C -4,2 °C 43 % 91 % 1006,6 hPa 0,0 l/m² 13,8 km/h (3 Bft) O-NO 66 ° 0 min 0 W/m² -5,4 °C -11,2 °C 17,7 km/h (3 Bft)
03.02.2026 23:51 21,9 °C -4,2 °C 43 % 91 % 1006,6 hPa 0,0 l/m² 14,8 km/h (3 Bft) O-NO 61 ° 0 min 0 W/m² -5,4 °C -11,9 °C 19,3 km/h (3 Bft)
03.02.2026 23:52 21,9 °C -4,2 °C 43 % 91 % 1006,6 hPa 0,0 l/m² 10,2 km/h (2 Bft) O 83 ° 0 min 0 W/m² -5,4 °C -8,3 °C 19,3 km/h (3 Bft)
03.02.2026 23:54 22,0 °C -4,2 °C 43 % 90 % 1006,6 hPa 0,0 l/m² 13,0 km/h (3 Bft) O 100 ° 0 min 0 W/m² -5,6 °C -10,6 °C 19,3 km/h (3 Bft)
03.02.2026 23:56 21,9 °C -4,2 °C 43 % 90 % 1006,6 hPa 0,0 l/m² 13,7 km/h (3 Bft) O-NO 78 ° 0 min 0 W/m² -5,6 °C -11,2 °C 19,3 km/h (3 Bft)
03.02.2026 23:58 21,9 °C -4,2 °C 43 % 90 % 1006,6 hPa 0,0 l/m² 15,9 km/h (3 Bft) O 85 ° 0 min 0 W/m² -5,6 °C -12,7 °C 22,5 km/h (4 Bft)
_ Min-Zeit 19:25 00:53 23:58 08:09 15:23 - 10:57 - - - - 08:09 01:47 19:53
Minimum _ 21,8 °C -5,9 °C 43 % 77 % 1006,2 hPa - 3,3 km/h (1 Bft) - - - - -8,8 °C -18,4 °C 6,4 km/h (2 Bft)
_ Max-Zeit 04:08 15:42 02:46 23:52 00:06 23:58 11:58 - - 12:06 12:08 23:52 15:13 11:59
Maximum _ 22,1 °C -3,2 °C 44 % 91 % 1009,9 hPa 0,0 l/m² 25,0 km/h
O-NO (4 Bft)
- - 6 min 137 W/m² -5,4 °C -3,2 °C 35,4 km/h
O-NO (5 Bft)
Durchschnitt _ 21,9 °C -4,5 °C 43 % 81 % 1007,6 hPa #0,0 l/m² 13,6 km/h (3 Bft) O-NO - #5:52 h 26 W/m² -7,2 °C -11,3 °C 20,5 km/h (4 Bft)
© 2009 Mathias Hoßbach